<?xml version="1.0" encoding="UTF-8" standalone="no" ?>
<gpx xmlns="http://www.topografix.com/GPX/1/1" xmlns:xsi="http://www.w3.org/2001/XMLSchema-instance" xsi:schemaLocation="http://www.topografix.com/GPX/1/1 http://www.topografix.com/GPX/1/1/gpx.xsd" version="1.1" creator="VisuGPX - https://www.visugpx.com">
  <metadata>
    <name>etape 1 millau dourbies-17511168</name>
    <desc><![CDATA[Etape rando 1 Millau-Bédarieux]]></desc>
  </metadata>
  <trk>
    <name><![CDATA[etape 1 millau dourbies-17511168]]></name>
    <trkseg>
      <trkpt lat="44.0967" lon="3.06944">
        <ele>385</ele>
        <time>2023-09-16T09:20:06Z</time>
      </trkpt>
      <trkpt lat="44.09674" lon="3.06971">
        <ele>385</ele>
        <time>2023-09-16T09:20:10Z</time>
      </trkpt>
      <trkpt lat="44.09669" lon="3.06995">
        <ele>384</ele>
        <time>2023-09-16T09:20:13Z</time>
      </trkpt>
      <trkpt lat="44.09654" lon="3.07036">
        <ele>379</ele>
        <time>2023-09-16T09:20:19Z</time>
      </trkpt>
      <trkpt lat="44.09686" lon="3.07071">
        <ele>378</ele>
        <time>2023-09-16T09:20:26Z</time>
      </trkpt>
      <trkpt lat="44.09723" lon="3.07106">
        <ele>378</ele>
        <time>2023-09-16T09:20:34Z</time>
      </trkpt>
      <trkpt lat="44.09718" lon="3.07138">
        <ele>377</ele>
        <time>2023-09-16T09:20:38Z</time>
      </trkpt>
      <trkpt lat="44.09703" lon="3.07195">
        <ele>374</ele>
        <time>2023-09-16T09:20:46Z</time>
      </trkpt>
      <trkpt lat="44.09686" lon="3.0725">
        <ele>374</ele>
        <time>2023-09-16T09:20:53Z</time>
      </trkpt>
      <trkpt lat="44.09676" lon="3.07257">
        <ele>374</ele>
        <time>2023-09-16T09:20:55Z</time>
      </trkpt>
      <trkpt lat="44.09673" lon="3.07252">
        <ele>374</ele>
        <time>2023-09-16T09:20:56Z</time>
      </trkpt>
      <trkpt lat="44.09667" lon="3.07249">
        <ele>374</ele>
        <time>2023-09-16T09:20:57Z</time>
      </trkpt>
      <trkpt lat="44.09664" lon="3.0725">
        <ele>374</ele>
        <time>2023-09-16T09:20:58Z</time>
      </trkpt>
      <trkpt lat="44.09658" lon="3.07255">
        <ele>374</ele>
        <time>2023-09-16T09:20:59Z</time>
      </trkpt>
      <trkpt lat="44.09655" lon="3.07264">
        <ele>373</ele>
        <time>2023-09-16T09:21:00Z</time>
      </trkpt>
      <trkpt lat="44.09657" lon="3.07273">
        <ele>373</ele>
        <time>2023-09-16T09:21:02Z</time>
      </trkpt>
      <trkpt lat="44.09663" lon="3.07279">
        <ele>373</ele>
        <time>2023-09-16T09:21:03Z</time>
      </trkpt>
      <trkpt lat="44.0967" lon="3.07279">
        <ele>373</ele>
        <time>2023-09-16T09:21:04Z</time>
      </trkpt>
      <trkpt lat="44.09677" lon="3.0727">
        <ele>373</ele>
        <time>2023-09-16T09:21:06Z</time>
      </trkpt>
      <trkpt lat="44.09745" lon="3.07305">
        <ele>372</ele>
        <time>2023-09-16T09:21:19Z</time>
      </trkpt>
      <trkpt lat="44.10007" lon="3.07456">
        <ele>379</ele>
        <time>2023-09-16T09:22:09Z</time>
      </trkpt>
      <trkpt lat="44.09895" lon="3.0772">
        <ele>378</ele>
        <time>2023-09-16T09:22:48Z</time>
      </trkpt>
      <trkpt lat="44.0994" lon="3.07822">
        <ele>379</ele>
        <time>2023-09-16T09:23:04Z</time>
      </trkpt>
      <trkpt lat="44.09957" lon="3.07848">
        <ele>378</ele>
        <time>2023-09-16T09:23:08Z</time>
      </trkpt>
      <trkpt lat="44.09959" lon="3.07862">
        <ele>378</ele>
        <time>2023-09-16T09:23:10Z</time>
      </trkpt>
      <trkpt lat="44.09965" lon="3.07877">
        <ele>378</ele>
        <time>2023-09-16T09:23:12Z</time>
      </trkpt>
      <trkpt lat="44.09968" lon="3.0788">
        <ele>378</ele>
        <time>2023-09-16T09:23:13Z</time>
      </trkpt>
      <trkpt lat="44.09978" lon="3.07882">
        <ele>378</ele>
        <time>2023-09-16T09:23:15Z</time>
      </trkpt>
      <trkpt lat="44.09981" lon="3.07875">
        <ele>378</ele>
        <time>2023-09-16T09:23:16Z</time>
      </trkpt>
      <trkpt lat="44.10077" lon="3.07902">
        <ele>380</ele>
        <time>2023-09-16T09:23:33Z</time>
      </trkpt>
      <trkpt lat="44.10076" lon="3.07909">
        <ele>380</ele>
        <time>2023-09-16T09:23:34Z</time>
      </trkpt>
      <trkpt lat="44.10079" lon="3.07918">
        <ele>380</ele>
        <time>2023-09-16T09:23:35Z</time>
      </trkpt>
      <trkpt lat="44.10081" lon="3.0794">
        <ele>380</ele>
        <time>2023-09-16T09:23:38Z</time>
      </trkpt>
      <trkpt lat="44.10069" lon="3.07994">
        <ele>379</ele>
        <time>2023-09-16T09:23:45Z</time>
      </trkpt>
      <trkpt lat="44.10062" lon="3.08097">
        <ele>374</ele>
        <time>2023-09-16T09:23:59Z</time>
      </trkpt>
      <trkpt lat="44.10079" lon="3.08098">
        <ele>374</ele>
        <time>2023-09-16T09:24:02Z</time>
      </trkpt>
      <trkpt lat="44.10089" lon="3.08112">
        <ele>373</ele>
        <time>2023-09-16T09:24:04Z</time>
      </trkpt>
      <trkpt lat="44.10111" lon="3.08125">
        <ele>372</ele>
        <time>2023-09-16T09:24:08Z</time>
      </trkpt>
      <trkpt lat="44.10103" lon="3.08137">
        <ele>371</ele>
        <time>2023-09-16T09:24:10Z</time>
      </trkpt>
      <trkpt lat="44.10115" lon="3.08147">
        <ele>370</ele>
        <time>2023-09-16T09:24:13Z</time>
      </trkpt>
      <trkpt lat="44.10131" lon="3.0817">
        <ele>368</ele>
        <time>2023-09-16T09:24:17Z</time>
      </trkpt>
      <trkpt lat="44.10144" lon="3.08201">
        <ele>367</ele>
        <time>2023-09-16T09:24:22Z</time>
      </trkpt>
      <trkpt lat="44.10149" lon="3.08221">
        <ele>367</ele>
        <time>2023-09-16T09:24:24Z</time>
      </trkpt>
      <trkpt lat="44.10154" lon="3.08251">
        <ele>366</ele>
        <time>2023-09-16T09:24:28Z</time>
      </trkpt>
      <trkpt lat="44.10161" lon="3.08316">
        <ele>365</ele>
        <time>2023-09-16T09:24:37Z</time>
      </trkpt>
      <trkpt lat="44.1018" lon="3.08536">
        <ele>361</ele>
        <time>2023-09-16T09:25:05Z</time>
      </trkpt>
      <trkpt lat="44.10172" lon="3.08555">
        <ele>360</ele>
        <time>2023-09-16T09:25:08Z</time>
      </trkpt>
      <trkpt lat="44.10163" lon="3.08563">
        <ele>360</ele>
        <time>2023-09-16T09:25:10Z</time>
      </trkpt>
      <trkpt lat="44.10161" lon="3.0857">
        <ele>360</ele>
        <time>2023-09-16T09:25:11Z</time>
      </trkpt>
      <trkpt lat="44.10161" lon="3.08578">
        <ele>359</ele>
        <time>2023-09-16T09:25:12Z</time>
      </trkpt>
      <trkpt lat="44.10163" lon="3.08586">
        <ele>359</ele>
        <time>2023-09-16T09:25:13Z</time>
      </trkpt>
      <trkpt lat="44.10169" lon="3.08593">
        <ele>359</ele>
        <time>2023-09-16T09:25:14Z</time>
      </trkpt>
      <trkpt lat="44.10176" lon="3.08595">
        <ele>359</ele>
        <time>2023-09-16T09:25:15Z</time>
      </trkpt>
      <trkpt lat="44.10184" lon="3.08591">
        <ele>359</ele>
        <time>2023-09-16T09:25:17Z</time>
      </trkpt>
      <trkpt lat="44.1019" lon="3.08604">
        <ele>359</ele>
        <time>2023-09-16T09:25:19Z</time>
      </trkpt>
      <trkpt lat="44.10186" lon="3.08605">
        <ele>358</ele>
        <time>2023-09-16T09:25:20Z</time>
      </trkpt>
      <trkpt lat="44.10187" lon="3.08611">
        <ele>358</ele>
        <time>2023-09-16T09:25:20Z</time>
      </trkpt>
      <trkpt lat="44.10198" lon="3.08717">
        <ele>357</ele>
        <time>2023-09-16T09:25:34Z</time>
      </trkpt>
      <trkpt lat="44.10204" lon="3.08724">
        <ele>357</ele>
        <time>2023-09-16T09:25:36Z</time>
      </trkpt>
      <trkpt lat="44.10209" lon="3.08732">
        <ele>357</ele>
        <time>2023-09-16T09:25:37Z</time>
      </trkpt>
      <trkpt lat="44.10219" lon="3.08741">
        <ele>357</ele>
        <time>2023-09-16T09:25:39Z</time>
      </trkpt>
      <trkpt lat="44.10237" lon="3.08757">
        <ele>357</ele>
        <time>2023-09-16T09:25:43Z</time>
      </trkpt>
      <trkpt lat="44.1025" lon="3.08773">
        <ele>357</ele>
        <time>2023-09-16T09:25:46Z</time>
      </trkpt>
      <trkpt lat="44.10292" lon="3.08847">
        <ele>357</ele>
        <time>2023-09-16T09:25:58Z</time>
      </trkpt>
      <trkpt lat="44.10298" lon="3.08861">
        <ele>358</ele>
        <time>2023-09-16T09:26:00Z</time>
      </trkpt>
      <trkpt lat="44.10319" lon="3.08976">
        <ele>360</ele>
        <time>2023-09-16T09:26:15Z</time>
      </trkpt>
      <trkpt lat="44.10319" lon="3.09002">
        <ele>361</ele>
        <time>2023-09-16T09:26:18Z</time>
      </trkpt>
      <trkpt lat="44.10313" lon="3.0903">
        <ele>361</ele>
        <time>2023-09-16T09:26:22Z</time>
      </trkpt>
      <trkpt lat="44.10295" lon="3.09073">
        <ele>361</ele>
        <time>2023-09-16T09:26:29Z</time>
      </trkpt>
      <trkpt lat="44.10276" lon="3.09108">
        <ele>361</ele>
        <time>2023-09-16T09:26:34Z</time>
      </trkpt>
      <trkpt lat="44.10249" lon="3.09174">
        <ele>360</ele>
        <time>2023-09-16T09:26:44Z</time>
      </trkpt>
      <trkpt lat="44.10227" lon="3.09204">
        <ele>361</ele>
        <time>2023-09-16T09:26:49Z</time>
      </trkpt>
      <trkpt lat="44.10208" lon="3.09225">
        <ele>361</ele>
        <time>2023-09-16T09:26:54Z</time>
      </trkpt>
      <trkpt lat="44.10204" lon="3.09232">
        <ele>361</ele>
        <time>2023-09-16T09:26:55Z</time>
      </trkpt>
      <trkpt lat="44.10201" lon="3.09241">
        <ele>361</ele>
        <time>2023-09-16T09:26:56Z</time>
      </trkpt>
      <trkpt lat="44.10194" lon="3.09293">
        <ele>362</ele>
        <time>2023-09-16T09:27:03Z</time>
      </trkpt>
      <trkpt lat="44.10189" lon="3.09308">
        <ele>362</ele>
        <time>2023-09-16T09:27:05Z</time>
      </trkpt>
      <trkpt lat="44.10159" lon="3.0934">
        <ele>362</ele>
        <time>2023-09-16T09:27:12Z</time>
      </trkpt>
      <trkpt lat="44.10131" lon="3.09449">
        <ele>362</ele>
        <time>2023-09-16T09:27:26Z</time>
      </trkpt>
      <trkpt lat="44.10061" lon="3.09644">
        <ele>360</ele>
        <time>2023-09-16T09:27:54Z</time>
      </trkpt>
      <trkpt lat="44.10007" lon="3.09786">
        <ele>360</ele>
        <time>2023-09-16T09:28:15Z</time>
      </trkpt>
      <trkpt lat="44.09993" lon="3.09826">
        <ele>359</ele>
        <time>2023-09-16T09:28:21Z</time>
      </trkpt>
      <trkpt lat="44.09989" lon="3.09849">
        <ele>359</ele>
        <time>2023-09-16T09:28:24Z</time>
      </trkpt>
      <trkpt lat="44.09983" lon="3.09917">
        <ele>359</ele>
        <time>2023-09-16T09:28:32Z</time>
      </trkpt>
      <trkpt lat="44.09981" lon="3.10055">
        <ele>360</ele>
        <time>2023-09-16T09:28:50Z</time>
      </trkpt>
      <trkpt lat="44.0999" lon="3.10106">
        <ele>360</ele>
        <time>2023-09-16T09:28:57Z</time>
      </trkpt>
      <trkpt lat="44.1001" lon="3.10246">
        <ele>361</ele>
        <time>2023-09-16T09:29:15Z</time>
      </trkpt>
      <trkpt lat="44.10023" lon="3.10307">
        <ele>362</ele>
        <time>2023-09-16T09:29:23Z</time>
      </trkpt>
      <trkpt lat="44.10042" lon="3.10358">
        <ele>363</ele>
        <time>2023-09-16T09:29:30Z</time>
      </trkpt>
      <trkpt lat="44.10052" lon="3.10403">
        <ele>363</ele>
        <time>2023-09-16T09:29:36Z</time>
      </trkpt>
      <trkpt lat="44.1007" lon="3.10395">
        <ele>364</ele>
        <time>2023-09-16T09:29:40Z</time>
      </trkpt>
      <trkpt lat="44.10063" lon="3.10432">
        <ele>363</ele>
        <time>2023-09-16T09:29:45Z</time>
      </trkpt>
      <trkpt lat="44.10062" lon="3.10449">
        <ele>363</ele>
        <time>2023-09-16T09:29:47Z</time>
      </trkpt>
      <trkpt lat="44.10075" lon="3.10452">
        <ele>363</ele>
        <time>2023-09-16T09:29:49Z</time>
      </trkpt>
      <trkpt lat="44.1009" lon="3.1052">
        <ele>365</ele>
        <time>2023-09-16T09:29:58Z</time>
      </trkpt>
      <trkpt lat="44.101" lon="3.10601">
        <ele>370</ele>
        <time>2023-09-16T09:30:09Z</time>
      </trkpt>
      <trkpt lat="44.10108" lon="3.10657">
        <ele>374</ele>
        <time>2023-09-16T09:30:16Z</time>
      </trkpt>
      <trkpt lat="44.10114" lon="3.10683">
        <ele>375</ele>
        <time>2023-09-16T09:30:20Z</time>
      </trkpt>
      <trkpt lat="44.1012" lon="3.10702">
        <ele>376</ele>
        <time>2023-09-16T09:30:22Z</time>
      </trkpt>
      <trkpt lat="44.10143" lon="3.10751">
        <ele>380</ele>
        <time>2023-09-16T09:30:30Z</time>
      </trkpt>
      <trkpt lat="44.10139" lon="3.10829">
        <ele>381</ele>
        <time>2023-09-16T09:30:40Z</time>
      </trkpt>
      <trkpt lat="44.10136" lon="3.10845">
        <ele>380</ele>
        <time>2023-09-16T09:30:42Z</time>
      </trkpt>
      <trkpt lat="44.10131" lon="3.10863">
        <ele>379</ele>
        <time>2023-09-16T09:30:44Z</time>
      </trkpt>
      <trkpt lat="44.10131" lon="3.10877">
        <ele>379</ele>
        <time>2023-09-16T09:30:46Z</time>
      </trkpt>
      <trkpt lat="44.10145" lon="3.10937">
        <ele>383</ele>
        <time>2023-09-16T09:30:54Z</time>
      </trkpt>
      <trkpt lat="44.10147" lon="3.10956">
        <ele>384</ele>
        <time>2023-09-16T09:30:57Z</time>
      </trkpt>
      <trkpt lat="44.10143" lon="3.10977">
        <ele>385</ele>
        <time>2023-09-16T09:30:59Z</time>
      </trkpt>
      <trkpt lat="44.10134" lon="3.11008">
        <ele>385</ele>
        <time>2023-09-16T09:31:04Z</time>
      </trkpt>
      <trkpt lat="44.10131" lon="3.11033">
        <ele>386</ele>
        <time>2023-09-16T09:31:07Z</time>
      </trkpt>
      <trkpt lat="44.10127" lon="3.11049">
        <ele>386</ele>
        <time>2023-09-16T09:31:09Z</time>
      </trkpt>
      <trkpt lat="44.1012" lon="3.11066">
        <ele>385</ele>
        <time>2023-09-16T09:31:12Z</time>
      </trkpt>
      <trkpt lat="44.10111" lon="3.11095">
        <ele>385</ele>
        <time>2023-09-16T09:31:16Z</time>
      </trkpt>
      <trkpt lat="44.10109" lon="3.11123">
        <ele>387</ele>
        <time>2023-09-16T09:31:19Z</time>
      </trkpt>
      <trkpt lat="44.10119" lon="3.11185">
        <ele>393</ele>
        <time>2023-09-16T09:31:27Z</time>
      </trkpt>
      <trkpt lat="44.10127" lon="3.11203">
        <ele>395</ele>
        <time>2023-09-16T09:31:30Z</time>
      </trkpt>
      <trkpt lat="44.10127" lon="3.1122">
        <ele>396</ele>
        <time>2023-09-16T09:31:32Z</time>
      </trkpt>
      <trkpt lat="44.10125" lon="3.1123">
        <ele>396</ele>
        <time>2023-09-16T09:31:33Z</time>
      </trkpt>
      <trkpt lat="44.10127" lon="3.1124">
        <ele>396</ele>
        <time>2023-09-16T09:31:35Z</time>
      </trkpt>
      <trkpt lat="44.10134" lon="3.11259">
        <ele>398</ele>
        <time>2023-09-16T09:31:38Z</time>
      </trkpt>
      <trkpt lat="44.10148" lon="3.11305">
        <ele>403</ele>
        <time>2023-09-16T09:31:44Z</time>
      </trkpt>
      <trkpt lat="44.10145" lon="3.11333">
        <ele>403</ele>
        <time>2023-09-16T09:31:48Z</time>
      </trkpt>
      <trkpt lat="44.10151" lon="3.11354">
        <ele>403</ele>
        <time>2023-09-16T09:31:50Z</time>
      </trkpt>
      <trkpt lat="44.10165" lon="3.11375">
        <ele>405</ele>
        <time>2023-09-16T09:31:54Z</time>
      </trkpt>
      <trkpt lat="44.1018" lon="3.11406">
        <ele>407</ele>
        <time>2023-09-16T09:31:59Z</time>
      </trkpt>
      <trkpt lat="44.10198" lon="3.11431">
        <ele>409</ele>
        <time>2023-09-16T09:32:03Z</time>
      </trkpt>
      <trkpt lat="44.10213" lon="3.11468">
        <ele>408</ele>
        <time>2023-09-16T09:32:09Z</time>
      </trkpt>
      <trkpt lat="44.1023" lon="3.11511">
        <ele>409</ele>
        <time>2023-09-16T09:32:15Z</time>
      </trkpt>
      <trkpt lat="44.1024" lon="3.11545">
        <ele>409</ele>
        <time>2023-09-16T09:32:20Z</time>
      </trkpt>
      <trkpt lat="44.10247" lon="3.11577">
        <ele>408</ele>
        <time>2023-09-16T09:32:24Z</time>
      </trkpt>
      <trkpt lat="44.10265" lon="3.1163">
        <ele>409</ele>
        <time>2023-09-16T09:32:32Z</time>
      </trkpt>
      <trkpt lat="44.10284" lon="3.11649">
        <ele>415</ele>
        <time>2023-09-16T09:32:36Z</time>
      </trkpt>
      <trkpt lat="44.1031" lon="3.11704">
        <ele>420</ele>
        <time>2023-09-16T09:32:44Z</time>
      </trkpt>
      <trkpt lat="44.10325" lon="3.1173">
        <ele>424</ele>
        <time>2023-09-16T09:32:48Z</time>
      </trkpt>
      <trkpt lat="44.10336" lon="3.11768">
        <ele>426</ele>
        <time>2023-09-16T09:32:54Z</time>
      </trkpt>
      <trkpt lat="44.10341" lon="3.11795">
        <ele>426</ele>
        <time>2023-09-16T09:32:57Z</time>
      </trkpt>
      <trkpt lat="44.10351" lon="3.11817">
        <ele>428</ele>
        <time>2023-09-16T09:33:01Z</time>
      </trkpt>
      <trkpt lat="44.10381" lon="3.11834">
        <ele>439</ele>
        <time>2023-09-16T09:33:06Z</time>
      </trkpt>
      <trkpt lat="44.10392" lon="3.11866">
        <ele>440</ele>
        <time>2023-09-16T09:33:11Z</time>
      </trkpt>
      <trkpt lat="44.10397" lon="3.11945">
        <ele>434</ele>
        <time>2023-09-16T09:33:21Z</time>
      </trkpt>
      <trkpt lat="44.10392" lon="3.11995">
        <ele>425</ele>
        <time>2023-09-16T09:33:27Z</time>
      </trkpt>
      <trkpt lat="44.10398" lon="3.12025">
        <ele>424</ele>
        <time>2023-09-16T09:33:31Z</time>
      </trkpt>
      <trkpt lat="44.10394" lon="3.12056">
        <ele>420</ele>
        <time>2023-09-16T09:33:35Z</time>
      </trkpt>
      <trkpt lat="44.10397" lon="3.12085">
        <ele>418</ele>
        <time>2023-09-16T09:33:39Z</time>
      </trkpt>
      <trkpt lat="44.10391" lon="3.12117">
        <ele>413</ele>
        <time>2023-09-16T09:33:43Z</time>
      </trkpt>
      <trkpt lat="44.10392" lon="3.12132">
        <ele>411</ele>
        <time>2023-09-16T09:33:45Z</time>
      </trkpt>
      <trkpt lat="44.10397" lon="3.12159">
        <ele>410</ele>
        <time>2023-09-16T09:33:49Z</time>
      </trkpt>
      <trkpt lat="44.10393" lon="3.12171">
        <ele>408</ele>
        <time>2023-09-16T09:33:51Z</time>
      </trkpt>
      <trkpt lat="44.10398" lon="3.12209">
        <ele>407</ele>
        <time>2023-09-16T09:33:55Z</time>
      </trkpt>
      <trkpt lat="44.10398" lon="3.12235">
        <ele>405</ele>
        <time>2023-09-16T09:33:59Z</time>
      </trkpt>
      <trkpt lat="44.10396" lon="3.12252">
        <ele>404</ele>
        <time>2023-09-16T09:34:01Z</time>
      </trkpt>
      <trkpt lat="44.10406" lon="3.12269">
        <ele>408</ele>
        <time>2023-09-16T09:34:04Z</time>
      </trkpt>
      <trkpt lat="44.1041" lon="3.12287">
        <ele>410</ele>
        <time>2023-09-16T09:34:06Z</time>
      </trkpt>
      <trkpt lat="44.10409" lon="3.12296">
        <ele>410</ele>
        <time>2023-09-16T09:34:07Z</time>
      </trkpt>
      <trkpt lat="44.10391" lon="3.12383">
        <ele>408</ele>
        <time>2023-09-16T09:34:19Z</time>
      </trkpt>
      <trkpt lat="44.1039" lon="3.1241">
        <ele>409</ele>
        <time>2023-09-16T09:34:22Z</time>
      </trkpt>
      <trkpt lat="44.10372" lon="3.1246">
        <ele>403</ele>
        <time>2023-09-16T09:34:30Z</time>
      </trkpt>
      <trkpt lat="44.10369" lon="3.12477">
        <ele>402</ele>
        <time>2023-09-16T09:34:32Z</time>
      </trkpt>
      <trkpt lat="44.1037" lon="3.12505">
        <ele>404</ele>
        <time>2023-09-16T09:34:35Z</time>
      </trkpt>
      <trkpt lat="44.10363" lon="3.12565">
        <ele>406</ele>
        <time>2023-09-16T09:34:43Z</time>
      </trkpt>
      <trkpt lat="44.10358" lon="3.12587">
        <ele>405</ele>
        <time>2023-09-16T09:34:46Z</time>
      </trkpt>
      <trkpt lat="44.10326" lon="3.12679">
        <ele>398</ele>
        <time>2023-09-16T09:34:59Z</time>
      </trkpt>
      <trkpt lat="44.10311" lon="3.12713">
        <ele>393</ele>
        <time>2023-09-16T09:35:04Z</time>
      </trkpt>
      <trkpt lat="44.10305" lon="3.1275">
        <ele>392</ele>
        <time>2023-09-16T09:35:09Z</time>
      </trkpt>
      <trkpt lat="44.10305" lon="3.12771">
        <ele>390</ele>
        <time>2023-09-16T09:35:12Z</time>
      </trkpt>
      <trkpt lat="44.10307" lon="3.12793">
        <ele>388</ele>
        <time>2023-09-16T09:35:15Z</time>
      </trkpt>
      <trkpt lat="44.10317" lon="3.1283">
        <ele>387</ele>
        <time>2023-09-16T09:35:20Z</time>
      </trkpt>
      <trkpt lat="44.10342" lon="3.12888">
        <ele>383</ele>
        <time>2023-09-16T09:35:28Z</time>
      </trkpt>
      <trkpt lat="44.10314" lon="3.1291">
        <ele>378</ele>
        <time>2023-09-16T09:35:34Z</time>
      </trkpt>
      <trkpt lat="44.10306" lon="3.12911">
        <ele>377</ele>
        <time>2023-09-16T09:35:35Z</time>
      </trkpt>
      <trkpt lat="44.10267" lon="3.1289">
        <ele>374</ele>
        <time>2023-09-16T09:35:43Z</time>
      </trkpt>
      <trkpt lat="44.10259" lon="3.12891">
        <ele>373</ele>
        <time>2023-09-16T09:35:44Z</time>
      </trkpt>
      <trkpt lat="44.10236" lon="3.12884">
        <ele>373</ele>
        <time>2023-09-16T09:35:49Z</time>
      </trkpt>
      <trkpt lat="44.10227" lon="3.12883">
        <ele>373</ele>
        <time>2023-09-16T09:35:50Z</time>
      </trkpt>
      <trkpt lat="44.10217" lon="3.1289">
        <ele>374</ele>
        <time>2023-09-16T09:35:52Z</time>
      </trkpt>
      <trkpt lat="44.10231" lon="3.12913">
        <ele>372</ele>
        <time>2023-09-16T09:35:56Z</time>
      </trkpt>
      <trkpt lat="44.10252" lon="3.12934">
        <ele>371</ele>
        <time>2023-09-16T09:36:01Z</time>
      </trkpt>
      <trkpt lat="44.1028" lon="3.12954">
        <ele>374</ele>
        <time>2023-09-16T09:36:06Z</time>
      </trkpt>
      <trkpt lat="44.10311" lon="3.12967">
        <ele>375</ele>
        <time>2023-09-16T09:36:12Z</time>
      </trkpt>
      <trkpt lat="44.10326" lon="3.1297">
        <ele>375</ele>
        <time>2023-09-16T09:36:15Z</time>
      </trkpt>
      <trkpt lat="44.10349" lon="3.12968">
        <ele>375</ele>
        <time>2023-09-16T09:36:19Z</time>
      </trkpt>
      <trkpt lat="44.10371" lon="3.12959">
        <ele>376</ele>
        <time>2023-09-16T09:36:23Z</time>
      </trkpt>
      <trkpt lat="44.10497" lon="3.12879">
        <ele>388</ele>
        <time>2023-09-16T09:36:47Z</time>
      </trkpt>
      <trkpt lat="44.1051" lon="3.12873">
        <ele>389</ele>
        <time>2023-09-16T09:36:50Z</time>
      </trkpt>
      <trkpt lat="44.10547" lon="3.1286">
        <ele>391</ele>
        <time>2023-09-16T09:36:57Z</time>
      </trkpt>
      <trkpt lat="44.10575" lon="3.12854">
        <ele>391</ele>
        <time>2023-09-16T09:37:02Z</time>
      </trkpt>
      <trkpt lat="44.10688" lon="3.12843">
        <ele>386</ele>
        <time>2023-09-16T09:37:22Z</time>
      </trkpt>
      <trkpt lat="44.10732" lon="3.12846">
        <ele>388</ele>
        <time>2023-09-16T09:37:30Z</time>
      </trkpt>
      <trkpt lat="44.10793" lon="3.12858">
        <ele>392</ele>
        <time>2023-09-16T09:37:41Z</time>
      </trkpt>
      <trkpt lat="44.10809" lon="3.12863">
        <ele>393</ele>
        <time>2023-09-16T09:37:44Z</time>
      </trkpt>
      <trkpt lat="44.10823" lon="3.12871">
        <ele>393</ele>
        <time>2023-09-16T09:37:46Z</time>
      </trkpt>
      <trkpt lat="44.10844" lon="3.1289">
        <ele>393</ele>
        <time>2023-09-16T09:37:51Z</time>
      </trkpt>
      <trkpt lat="44.10888" lon="3.12959">
        <ele>397</ele>
        <time>2023-09-16T09:38:03Z</time>
      </trkpt>
      <trkpt lat="44.10898" lon="3.12978">
        <ele>395</ele>
        <time>2023-09-16T09:38:06Z</time>
      </trkpt>
      <trkpt lat="44.10917" lon="3.13025">
        <ele>390</ele>
        <time>2023-09-16T09:38:12Z</time>
      </trkpt>
      <trkpt lat="44.1094" lon="3.13097">
        <ele>392</ele>
        <time>2023-09-16T09:38:22Z</time>
      </trkpt>
      <trkpt lat="44.10951" lon="3.13155">
        <ele>394</ele>
        <time>2023-09-16T09:38:30Z</time>
      </trkpt>
      <trkpt lat="44.1096" lon="3.13233">
        <ele>396</ele>
        <time>2023-09-16T09:38:40Z</time>
      </trkpt>
      <trkpt lat="44.10967" lon="3.1329">
        <ele>396</ele>
        <time>2023-09-16T09:38:48Z</time>
      </trkpt>
      <trkpt lat="44.10967" lon="3.13332">
        <ele>394</ele>
        <time>2023-09-16T09:38:53Z</time>
      </trkpt>
      <trkpt lat="44.10961" lon="3.13364">
        <ele>393</ele>
        <time>2023-09-16T09:38:57Z</time>
      </trkpt>
      <trkpt lat="44.10884" lon="3.13562">
        <ele>384</ele>
        <time>2023-09-16T09:39:26Z</time>
      </trkpt>
      <trkpt lat="44.10859" lon="3.13615">
        <ele>382</ele>
        <time>2023-09-16T09:39:34Z</time>
      </trkpt>
      <trkpt lat="44.10808" lon="3.13704">
        <ele>380</ele>
        <time>2023-09-16T09:39:49Z</time>
      </trkpt>
      <trkpt lat="44.10798" lon="3.13724">
        <ele>380</ele>
        <time>2023-09-16T09:39:52Z</time>
      </trkpt>
      <trkpt lat="44.10792" lon="3.1375">
        <ele>380</ele>
        <time>2023-09-16T09:39:55Z</time>
      </trkpt>
      <trkpt lat="44.10792" lon="3.13764">
        <ele>380</ele>
        <time>2023-09-16T09:39:57Z</time>
      </trkpt>
      <trkpt lat="44.10795" lon="3.13775">
        <ele>380</ele>
        <time>2023-09-16T09:39:59Z</time>
      </trkpt>
      <trkpt lat="44.108" lon="3.13788">
        <ele>380</ele>
        <time>2023-09-16T09:40:00Z</time>
      </trkpt>
      <trkpt lat="44.1081" lon="3.13804">
        <ele>381</ele>
        <time>2023-09-16T09:40:03Z</time>
      </trkpt>
      <trkpt lat="44.10826" lon="3.13813">
        <ele>382</ele>
        <time>2023-09-16T09:40:06Z</time>
      </trkpt>
      <trkpt lat="44.10878" lon="3.13828">
        <ele>388</ele>
        <time>2023-09-16T09:40:16Z</time>
      </trkpt>
      <trkpt lat="44.10886" lon="3.13833">
        <ele>389</ele>
        <time>2023-09-16T09:40:17Z</time>
      </trkpt>
      <trkpt lat="44.10899" lon="3.1385">
        <ele>390</ele>
        <time>2023-09-16T09:40:20Z</time>
      </trkpt>
      <trkpt lat="44.10911" lon="3.13879">
        <ele>389</ele>
        <time>2023-09-16T09:40:25Z</time>
      </trkpt>
      <trkpt lat="44.10916" lon="3.139">
        <ele>388</ele>
        <time>2023-09-16T09:40:27Z</time>
      </trkpt>
      <trkpt lat="44.10919" lon="3.1393">
        <ele>387</ele>
        <time>2023-09-16T09:40:31Z</time>
      </trkpt>
      <trkpt lat="44.10919" lon="3.13963">
        <ele>386</ele>
        <time>2023-09-16T09:40:36Z</time>
      </trkpt>
      <trkpt lat="44.10921" lon="3.13976">
        <ele>386</ele>
        <time>2023-09-16T09:40:37Z</time>
      </trkpt>
      <trkpt lat="44.10937" lon="3.14019">
        <ele>394</ele>
        <time>2023-09-16T09:40:43Z</time>
      </trkpt>
      <trkpt lat="44.10939" lon="3.14031">
        <ele>396</ele>
        <time>2023-09-16T09:40:45Z</time>
      </trkpt>
      <trkpt lat="44.10939" lon="3.14044">
        <ele>398</ele>
        <time>2023-09-16T09:40:47Z</time>
      </trkpt>
      <trkpt lat="44.10936" lon="3.14057">
        <ele>398</ele>
        <time>2023-09-16T09:40:48Z</time>
      </trkpt>
      <trkpt lat="44.10925" lon="3.14088">
        <ele>396</ele>
        <time>2023-09-16T09:40:53Z</time>
      </trkpt>
      <trkpt lat="44.10824" lon="3.14268">
        <ele>388</ele>
        <time>2023-09-16T09:41:22Z</time>
      </trkpt>
      <trkpt lat="44.10787" lon="3.14339">
        <ele>394</ele>
        <time>2023-09-16T09:41:33Z</time>
      </trkpt>
      <trkpt lat="44.10669" lon="3.14584">
        <ele>384</ele>
        <time>2023-09-16T09:42:11Z</time>
      </trkpt>
      <trkpt lat="44.10659" lon="3.14609">
        <ele>384</ele>
        <time>2023-09-16T09:42:15Z</time>
      </trkpt>
      <trkpt lat="44.10604" lon="3.14817">
        <ele>384</ele>
        <time>2023-09-16T09:42:43Z</time>
      </trkpt>
      <trkpt lat="44.10596" lon="3.14864">
        <ele>384</ele>
        <time>2023-09-16T09:42:49Z</time>
      </trkpt>
      <trkpt lat="44.10594" lon="3.14893">
        <ele>385</ele>
        <time>2023-09-16T09:42:53Z</time>
      </trkpt>
      <trkpt lat="44.10592" lon="3.14932">
        <ele>385</ele>
        <time>2023-09-16T09:42:58Z</time>
      </trkpt>
      <trkpt lat="44.10593" lon="3.14964">
        <ele>385</ele>
        <time>2023-09-16T09:43:02Z</time>
      </trkpt>
      <trkpt lat="44.10603" lon="3.15057">
        <ele>388</ele>
        <time>2023-09-16T09:43:14Z</time>
      </trkpt>
      <trkpt lat="44.10611" lon="3.151">
        <ele>390</ele>
        <time>2023-09-16T09:43:20Z</time>
      </trkpt>
      <trkpt lat="44.10626" lon="3.1515">
        <ele>391</ele>
        <time>2023-09-16T09:43:26Z</time>
      </trkpt>
      <trkpt lat="44.10712" lon="3.15377">
        <ele>391</ele>
        <time>2023-09-16T09:43:59Z</time>
      </trkpt>
      <trkpt lat="44.10734" lon="3.15429">
        <ele>391</ele>
        <time>2023-09-16T09:44:07Z</time>
      </trkpt>
      <trkpt lat="44.10816" lon="3.15585">
        <ele>395</ele>
        <time>2023-09-16T09:44:32Z</time>
      </trkpt>
      <trkpt lat="44.1082" lon="3.15596">
        <ele>394</ele>
        <time>2023-09-16T09:44:33Z</time>
      </trkpt>
      <trkpt lat="44.10827" lon="3.15621">
        <ele>393</ele>
        <time>2023-09-16T09:44:37Z</time>
      </trkpt>
      <trkpt lat="44.10833" lon="3.15665">
        <ele>390</ele>
        <time>2023-09-16T09:44:42Z</time>
      </trkpt>
      <trkpt lat="44.10836" lon="3.15725">
        <ele>390</ele>
        <time>2023-09-16T09:44:50Z</time>
      </trkpt>
      <trkpt lat="44.10836" lon="3.15782">
        <ele>390</ele>
        <time>2023-09-16T09:44:57Z</time>
      </trkpt>
      <trkpt lat="44.10831" lon="3.15817">
        <ele>389</ele>
        <time>2023-09-16T09:45:02Z</time>
      </trkpt>
      <trkpt lat="44.10827" lon="3.15832">
        <ele>389</ele>
        <time>2023-09-16T09:45:04Z</time>
      </trkpt>
      <trkpt lat="44.108" lon="3.15905">
        <ele>389</ele>
        <time>2023-09-16T09:45:14Z</time>
      </trkpt>
      <trkpt lat="44.10798" lon="3.15928">
        <ele>389</ele>
        <time>2023-09-16T09:45:17Z</time>
      </trkpt>
      <trkpt lat="44.108" lon="3.15949">
        <ele>389</ele>
        <time>2023-09-16T09:45:20Z</time>
      </trkpt>
      <trkpt lat="44.10807" lon="3.15976">
        <ele>389</ele>
        <time>2023-09-16T09:45:24Z</time>
      </trkpt>
      <trkpt lat="44.10836" lon="3.16051">
        <ele>385</ele>
        <time>2023-09-16T09:45:35Z</time>
      </trkpt>
      <trkpt lat="44.10878" lon="3.16133">
        <ele>389</ele>
        <time>2023-09-16T09:45:48Z</time>
      </trkpt>
      <trkpt lat="44.10898" lon="3.16164">
        <ele>388</ele>
        <time>2023-09-16T09:45:53Z</time>
      </trkpt>
      <trkpt lat="44.10947" lon="3.16222">
        <ele>390</ele>
        <time>2023-09-16T09:46:04Z</time>
      </trkpt>
      <trkpt lat="44.10972" lon="3.16262">
        <ele>391</ele>
        <time>2023-09-16T09:46:11Z</time>
      </trkpt>
      <trkpt lat="44.11" lon="3.16319">
        <ele>386</ele>
        <time>2023-09-16T09:46:20Z</time>
      </trkpt>
      <trkpt lat="44.11018" lon="3.16361">
        <ele>389</ele>
        <time>2023-09-16T09:46:26Z</time>
      </trkpt>
      <trkpt lat="44.11042" lon="3.16422">
        <ele>390</ele>
        <time>2023-09-16T09:46:35Z</time>
      </trkpt>
      <trkpt lat="44.11082" lon="3.16502">
        <ele>386</ele>
        <time>2023-09-16T09:46:48Z</time>
      </trkpt>
      <trkpt lat="44.11101" lon="3.16532">
        <ele>389</ele>
        <time>2023-09-16T09:46:53Z</time>
      </trkpt>
      <trkpt lat="44.11131" lon="3.16567">
        <ele>391</ele>
        <time>2023-09-16T09:47:00Z</time>
      </trkpt>
      <trkpt lat="44.11173" lon="3.16633">
        <ele>388</ele>
        <time>2023-09-16T09:47:11Z</time>
      </trkpt>
      <trkpt lat="44.11185" lon="3.16646">
        <ele>388</ele>
        <time>2023-09-16T09:47:14Z</time>
      </trkpt>
      <trkpt lat="44.11197" lon="3.16657">
        <ele>389</ele>
        <time>2023-09-16T09:47:16Z</time>
      </trkpt>
      <trkpt lat="44.11261" lon="3.16699">
        <ele>393</ele>
        <time>2023-09-16T09:47:29Z</time>
      </trkpt>
      <trkpt lat="44.11282" lon="3.16709">
        <ele>392</ele>
        <time>2023-09-16T09:47:33Z</time>
      </trkpt>
      <trkpt lat="44.11309" lon="3.16715">
        <ele>391</ele>
        <time>2023-09-16T09:47:38Z</time>
      </trkpt>
      <trkpt lat="44.11326" lon="3.16722">
        <ele>391</ele>
        <time>2023-09-16T09:47:41Z</time>
      </trkpt>
      <trkpt lat="44.11341" lon="3.16736">
        <ele>391</ele>
        <time>2023-09-16T09:47:44Z</time>
      </trkpt>
      <trkpt lat="44.11357" lon="3.16758">
        <ele>395</ele>
        <time>2023-09-16T09:47:48Z</time>
      </trkpt>
      <trkpt lat="44.11377" lon="3.16792">
        <ele>399</ele>
        <time>2023-09-16T09:47:53Z</time>
      </trkpt>
      <trkpt lat="44.11392" lon="3.1683">
        <ele>399</ele>
        <time>2023-09-16T09:47:59Z</time>
      </trkpt>
      <trkpt lat="44.1143" lon="3.16967">
        <ele>399</ele>
        <time>2023-09-16T09:48:18Z</time>
      </trkpt>
      <trkpt lat="44.11438" lon="3.17001">
        <ele>400</ele>
        <time>2023-09-16T09:48:22Z</time>
      </trkpt>
      <trkpt lat="44.11445" lon="3.17143">
        <ele>407</ele>
        <time>2023-09-16T09:48:41Z</time>
      </trkpt>
      <trkpt lat="44.11444" lon="3.17237">
        <ele>412</ele>
        <time>2023-09-16T09:48:53Z</time>
      </trkpt>
      <trkpt lat="44.11445" lon="3.17256">
        <ele>413</ele>
        <time>2023-09-16T09:48:55Z</time>
      </trkpt>
      <trkpt lat="44.11452" lon="3.17307">
        <ele>417</ele>
        <time>2023-09-16T09:49:02Z</time>
      </trkpt>
      <trkpt lat="44.11471" lon="3.17413">
        <ele>416</ele>
        <time>2023-09-16T09:49:16Z</time>
      </trkpt>
      <trkpt lat="44.11485" lon="3.1747">
        <ele>409</ele>
        <time>2023-09-16T09:49:23Z</time>
      </trkpt>
      <trkpt lat="44.11556" lon="3.1764">
        <ele>406</ele>
        <time>2023-09-16T09:49:48Z</time>
      </trkpt>
      <trkpt lat="44.11647" lon="3.17824">
        <ele>401</ele>
        <time>2023-09-16T09:50:17Z</time>
      </trkpt>
      <trkpt lat="44.11665" lon="3.17848">
        <ele>398</ele>
        <time>2023-09-16T09:50:21Z</time>
      </trkpt>
      <trkpt lat="44.11716" lon="3.17893">
        <ele>404</ele>
        <time>2023-09-16T09:50:32Z</time>
      </trkpt>
      <trkpt lat="44.11741" lon="3.17925">
        <ele>400</ele>
        <time>2023-09-16T09:50:38Z</time>
      </trkpt>
      <trkpt lat="44.11752" lon="3.17944">
        <ele>399</ele>
        <time>2023-09-16T09:50:41Z</time>
      </trkpt>
      <trkpt lat="44.11776" lon="3.17995">
        <ele>403</ele>
        <time>2023-09-16T09:50:49Z</time>
      </trkpt>
      <trkpt lat="44.11809" lon="3.18083">
        <ele>402</ele>
        <time>2023-09-16T09:51:02Z</time>
      </trkpt>
      <trkpt lat="44.11819" lon="3.18106">
        <ele>401</ele>
        <time>2023-09-16T09:51:05Z</time>
      </trkpt>
      <trkpt lat="44.11846" lon="3.1815">
        <ele>398</ele>
        <time>2023-09-16T09:51:13Z</time>
      </trkpt>
      <trkpt lat="44.11878" lon="3.18195">
        <ele>403</ele>
        <time>2023-09-16T09:51:21Z</time>
      </trkpt>
      <trkpt lat="44.1193" lon="3.18281">
        <ele>407</ele>
        <time>2023-09-16T09:51:35Z</time>
      </trkpt>
      <trkpt lat="44.12005" lon="3.18445">
        <ele>407</ele>
        <time>2023-09-16T09:52:00Z</time>
      </trkpt>
      <trkpt lat="44.12009" lon="3.18464">
        <ele>408</ele>
        <time>2023-09-16T09:52:02Z</time>
      </trkpt>
      <trkpt lat="44.12012" lon="3.18497">
        <ele>409</ele>
        <time>2023-09-16T09:52:07Z</time>
      </trkpt>
      <trkpt lat="44.12019" lon="3.1854">
        <ele>410</ele>
        <time>2023-09-16T09:52:12Z</time>
      </trkpt>
      <trkpt lat="44.12039" lon="3.18621">
        <ele>413</ele>
        <time>2023-09-16T09:52:23Z</time>
      </trkpt>
      <trkpt lat="44.12053" lon="3.1866">
        <ele>412</ele>
        <time>2023-09-16T09:52:29Z</time>
      </trkpt>
      <trkpt lat="44.12105" lon="3.18767">
        <ele>409</ele>
        <time>2023-09-16T09:52:45Z</time>
      </trkpt>
      <trkpt lat="44.12119" lon="3.18807">
        <ele>411</ele>
        <time>2023-09-16T09:52:51Z</time>
      </trkpt>
      <trkpt lat="44.12126" lon="3.18832">
        <ele>410</ele>
        <time>2023-09-16T09:52:54Z</time>
      </trkpt>
      <trkpt lat="44.12131" lon="3.18856">
        <ele>410</ele>
        <time>2023-09-16T09:52:58Z</time>
      </trkpt>
      <trkpt lat="44.12138" lon="3.18917">
        <ele>407</ele>
        <time>2023-09-16T09:53:05Z</time>
      </trkpt>
      <trkpt lat="44.12137" lon="3.18949">
        <ele>407</ele>
        <time>2023-09-16T09:53:10Z</time>
      </trkpt>
      <trkpt lat="44.12134" lon="3.18967">
        <ele>407</ele>
        <time>2023-09-16T09:53:12Z</time>
      </trkpt>
      <trkpt lat="44.12124" lon="3.19007">
        <ele>406</ele>
        <time>2023-09-16T09:53:17Z</time>
      </trkpt>
      <trkpt lat="44.12088" lon="3.19114">
        <ele>398</ele>
        <time>2023-09-16T09:53:32Z</time>
      </trkpt>
      <trkpt lat="44.12085" lon="3.19128">
        <ele>398</ele>
        <time>2023-09-16T09:53:34Z</time>
      </trkpt>
      <trkpt lat="44.12083" lon="3.1916">
        <ele>398</ele>
        <time>2023-09-16T09:53:38Z</time>
      </trkpt>
      <trkpt lat="44.12088" lon="3.19189">
        <ele>399</ele>
        <time>2023-09-16T09:53:42Z</time>
      </trkpt>
      <trkpt lat="44.12094" lon="3.19207">
        <ele>399</ele>
        <time>2023-09-16T09:53:45Z</time>
      </trkpt>
      <trkpt lat="44.12102" lon="3.19224">
        <ele>401</ele>
        <time>2023-09-16T09:53:47Z</time>
      </trkpt>
      <trkpt lat="44.1214" lon="3.19281">
        <ele>408</ele>
        <time>2023-09-16T09:53:57Z</time>
      </trkpt>
      <trkpt lat="44.12173" lon="3.19338">
        <ele>409</ele>
        <time>2023-09-16T09:54:07Z</time>
      </trkpt>
      <trkpt lat="44.12222" lon="3.19433">
        <ele>412</ele>
        <time>2023-09-16T09:54:22Z</time>
      </trkpt>
      <trkpt lat="44.12234" lon="3.19464">
        <ele>411</ele>
        <time>2023-09-16T09:54:26Z</time>
      </trkpt>
      <trkpt lat="44.12264" lon="3.19559">
        <ele>411</ele>
        <time>2023-09-16T09:54:39Z</time>
      </trkpt>
      <trkpt lat="44.12269" lon="3.1958">
        <ele>412</ele>
        <time>2023-09-16T09:54:42Z</time>
      </trkpt>
      <trkpt lat="44.12273" lon="3.19608">
        <ele>413</ele>
        <time>2023-09-16T09:54:46Z</time>
      </trkpt>
      <trkpt lat="44.1228" lon="3.19702">
        <ele>414</ele>
        <time>2023-09-16T09:54:58Z</time>
      </trkpt>
      <trkpt lat="44.12278" lon="3.19738">
        <ele>415</ele>
        <time>2023-09-16T09:55:02Z</time>
      </trkpt>
      <trkpt lat="44.12262" lon="3.19827">
        <ele>406</ele>
        <time>2023-09-16T09:55:14Z</time>
      </trkpt>
      <trkpt lat="44.12258" lon="3.19865">
        <ele>403</ele>
        <time>2023-09-16T09:55:19Z</time>
      </trkpt>
      <trkpt lat="44.1224" lon="3.20065">
        <ele>413</ele>
        <time>2023-09-16T09:55:45Z</time>
      </trkpt>
      <trkpt lat="44.12237" lon="3.20238">
        <ele>415</ele>
        <time>2023-09-16T09:56:07Z</time>
      </trkpt>
      <trkpt lat="44.12233" lon="3.20275">
        <ele>415</ele>
        <time>2023-09-16T09:56:12Z</time>
      </trkpt>
      <trkpt lat="44.1223" lon="3.20294">
        <ele>415</ele>
        <time>2023-09-16T09:56:14Z</time>
      </trkpt>
      <trkpt lat="44.12211" lon="3.20352">
        <ele>413</ele>
        <time>2023-09-16T09:56:22Z</time>
      </trkpt>
      <trkpt lat="44.12147" lon="3.2054">
        <ele>414</ele>
        <time>2023-09-16T09:56:49Z</time>
      </trkpt>
      <trkpt lat="44.12141" lon="3.20564">
        <ele>417</ele>
        <time>2023-09-16T09:56:52Z</time>
      </trkpt>
      <trkpt lat="44.12137" lon="3.20593">
        <ele>417</ele>
        <time>2023-09-16T09:56:56Z</time>
      </trkpt>
      <trkpt lat="44.1214" lon="3.2064">
        <ele>414</ele>
        <time>2023-09-16T09:57:02Z</time>
      </trkpt>
      <trkpt lat="44.12145" lon="3.20677">
        <ele>412</ele>
        <time>2023-09-16T09:57:07Z</time>
      </trkpt>
      <trkpt lat="44.12149" lon="3.20699">
        <ele>410</ele>
        <time>2023-09-16T09:57:10Z</time>
      </trkpt>
      <trkpt lat="44.12175" lon="3.20794">
        <ele>408</ele>
        <time>2023-09-16T09:57:23Z</time>
      </trkpt>
      <trkpt lat="44.12194" lon="3.20891">
        <ele>412</ele>
        <time>2023-09-16T09:57:36Z</time>
      </trkpt>
      <trkpt lat="44.12197" lon="3.20915">
        <ele>411</ele>
        <time>2023-09-16T09:57:39Z</time>
      </trkpt>
      <trkpt lat="44.12204" lon="3.2102">
        <ele>408</ele>
        <time>2023-09-16T09:57:52Z</time>
      </trkpt>
      <trkpt lat="44.12206" lon="3.21064">
        <ele>408</ele>
        <time>2023-09-16T09:57:58Z</time>
      </trkpt>
      <trkpt lat="44.12205" lon="3.21082">
        <ele>408</ele>
        <time>2023-09-16T09:58:00Z</time>
      </trkpt>
      <trkpt lat="44.12198" lon="3.21116">
        <ele>410</ele>
        <time>2023-09-16T09:58:05Z</time>
      </trkpt>
      <trkpt lat="44.12187" lon="3.21144">
        <ele>410</ele>
        <time>2023-09-16T09:58:09Z</time>
      </trkpt>
      <trkpt lat="44.1217" lon="3.21173">
        <ele>406</ele>
        <time>2023-09-16T09:58:13Z</time>
      </trkpt>
      <trkpt lat="44.12162" lon="3.21184">
        <ele>408</ele>
        <time>2023-09-16T09:58:15Z</time>
      </trkpt>
      <trkpt lat="44.12151" lon="3.21193">
        <ele>410</ele>
        <time>2023-09-16T09:58:18Z</time>
      </trkpt>
      <trkpt lat="44.1205" lon="3.2126">
        <ele>405</ele>
        <time>2023-09-16T09:58:38Z</time>
      </trkpt>
      <trkpt lat="44.12014" lon="3.21291">
        <ele>406</ele>
        <time>2023-09-16T09:58:45Z</time>
      </trkpt>
      <trkpt lat="44.12002" lon="3.21304">
        <ele>405</ele>
        <time>2023-09-16T09:58:48Z</time>
      </trkpt>
      <trkpt lat="44.11991" lon="3.21321">
        <ele>408</ele>
        <time>2023-09-16T09:58:51Z</time>
      </trkpt>
      <trkpt lat="44.11985" lon="3.21336">
        <ele>409</ele>
        <time>2023-09-16T09:58:53Z</time>
      </trkpt>
      <trkpt lat="44.11979" lon="3.21369">
        <ele>412</ele>
        <time>2023-09-16T09:58:57Z</time>
      </trkpt>
      <trkpt lat="44.11979" lon="3.214">
        <ele>414</ele>
        <time>2023-09-16T09:59:01Z</time>
      </trkpt>
      <trkpt lat="44.11983" lon="3.21429">
        <ele>413</ele>
        <time>2023-09-16T09:59:05Z</time>
      </trkpt>
      <trkpt lat="44.11987" lon="3.21441">
        <ele>412</ele>
        <time>2023-09-16T09:59:07Z</time>
      </trkpt>
      <trkpt lat="44.11999" lon="3.21469">
        <ele>407</ele>
        <time>2023-09-16T09:59:11Z</time>
      </trkpt>
      <trkpt lat="44.12032" lon="3.21527">
        <ele>415</ele>
        <time>2023-09-16T09:59:20Z</time>
      </trkpt>
      <trkpt lat="44.12063" lon="3.21576">
        <ele>414</ele>
        <time>2023-09-16T09:59:29Z</time>
      </trkpt>
      <trkpt lat="44.12096" lon="3.21622">
        <ele>412</ele>
        <time>2023-09-16T09:59:37Z</time>
      </trkpt>
      <trkpt lat="44.12181" lon="3.21724">
        <ele>415</ele>
        <time>2023-09-16T09:59:57Z</time>
      </trkpt>
      <trkpt lat="44.12198" lon="3.2175">
        <ele>415</ele>
        <time>2023-09-16T10:00:01Z</time>
      </trkpt>
      <trkpt lat="44.12213" lon="3.21779">
        <ele>418</ele>
        <time>2023-09-16T10:00:06Z</time>
      </trkpt>
      <trkpt lat="44.12249" lon="3.21875">
        <ele>408</ele>
        <time>2023-09-16T10:00:20Z</time>
      </trkpt>
      <trkpt lat="44.12261" lon="3.219">
        <ele>409</ele>
        <time>2023-09-16T10:00:24Z</time>
      </trkpt>
      <trkpt lat="44.12284" lon="3.21942">
        <ele>413</ele>
        <time>2023-09-16T10:00:30Z</time>
      </trkpt>
      <trkpt lat="44.12289" lon="3.21955">
        <ele>414</ele>
        <time>2023-09-16T10:00:32Z</time>
      </trkpt>
      <trkpt lat="44.12312" lon="3.22088">
        <ele>410</ele>
        <time>2023-09-16T10:00:50Z</time>
      </trkpt>
      <trkpt lat="44.12306" lon="3.22102">
        <ele>410</ele>
        <time>2023-09-16T10:00:52Z</time>
      </trkpt>
      <trkpt lat="44.12303" lon="3.22119">
        <ele>409</ele>
        <time>2023-09-16T10:00:54Z</time>
      </trkpt>
      <trkpt lat="44.12301" lon="3.22155">
        <ele>409</ele>
        <time>2023-09-16T10:00:59Z</time>
      </trkpt>
      <trkpt lat="44.12305" lon="3.22184">
        <ele>409</ele>
        <time>2023-09-16T10:01:02Z</time>
      </trkpt>
      <trkpt lat="44.12312" lon="3.22203">
        <ele>408</ele>
        <time>2023-09-16T10:01:05Z</time>
      </trkpt>
      <trkpt lat="44.12328" lon="3.22225">
        <ele>404</ele>
        <time>2023-09-16T10:01:09Z</time>
      </trkpt>
      <trkpt lat="44.12373" lon="3.2228">
        <ele>405</ele>
        <time>2023-09-16T10:01:20Z</time>
      </trkpt>
      <trkpt lat="44.1239" lon="3.22291">
        <ele>406</ele>
        <time>2023-09-16T10:01:23Z</time>
      </trkpt>
      <trkpt lat="44.12395" lon="3.2229">
        <ele>406</ele>
        <time>2023-09-16T10:01:24Z</time>
      </trkpt>
      <trkpt lat="44.12406" lon="3.22282">
        <ele>406</ele>
        <time>2023-09-16T10:01:26Z</time>
      </trkpt>
      <trkpt lat="44.12419" lon="3.2228">
        <ele>407</ele>
        <time>2023-09-16T10:01:29Z</time>
      </trkpt>
      <trkpt lat="44.12425" lon="3.2228">
        <ele>407</ele>
        <time>2023-09-16T10:01:30Z</time>
      </trkpt>
      <trkpt lat="44.1243" lon="3.22284">
        <ele>408</ele>
        <time>2023-09-16T10:01:31Z</time>
      </trkpt>
      <trkpt lat="44.12439" lon="3.22286">
        <ele>408</ele>
        <time>2023-09-16T10:01:32Z</time>
      </trkpt>
      <trkpt lat="44.12446" lon="3.22307">
        <ele>408</ele>
        <time>2023-09-16T10:01:35Z</time>
      </trkpt>
      <trkpt lat="44.12452" lon="3.22318">
        <ele>409</ele>
        <time>2023-09-16T10:01:37Z</time>
      </trkpt>
      <trkpt lat="44.12481" lon="3.22358">
        <ele>411</ele>
        <time>2023-09-16T10:01:44Z</time>
      </trkpt>
      <trkpt lat="44.12491" lon="3.22376">
        <ele>411</ele>
        <time>2023-09-16T10:01:47Z</time>
      </trkpt>
      <trkpt lat="44.12505" lon="3.22408">
        <ele>412</ele>
        <time>2023-09-16T10:01:52Z</time>
      </trkpt>
      <trkpt lat="44.12509" lon="3.22434">
        <ele>413</ele>
        <time>2023-09-16T10:01:55Z</time>
      </trkpt>
      <trkpt lat="44.1252" lon="3.22645">
        <ele>413</ele>
        <time>2023-09-16T10:02:22Z</time>
      </trkpt>
      <trkpt lat="44.12519" lon="3.2267">
        <ele>413</ele>
        <time>2023-09-16T10:02:26Z</time>
      </trkpt>
      <trkpt lat="44.12517" lon="3.2269">
        <ele>413</ele>
        <time>2023-09-16T10:02:28Z</time>
      </trkpt>
      <trkpt lat="44.125" lon="3.2275">
        <ele>411</ele>
        <time>2023-09-16T10:02:36Z</time>
      </trkpt>
      <trkpt lat="44.12483" lon="3.22804">
        <ele>420</ele>
        <time>2023-09-16T10:02:44Z</time>
      </trkpt>
      <trkpt lat="44.12471" lon="3.22828">
        <ele>421</ele>
        <time>2023-09-16T10:02:48Z</time>
      </trkpt>
      <trkpt lat="44.12377" lon="3.22931">
        <ele>419</ele>
        <time>2023-09-16T10:03:09Z</time>
      </trkpt>
      <trkpt lat="44.12355" lon="3.22949">
        <ele>420</ele>
        <time>2023-09-16T10:03:14Z</time>
      </trkpt>
      <trkpt lat="44.12277" lon="3.23001">
        <ele>417</ele>
        <time>2023-09-16T10:03:29Z</time>
      </trkpt>
      <trkpt lat="44.12158" lon="3.23066">
        <ele>415</ele>
        <time>2023-09-16T10:03:52Z</time>
      </trkpt>
      <trkpt lat="44.12108" lon="3.23101">
        <ele>416</ele>
        <time>2023-09-16T10:04:02Z</time>
      </trkpt>
      <trkpt lat="44.12091" lon="3.23118">
        <ele>416</ele>
        <time>2023-09-16T10:04:05Z</time>
      </trkpt>
      <trkpt lat="44.12018" lon="3.23204">
        <ele>415</ele>
        <time>2023-09-16T10:04:22Z</time>
      </trkpt>
      <trkpt lat="44.12004" lon="3.23232">
        <ele>412</ele>
        <time>2023-09-16T10:04:27Z</time>
      </trkpt>
      <trkpt lat="44.11992" lon="3.23267">
        <ele>413</ele>
        <time>2023-09-16T10:04:32Z</time>
      </trkpt>
      <trkpt lat="44.11981" lon="3.23309">
        <ele>417</ele>
        <time>2023-09-16T10:04:37Z</time>
      </trkpt>
      <trkpt lat="44.11977" lon="3.2333">
        <ele>418</ele>
        <time>2023-09-16T10:04:40Z</time>
      </trkpt>
      <trkpt lat="44.11969" lon="3.23399">
        <ele>420</ele>
        <time>2023-09-16T10:04:49Z</time>
      </trkpt>
      <trkpt lat="44.11955" lon="3.23489">
        <ele>423</ele>
        <time>2023-09-16T10:05:01Z</time>
      </trkpt>
      <trkpt lat="44.11941" lon="3.2356">
        <ele>424</ele>
        <time>2023-09-16T10:05:10Z</time>
      </trkpt>
      <trkpt lat="44.11936" lon="3.23578">
        <ele>422</ele>
        <time>2023-09-16T10:05:13Z</time>
      </trkpt>
      <trkpt lat="44.11916" lon="3.23626">
        <ele>418</ele>
        <time>2023-09-16T10:05:20Z</time>
      </trkpt>
      <trkpt lat="44.11899" lon="3.23683">
        <ele>424</ele>
        <time>2023-09-16T10:05:28Z</time>
      </trkpt>
      <trkpt lat="44.11887" lon="3.23709">
        <ele>426</ele>
        <time>2023-09-16T10:05:32Z</time>
      </trkpt>
      <trkpt lat="44.11871" lon="3.23737">
        <ele>423</ele>
        <time>2023-09-16T10:05:36Z</time>
      </trkpt>
      <trkpt lat="44.11814" lon="3.23822">
        <ele>419</ele>
        <time>2023-09-16T10:05:51Z</time>
      </trkpt>
      <trkpt lat="44.11801" lon="3.23847">
        <ele>421</ele>
        <time>2023-09-16T10:05:55Z</time>
      </trkpt>
      <trkpt lat="44.11791" lon="3.23877">
        <ele>422</ele>
        <time>2023-09-16T10:05:59Z</time>
      </trkpt>
      <trkpt lat="44.11789" lon="3.23903">
        <ele>424</ele>
        <time>2023-09-16T10:06:03Z</time>
      </trkpt>
      <trkpt lat="44.11793" lon="3.23927">
        <ele>424</ele>
        <time>2023-09-16T10:06:06Z</time>
      </trkpt>
      <trkpt lat="44.11798" lon="3.23943">
        <ele>424</ele>
        <time>2023-09-16T10:06:08Z</time>
      </trkpt>
      <trkpt lat="44.11821" lon="3.23995">
        <ele>423</ele>
        <time>2023-09-16T10:06:16Z</time>
      </trkpt>
      <trkpt lat="44.11839" lon="3.2403">
        <ele>422</ele>
        <time>2023-09-16T10:06:21Z</time>
      </trkpt>
      <trkpt lat="44.11877" lon="3.24083">
        <ele>426</ele>
        <time>2023-09-16T10:06:31Z</time>
      </trkpt>
      <trkpt lat="44.11949" lon="3.24188">
        <ele>428</ele>
        <time>2023-09-16T10:06:49Z</time>
      </trkpt>
      <trkpt lat="44.11957" lon="3.24203">
        <ele>430</ele>
        <time>2023-09-16T10:06:52Z</time>
      </trkpt>
      <trkpt lat="44.11965" lon="3.24223">
        <ele>430</ele>
        <time>2023-09-16T10:06:55Z</time>
      </trkpt>
      <trkpt lat="44.11979" lon="3.2427">
        <ele>428</ele>
        <time>2023-09-16T10:07:01Z</time>
      </trkpt>
      <trkpt lat="44.1199" lon="3.24333">
        <ele>417</ele>
        <time>2023-09-16T10:07:09Z</time>
      </trkpt>
      <trkpt lat="44.11994" lon="3.24361">
        <ele>420</ele>
        <time>2023-09-16T10:07:13Z</time>
      </trkpt>
      <trkpt lat="44.11997" lon="3.24388">
        <ele>422</ele>
        <time>2023-09-16T10:07:17Z</time>
      </trkpt>
      <trkpt lat="44.11997" lon="3.24414">
        <ele>425</ele>
        <time>2023-09-16T10:07:20Z</time>
      </trkpt>
      <trkpt lat="44.11991" lon="3.24447">
        <ele>428</ele>
        <time>2023-09-16T10:07:24Z</time>
      </trkpt>
      <trkpt lat="44.11964" lon="3.24541">
        <ele>430</ele>
        <time>2023-09-16T10:07:37Z</time>
      </trkpt>
      <trkpt lat="44.1196" lon="3.24551">
        <ele>430</ele>
        <time>2023-09-16T10:07:39Z</time>
      </trkpt>
      <trkpt lat="44.11951" lon="3.24566">
        <ele>428</ele>
        <time>2023-09-16T10:07:41Z</time>
      </trkpt>
      <trkpt lat="44.11945" lon="3.24573">
        <ele>427</ele>
        <time>2023-09-16T10:07:43Z</time>
      </trkpt>
      <trkpt lat="44.11936" lon="3.2458">
        <ele>424</ele>
        <time>2023-09-16T10:07:44Z</time>
      </trkpt>
      <trkpt lat="44.11914" lon="3.24592">
        <ele>421</ele>
        <time>2023-09-16T10:07:49Z</time>
      </trkpt>
      <trkpt lat="44.11858" lon="3.24611">
        <ele>424</ele>
        <time>2023-09-16T10:07:59Z</time>
      </trkpt>
      <trkpt lat="44.11787" lon="3.24621">
        <ele>424</ele>
        <time>2023-09-16T10:08:12Z</time>
      </trkpt>
      <trkpt lat="44.11758" lon="3.24632">
        <ele>424</ele>
        <time>2023-09-16T10:08:17Z</time>
      </trkpt>
      <trkpt lat="44.11739" lon="3.24644">
        <ele>424</ele>
        <time>2023-09-16T10:08:21Z</time>
      </trkpt>
      <trkpt lat="44.11716" lon="3.2466">
        <ele>422</ele>
        <time>2023-09-16T10:08:25Z</time>
      </trkpt>
      <trkpt lat="44.11665" lon="3.24706">
        <ele>422</ele>
        <time>2023-09-16T10:08:36Z</time>
      </trkpt>
      <trkpt lat="44.1164" lon="3.24736">
        <ele>426</ele>
        <time>2023-09-16T10:08:42Z</time>
      </trkpt>
      <trkpt lat="44.11543" lon="3.24858">
        <ele>436</ele>
        <time>2023-09-16T10:09:05Z</time>
      </trkpt>
      <trkpt lat="44.11498" lon="3.2493">
        <ele>440</ele>
        <time>2023-09-16T10:09:17Z</time>
      </trkpt>
      <trkpt lat="44.11483" lon="3.24948">
        <ele>446</ele>
        <time>2023-09-16T10:09:21Z</time>
      </trkpt>
      <trkpt lat="44.11474" lon="3.24954">
        <ele>447</ele>
        <time>2023-09-16T10:09:23Z</time>
      </trkpt>
      <trkpt lat="44.11456" lon="3.24959">
        <ele>444</ele>
        <time>2023-09-16T10:09:26Z</time>
      </trkpt>
      <trkpt lat="44.11391" lon="3.24963">
        <ele>434</ele>
        <time>2023-09-16T10:09:37Z</time>
      </trkpt>
      <trkpt lat="44.11262" lon="3.24966">
        <ele>425</ele>
        <time>2023-09-16T10:10:00Z</time>
      </trkpt>
      <trkpt lat="44.11237" lon="3.24969">
        <ele>424</ele>
        <time>2023-09-16T10:10:05Z</time>
      </trkpt>
      <trkpt lat="44.11211" lon="3.24979">
        <ele>424</ele>
        <time>2023-09-16T10:10:10Z</time>
      </trkpt>
      <trkpt lat="44.11198" lon="3.24992">
        <ele>423</ele>
        <time>2023-09-16T10:10:13Z</time>
      </trkpt>
      <trkpt lat="44.11192" lon="3.25002">
        <ele>423</ele>
        <time>2023-09-16T10:10:14Z</time>
      </trkpt>
      <trkpt lat="44.11185" lon="3.2502">
        <ele>424</ele>
        <time>2023-09-16T10:10:17Z</time>
      </trkpt>
      <trkpt lat="44.1118" lon="3.25071">
        <ele>426</ele>
        <time>2023-09-16T10:10:23Z</time>
      </trkpt>
      <trkpt lat="44.11172" lon="3.25085">
        <ele>424</ele>
        <time>2023-09-16T10:10:26Z</time>
      </trkpt>
      <trkpt lat="44.11138" lon="3.25126">
        <ele>437</ele>
        <time>2023-09-16T10:10:34Z</time>
      </trkpt>
      <trkpt lat="44.11136" lon="3.25136">
        <ele>438</ele>
        <time>2023-09-16T10:10:35Z</time>
      </trkpt>
      <trkpt lat="44.11139" lon="3.25153">
        <ele>437</ele>
        <time>2023-09-16T10:10:37Z</time>
      </trkpt>
      <trkpt lat="44.11144" lon="3.25166">
        <ele>436</ele>
        <time>2023-09-16T10:10:39Z</time>
      </trkpt>
      <trkpt lat="44.1116" lon="3.25192">
        <ele>431</ele>
        <time>2023-09-16T10:10:43Z</time>
      </trkpt>
      <trkpt lat="44.11187" lon="3.25227">
        <ele>432</ele>
        <time>2023-09-16T10:10:50Z</time>
      </trkpt>
      <trkpt lat="44.11197" lon="3.25249">
        <ele>433</ele>
        <time>2023-09-16T10:10:53Z</time>
      </trkpt>
      <trkpt lat="44.11201" lon="3.2527">
        <ele>434</ele>
        <time>2023-09-16T10:10:56Z</time>
      </trkpt>
      <trkpt lat="44.11201" lon="3.25282">
        <ele>434</ele>
        <time>2023-09-16T10:10:58Z</time>
      </trkpt>
      <trkpt lat="44.11197" lon="3.25332">
        <ele>435</ele>
        <time>2023-09-16T10:11:04Z</time>
      </trkpt>
      <trkpt lat="44.1119" lon="3.25369">
        <ele>432</ele>
        <time>2023-09-16T10:11:09Z</time>
      </trkpt>
      <trkpt lat="44.11177" lon="3.25404">
        <ele>427</ele>
        <time>2023-09-16T10:11:14Z</time>
      </trkpt>
      <trkpt lat="44.11167" lon="3.25424">
        <ele>424</ele>
        <time>2023-09-16T10:11:17Z</time>
      </trkpt>
      <trkpt lat="44.11131" lon="3.25482">
        <ele>437</ele>
        <time>2023-09-16T10:11:27Z</time>
      </trkpt>
      <trkpt lat="44.1112" lon="3.25505">
        <ele>438</ele>
        <time>2023-09-16T10:11:30Z</time>
      </trkpt>
      <trkpt lat="44.11114" lon="3.25531">
        <ele>437</ele>
        <time>2023-09-16T10:11:34Z</time>
      </trkpt>
      <trkpt lat="44.1111" lon="3.25597">
        <ele>431</ele>
        <time>2023-09-16T10:11:42Z</time>
      </trkpt>
      <trkpt lat="44.11101" lon="3.25659">
        <ele>427</ele>
        <time>2023-09-16T10:11:51Z</time>
      </trkpt>
      <trkpt lat="44.11094" lon="3.25692">
        <ele>424</ele>
        <time>2023-09-16T10:11:55Z</time>
      </trkpt>
      <trkpt lat="44.11083" lon="3.25717">
        <ele>421</ele>
        <time>2023-09-16T10:11:59Z</time>
      </trkpt>
      <trkpt lat="44.11067" lon="3.25741">
        <ele>423</ele>
        <time>2023-09-16T10:12:03Z</time>
      </trkpt>
      <trkpt lat="44.11047" lon="3.25757">
        <ele>426</ele>
        <time>2023-09-16T10:12:07Z</time>
      </trkpt>
      <trkpt lat="44.10973" lon="3.25793">
        <ele>432</ele>
        <time>2023-09-16T10:12:21Z</time>
      </trkpt>
      <trkpt lat="44.10905" lon="3.25817">
        <ele>435</ele>
        <time>2023-09-16T10:12:33Z</time>
      </trkpt>
      <trkpt lat="44.10826" lon="3.25857">
        <ele>438</ele>
        <time>2023-09-16T10:12:48Z</time>
      </trkpt>
      <trkpt lat="44.10801" lon="3.25876">
        <ele>442</ele>
        <time>2023-09-16T10:12:53Z</time>
      </trkpt>
      <trkpt lat="44.10775" lon="3.25905">
        <ele>440</ele>
        <time>2023-09-16T10:12:59Z</time>
      </trkpt>
      <trkpt lat="44.10759" lon="3.25926">
        <ele>439</ele>
        <time>2023-09-16T10:13:03Z</time>
      </trkpt>
      <trkpt lat="44.10742" lon="3.25954">
        <ele>437</ele>
        <time>2023-09-16T10:13:08Z</time>
      </trkpt>
      <trkpt lat="44.10718" lon="3.26008">
        <ele>433</ele>
        <time>2023-09-16T10:13:16Z</time>
      </trkpt>
      <trkpt lat="44.10685" lon="3.26062">
        <ele>433</ele>
        <time>2023-09-16T10:13:25Z</time>
      </trkpt>
      <trkpt lat="44.1067" lon="3.26095">
        <ele>428</ele>
        <time>2023-09-16T10:13:30Z</time>
      </trkpt>
      <trkpt lat="44.10658" lon="3.26126">
        <ele>426</ele>
        <time>2023-09-16T10:13:35Z</time>
      </trkpt>
      <trkpt lat="44.10626" lon="3.26181">
        <ele>427</ele>
        <time>2023-09-16T10:13:44Z</time>
      </trkpt>
      <trkpt lat="44.1061" lon="3.26222">
        <ele>428</ele>
        <time>2023-09-16T10:13:50Z</time>
      </trkpt>
      <trkpt lat="44.10602" lon="3.26236">
        <ele>429</ele>
        <time>2023-09-16T10:13:52Z</time>
      </trkpt>
      <trkpt lat="44.10576" lon="3.26269">
        <ele>427</ele>
        <time>2023-09-16T10:13:58Z</time>
      </trkpt>
      <trkpt lat="44.10543" lon="3.26317">
        <ele>424</ele>
        <time>2023-09-16T10:14:07Z</time>
      </trkpt>
      <trkpt lat="44.10529" lon="3.26326">
        <ele>424</ele>
        <time>2023-09-16T10:14:09Z</time>
      </trkpt>
      <trkpt lat="44.10513" lon="3.26326">
        <ele>425</ele>
        <time>2023-09-16T10:14:12Z</time>
      </trkpt>
      <trkpt lat="44.10499" lon="3.26316">
        <ele>427</ele>
        <time>2023-09-16T10:14:15Z</time>
      </trkpt>
      <trkpt lat="44.10433" lon="3.26231">
        <ele>434</ele>
        <time>2023-09-16T10:14:31Z</time>
      </trkpt>
      <trkpt lat="44.10415" lon="3.26214">
        <ele>438</ele>
        <time>2023-09-16T10:14:35Z</time>
      </trkpt>
      <trkpt lat="44.10396" lon="3.26201">
        <ele>440</ele>
        <time>2023-09-16T10:14:39Z</time>
      </trkpt>
      <trkpt lat="44.10368" lon="3.26191">
        <ele>440</ele>
        <time>2023-09-16T10:14:44Z</time>
      </trkpt>
      <trkpt lat="44.10307" lon="3.26175">
        <ele>439</ele>
        <time>2023-09-16T10:14:55Z</time>
      </trkpt>
      <trkpt lat="44.10256" lon="3.26169">
        <ele>436</ele>
        <time>2023-09-16T10:15:04Z</time>
      </trkpt>
      <trkpt lat="44.10206" lon="3.26172">
        <ele>435</ele>
        <time>2023-09-16T10:15:13Z</time>
      </trkpt>
      <trkpt lat="44.10172" lon="3.26179">
        <ele>434</ele>
        <time>2023-09-16T10:15:19Z</time>
      </trkpt>
      <trkpt lat="44.10146" lon="3.26189">
        <ele>435</ele>
        <time>2023-09-16T10:15:24Z</time>
      </trkpt>
      <trkpt lat="44.1013" lon="3.26199">
        <ele>435</ele>
        <time>2023-09-16T10:15:27Z</time>
      </trkpt>
      <trkpt lat="44.10082" lon="3.2624">
        <ele>431</ele>
        <time>2023-09-16T10:15:37Z</time>
      </trkpt>
      <trkpt lat="44.10075" lon="3.26249">
        <ele>430</ele>
        <time>2023-09-16T10:15:39Z</time>
      </trkpt>
      <trkpt lat="44.10062" lon="3.26271">
        <ele>431</ele>
        <time>2023-09-16T10:15:42Z</time>
      </trkpt>
      <trkpt lat="44.10022" lon="3.26362">
        <ele>431</ele>
        <time>2023-09-16T10:15:56Z</time>
      </trkpt>
      <trkpt lat="44.10008" lon="3.26411">
        <ele>431</ele>
        <time>2023-09-16T10:16:03Z</time>
      </trkpt>
      <trkpt lat="44.09972" lon="3.2659">
        <ele>431</ele>
        <time>2023-09-16T10:16:26Z</time>
      </trkpt>
      <trkpt lat="44.09962" lon="3.26627">
        <ele>431</ele>
        <time>2023-09-16T10:16:31Z</time>
      </trkpt>
      <trkpt lat="44.09947" lon="3.26662">
        <ele>432</ele>
        <time>2023-09-16T10:16:37Z</time>
      </trkpt>
      <trkpt lat="44.09872" lon="3.26807">
        <ele>436</ele>
        <time>2023-09-16T10:16:59Z</time>
      </trkpt>
      <trkpt lat="44.09852" lon="3.26838">
        <ele>434</ele>
        <time>2023-09-16T10:17:05Z</time>
      </trkpt>
      <trkpt lat="44.09834" lon="3.26859">
        <ele>434</ele>
        <time>2023-09-16T10:17:09Z</time>
      </trkpt>
      <trkpt lat="44.0981" lon="3.26876">
        <ele>434</ele>
        <time>2023-09-16T10:17:14Z</time>
      </trkpt>
      <trkpt lat="44.09742" lon="3.26917">
        <ele>430</ele>
        <time>2023-09-16T10:17:27Z</time>
      </trkpt>
      <trkpt lat="44.09718" lon="3.26927">
        <ele>431</ele>
        <time>2023-09-16T10:17:31Z</time>
      </trkpt>
      <trkpt lat="44.09697" lon="3.26929">
        <ele>432</ele>
        <time>2023-09-16T10:17:35Z</time>
      </trkpt>
      <trkpt lat="44.09675" lon="3.26923">
        <ele>433</ele>
        <time>2023-09-16T10:17:39Z</time>
      </trkpt>
      <trkpt lat="44.0963" lon="3.26902">
        <ele>435</ele>
        <time>2023-09-16T10:17:48Z</time>
      </trkpt>
      <trkpt lat="44.09603" lon="3.26885">
        <ele>435</ele>
        <time>2023-09-16T10:17:53Z</time>
      </trkpt>
      <trkpt lat="44.09579" lon="3.2686">
        <ele>435</ele>
        <time>2023-09-16T10:17:58Z</time>
      </trkpt>
      <trkpt lat="44.09559" lon="3.26827">
        <ele>437</ele>
        <time>2023-09-16T10:18:04Z</time>
      </trkpt>
      <trkpt lat="44.09546" lon="3.26791">
        <ele>438</ele>
        <time>2023-09-16T10:18:09Z</time>
      </trkpt>
      <trkpt lat="44.09542" lon="3.2677">
        <ele>439</ele>
        <time>2023-09-16T10:18:12Z</time>
      </trkpt>
      <trkpt lat="44.09535" lon="3.26679">
        <ele>442</ele>
        <time>2023-09-16T10:18:23Z</time>
      </trkpt>
      <trkpt lat="44.09511" lon="3.26567">
        <ele>440</ele>
        <time>2023-09-16T10:18:38Z</time>
      </trkpt>
      <trkpt lat="44.09486" lon="3.26398">
        <ele>447</ele>
        <time>2023-09-16T10:19:00Z</time>
      </trkpt>
      <trkpt lat="44.09469" lon="3.26317">
        <ele>448</ele>
        <time>2023-09-16T10:19:11Z</time>
      </trkpt>
      <trkpt lat="44.09446" lon="3.26235">
        <ele>448</ele>
        <time>2023-09-16T10:19:22Z</time>
      </trkpt>
      <trkpt lat="44.09436" lon="3.26211">
        <ele>447</ele>
        <time>2023-09-16T10:19:26Z</time>
      </trkpt>
      <trkpt lat="44.09423" lon="3.26194">
        <ele>444</ele>
        <time>2023-09-16T10:19:29Z</time>
      </trkpt>
      <trkpt lat="44.09393" lon="3.26161">
        <ele>442</ele>
        <time>2023-09-16T10:19:36Z</time>
      </trkpt>
      <trkpt lat="44.09374" lon="3.26146">
        <ele>445</ele>
        <time>2023-09-16T10:19:40Z</time>
      </trkpt>
      <trkpt lat="44.09364" lon="3.26141">
        <ele>446</ele>
        <time>2023-09-16T10:19:42Z</time>
      </trkpt>
      <trkpt lat="44.09343" lon="3.26135">
        <ele>444</ele>
        <time>2023-09-16T10:19:45Z</time>
      </trkpt>
      <trkpt lat="44.09326" lon="3.26136">
        <ele>443</ele>
        <time>2023-09-16T10:19:48Z</time>
      </trkpt>
      <trkpt lat="44.09309" lon="3.26144">
        <ele>442</ele>
        <time>2023-09-16T10:19:52Z</time>
      </trkpt>
      <trkpt lat="44.09289" lon="3.26163">
        <ele>438</ele>
        <time>2023-09-16T10:19:56Z</time>
      </trkpt>
      <trkpt lat="44.09186" lon="3.26273">
        <ele>439</ele>
        <time>2023-09-16T10:20:19Z</time>
      </trkpt>
      <trkpt lat="44.09179" lon="3.26283">
        <ele>438</ele>
        <time>2023-09-16T10:20:21Z</time>
      </trkpt>
      <trkpt lat="44.09164" lon="3.2631">
        <ele>437</ele>
        <time>2023-09-16T10:20:25Z</time>
      </trkpt>
      <trkpt lat="44.09157" lon="3.26319">
        <ele>438</ele>
        <time>2023-09-16T10:20:27Z</time>
      </trkpt>
      <trkpt lat="44.09116" lon="3.26353">
        <ele>441</ele>
        <time>2023-09-16T10:20:35Z</time>
      </trkpt>
      <trkpt lat="44.09111" lon="3.2636">
        <ele>440</ele>
        <time>2023-09-16T10:20:37Z</time>
      </trkpt>
      <trkpt lat="44.09077" lon="3.2641">
        <ele>435</ele>
        <time>2023-09-16T10:20:45Z</time>
      </trkpt>
      <trkpt lat="44.09061" lon="3.2643">
        <ele>437</ele>
        <time>2023-09-16T10:20:49Z</time>
      </trkpt>
      <trkpt lat="44.08926" lon="3.26568">
        <ele>450</ele>
        <time>2023-09-16T10:21:19Z</time>
      </trkpt>
      <trkpt lat="44.08879" lon="3.26621">
        <ele>456</ele>
        <time>2023-09-16T10:21:30Z</time>
      </trkpt>
      <trkpt lat="44.08864" lon="3.26643">
        <ele>455</ele>
        <time>2023-09-16T10:21:34Z</time>
      </trkpt>
      <trkpt lat="44.0883" lon="3.26702">
        <ele>448</ele>
        <time>2023-09-16T10:21:43Z</time>
      </trkpt>
      <trkpt lat="44.08804" lon="3.26752">
        <ele>447</ele>
        <time>2023-09-16T10:21:51Z</time>
      </trkpt>
      <trkpt lat="44.08748" lon="3.26893">
        <ele>443</ele>
        <time>2023-09-16T10:22:12Z</time>
      </trkpt>
      <trkpt lat="44.08744" lon="3.26908">
        <ele>443</ele>
        <time>2023-09-16T10:22:14Z</time>
      </trkpt>
      <trkpt lat="44.08738" lon="3.26949">
        <ele>443</ele>
        <time>2023-09-16T10:22:19Z</time>
      </trkpt>
      <trkpt lat="44.08725" lon="3.27057">
        <ele>447</ele>
        <time>2023-09-16T10:22:33Z</time>
      </trkpt>
      <trkpt lat="44.08723" lon="3.2709">
        <ele>448</ele>
        <time>2023-09-16T10:22:37Z</time>
      </trkpt>
      <trkpt lat="44.08727" lon="3.27141">
        <ele>448</ele>
        <time>2023-09-16T10:22:44Z</time>
      </trkpt>
      <trkpt lat="44.08752" lon="3.27347">
        <ele>447</ele>
        <time>2023-09-16T10:23:11Z</time>
      </trkpt>
      <trkpt lat="44.08754" lon="3.27394">
        <ele>447</ele>
        <time>2023-09-16T10:23:17Z</time>
      </trkpt>
      <trkpt lat="44.08754" lon="3.27448">
        <ele>446</ele>
        <time>2023-09-16T10:23:24Z</time>
      </trkpt>
      <trkpt lat="44.08748" lon="3.27498">
        <ele>445</ele>
        <time>2023-09-16T10:23:30Z</time>
      </trkpt>
      <trkpt lat="44.08743" lon="3.2752">
        <ele>446</ele>
        <time>2023-09-16T10:23:33Z</time>
      </trkpt>
      <trkpt lat="44.08723" lon="3.27587">
        <ele>447</ele>
        <time>2023-09-16T10:23:42Z</time>
      </trkpt>
      <trkpt lat="44.08709" lon="3.27625">
        <ele>444</ele>
        <time>2023-09-16T10:23:48Z</time>
      </trkpt>
      <trkpt lat="44.08696" lon="3.27647">
        <ele>442</ele>
        <time>2023-09-16T10:23:51Z</time>
      </trkpt>
      <trkpt lat="44.08685" lon="3.27655">
        <ele>441</ele>
        <time>2023-09-16T10:23:54Z</time>
      </trkpt>
      <trkpt lat="44.08678" lon="3.27656">
        <ele>442</ele>
        <time>2023-09-16T10:23:55Z</time>
      </trkpt>
      <trkpt lat="44.08665" lon="3.2765">
        <ele>445</ele>
        <time>2023-09-16T10:23:57Z</time>
      </trkpt>
      <trkpt lat="44.08656" lon="3.27643">
        <ele>446</ele>
        <time>2023-09-16T10:23:59Z</time>
      </trkpt>
      <trkpt lat="44.08616" lon="3.27591">
        <ele>451</ele>
        <time>2023-09-16T10:24:09Z</time>
      </trkpt>
      <trkpt lat="44.08577" lon="3.27539">
        <ele>460</ele>
        <time>2023-09-16T10:24:19Z</time>
      </trkpt>
      <trkpt lat="44.08568" lon="3.2753">
        <ele>461</ele>
        <time>2023-09-16T10:24:21Z</time>
      </trkpt>
      <trkpt lat="44.08524" lon="3.27496">
        <ele>459</ele>
        <time>2023-09-16T10:24:29Z</time>
      </trkpt>
      <trkpt lat="44.08497" lon="3.27481">
        <ele>461</ele>
        <time>2023-09-16T10:24:35Z</time>
      </trkpt>
      <trkpt lat="44.08473" lon="3.27473">
        <ele>464</ele>
        <time>2023-09-16T10:24:39Z</time>
      </trkpt>
      <trkpt lat="44.08454" lon="3.27471">
        <ele>464</ele>
        <time>2023-09-16T10:24:42Z</time>
      </trkpt>
      <trkpt lat="44.08425" lon="3.27472">
        <ele>461</ele>
        <time>2023-09-16T10:24:48Z</time>
      </trkpt>
      <trkpt lat="44.08399" lon="3.27478">
        <ele>457</ele>
        <time>2023-09-16T10:24:52Z</time>
      </trkpt>
      <trkpt lat="44.08333" lon="3.27507">
        <ele>452</ele>
        <time>2023-09-16T10:25:05Z</time>
      </trkpt>
      <trkpt lat="44.0831" lon="3.27521">
        <ele>452</ele>
        <time>2023-09-16T10:25:09Z</time>
      </trkpt>
      <trkpt lat="44.08252" lon="3.27571">
        <ele>447</ele>
        <time>2023-09-16T10:25:21Z</time>
      </trkpt>
      <trkpt lat="44.08244" lon="3.27581">
        <ele>445</ele>
        <time>2023-09-16T10:25:23Z</time>
      </trkpt>
      <trkpt lat="44.08229" lon="3.27608">
        <ele>445</ele>
        <time>2023-09-16T10:25:27Z</time>
      </trkpt>
      <trkpt lat="44.08197" lon="3.27687">
        <ele>445</ele>
        <time>2023-09-16T10:25:39Z</time>
      </trkpt>
      <trkpt lat="44.08177" lon="3.27761">
        <ele>448</ele>
        <time>2023-09-16T10:25:49Z</time>
      </trkpt>
      <trkpt lat="44.08167" lon="3.27787">
        <ele>448</ele>
        <time>2023-09-16T10:25:53Z</time>
      </trkpt>
      <trkpt lat="44.0815" lon="3.27815">
        <ele>451</ele>
        <time>2023-09-16T10:25:58Z</time>
      </trkpt>
      <trkpt lat="44.08121" lon="3.27852">
        <ele>454</ele>
        <time>2023-09-16T10:26:05Z</time>
      </trkpt>
      <trkpt lat="44.08071" lon="3.27904">
        <ele>454</ele>
        <time>2023-09-16T10:26:16Z</time>
      </trkpt>
      <trkpt lat="44.08055" lon="3.27918">
        <ele>455</ele>
        <time>2023-09-16T10:26:19Z</time>
      </trkpt>
      <trkpt lat="44.08029" lon="3.27937">
        <ele>456</ele>
        <time>2023-09-16T10:26:24Z</time>
      </trkpt>
      <trkpt lat="44.07988" lon="3.27962">
        <ele>455</ele>
        <time>2023-09-16T10:26:32Z</time>
      </trkpt>
      <trkpt lat="44.07953" lon="3.27981">
        <ele>453</ele>
        <time>2023-09-16T10:26:39Z</time>
      </trkpt>
      <trkpt lat="44.07861" lon="3.28014">
        <ele>459</ele>
        <time>2023-09-16T10:26:56Z</time>
      </trkpt>
      <trkpt lat="44.07816" lon="3.28021">
        <ele>467</ele>
        <time>2023-09-16T10:27:04Z</time>
      </trkpt>
      <trkpt lat="44.07799" lon="3.28028">
        <ele>471</ele>
        <time>2023-09-16T10:27:07Z</time>
      </trkpt>
      <trkpt lat="44.07791" lon="3.28035">
        <ele>470</ele>
        <time>2023-09-16T10:27:09Z</time>
      </trkpt>
      <trkpt lat="44.07748" lon="3.28082">
        <ele>460</ele>
        <time>2023-09-16T10:27:18Z</time>
      </trkpt>
      <trkpt lat="44.07719" lon="3.28129">
        <ele>467</ele>
        <time>2023-09-16T10:27:26Z</time>
      </trkpt>
      <trkpt lat="44.07713" lon="3.28142">
        <ele>467</ele>
        <time>2023-09-16T10:27:28Z</time>
      </trkpt>
      <trkpt lat="44.07703" lon="3.2817">
        <ele>465</ele>
        <time>2023-09-16T10:27:32Z</time>
      </trkpt>
      <trkpt lat="44.07684" lon="3.28256">
        <ele>460</ele>
        <time>2023-09-16T10:27:44Z</time>
      </trkpt>
      <trkpt lat="44.07661" lon="3.28342">
        <ele>455</ele>
        <time>2023-09-16T10:27:56Z</time>
      </trkpt>
      <trkpt lat="44.0765" lon="3.2837">
        <ele>455</ele>
        <time>2023-09-16T10:28:00Z</time>
      </trkpt>
      <trkpt lat="44.0763" lon="3.284">
        <ele>455</ele>
        <time>2023-09-16T10:28:05Z</time>
      </trkpt>
      <trkpt lat="44.07593" lon="3.28442">
        <ele>457</ele>
        <time>2023-09-16T10:28:13Z</time>
      </trkpt>
      <trkpt lat="44.07527" lon="3.28501">
        <ele>455</ele>
        <time>2023-09-16T10:28:27Z</time>
      </trkpt>
      <trkpt lat="44.07513" lon="3.28512">
        <ele>455</ele>
        <time>2023-09-16T10:28:30Z</time>
      </trkpt>
      <trkpt lat="44.07505" lon="3.28517">
        <ele>455</ele>
        <time>2023-09-16T10:28:32Z</time>
      </trkpt>
      <trkpt lat="44.07487" lon="3.28519">
        <ele>456</ele>
        <time>2023-09-16T10:28:35Z</time>
      </trkpt>
      <trkpt lat="44.07441" lon="3.28505">
        <ele>461</ele>
        <time>2023-09-16T10:28:43Z</time>
      </trkpt>
      <trkpt lat="44.0743" lon="3.28505">
        <ele>462</ele>
        <time>2023-09-16T10:28:45Z</time>
      </trkpt>
      <trkpt lat="44.07409" lon="3.28512">
        <ele>462</ele>
        <time>2023-09-16T10:28:49Z</time>
      </trkpt>
      <trkpt lat="44.07395" lon="3.28523">
        <ele>463</ele>
        <time>2023-09-16T10:28:52Z</time>
      </trkpt>
      <trkpt lat="44.07383" lon="3.28539">
        <ele>462</ele>
        <time>2023-09-16T10:28:55Z</time>
      </trkpt>
      <trkpt lat="44.07319" lon="3.28666">
        <ele>464</ele>
        <time>2023-09-16T10:29:15Z</time>
      </trkpt>
      <trkpt lat="44.0729" lon="3.28711">
        <ele>465</ele>
        <time>2023-09-16T10:29:23Z</time>
      </trkpt>
      <trkpt lat="44.07243" lon="3.28779">
        <ele>464</ele>
        <time>2023-09-16T10:29:35Z</time>
      </trkpt>
      <trkpt lat="44.07217" lon="3.28807">
        <ele>465</ele>
        <time>2023-09-16T10:29:40Z</time>
      </trkpt>
      <trkpt lat="44.07176" lon="3.28846">
        <ele>467</ele>
        <time>2023-09-16T10:29:49Z</time>
      </trkpt>
      <trkpt lat="44.07147" lon="3.28888">
        <ele>472</ele>
        <time>2023-09-16T10:29:57Z</time>
      </trkpt>
      <trkpt lat="44.07136" lon="3.28907">
        <ele>474</ele>
        <time>2023-09-16T10:30:00Z</time>
      </trkpt>
      <trkpt lat="44.07108" lon="3.28968">
        <ele>483</ele>
        <time>2023-09-16T10:30:09Z</time>
      </trkpt>
      <trkpt lat="44.07105" lon="3.28978">
        <ele>484</ele>
        <time>2023-09-16T10:30:10Z</time>
      </trkpt>
      <trkpt lat="44.07102" lon="3.29">
        <ele>483</ele>
        <time>2023-09-16T10:30:13Z</time>
      </trkpt>
      <trkpt lat="44.07101" lon="3.29049">
        <ele>484</ele>
        <time>2023-09-16T10:30:20Z</time>
      </trkpt>
      <trkpt lat="44.07102" lon="3.29063">
        <ele>484</ele>
        <time>2023-09-16T10:30:21Z</time>
      </trkpt>
      <trkpt lat="44.07127" lon="3.29202">
        <ele>473</ele>
        <time>2023-09-16T10:30:40Z</time>
      </trkpt>
      <trkpt lat="44.0713" lon="3.2923">
        <ele>472</ele>
        <time>2023-09-16T10:30:43Z</time>
      </trkpt>
      <trkpt lat="44.07129" lon="3.29257">
        <ele>471</ele>
        <time>2023-09-16T10:30:47Z</time>
      </trkpt>
      <trkpt lat="44.07127" lon="3.29273">
        <ele>470</ele>
        <time>2023-09-16T10:30:49Z</time>
      </trkpt>
      <trkpt lat="44.07119" lon="3.29305">
        <ele>467</ele>
        <time>2023-09-16T10:30:53Z</time>
      </trkpt>
      <trkpt lat="44.07115" lon="3.29315">
        <ele>467</ele>
        <time>2023-09-16T10:30:55Z</time>
      </trkpt>
      <trkpt lat="44.0711" lon="3.29322">
        <ele>467</ele>
        <time>2023-09-16T10:30:56Z</time>
      </trkpt>
      <trkpt lat="44.07105" lon="3.29327">
        <ele>467</ele>
        <time>2023-09-16T10:30:57Z</time>
      </trkpt>
      <trkpt lat="44.07094" lon="3.29333">
        <ele>468</ele>
        <time>2023-09-16T10:30:59Z</time>
      </trkpt>
      <trkpt lat="44.07082" lon="3.29333">
        <ele>470</ele>
        <time>2023-09-16T10:31:01Z</time>
      </trkpt>
      <trkpt lat="44.0707" lon="3.29326">
        <ele>469</ele>
        <time>2023-09-16T10:31:04Z</time>
      </trkpt>
      <trkpt lat="44.07036" lon="3.29292">
        <ele>475</ele>
        <time>2023-09-16T10:31:11Z</time>
      </trkpt>
      <trkpt lat="44.0702" lon="3.2928">
        <ele>479</ele>
        <time>2023-09-16T10:31:14Z</time>
      </trkpt>
      <trkpt lat="44.06921" lon="3.29244">
        <ele>484</ele>
        <time>2023-09-16T10:31:32Z</time>
      </trkpt>
      <trkpt lat="44.06902" lon="3.2924">
        <ele>486</ele>
        <time>2023-09-16T10:31:36Z</time>
      </trkpt>
      <trkpt lat="44.06887" lon="3.29238">
        <ele>489</ele>
        <time>2023-09-16T10:31:39Z</time>
      </trkpt>
      <trkpt lat="44.06867" lon="3.29239">
        <ele>489</ele>
        <time>2023-09-16T10:31:42Z</time>
      </trkpt>
      <trkpt lat="44.06859" lon="3.29241">
        <ele>489</ele>
        <time>2023-09-16T10:31:44Z</time>
      </trkpt>
      <trkpt lat="44.06829" lon="3.29259">
        <ele>484</ele>
        <time>2023-09-16T10:31:49Z</time>
      </trkpt>
      <trkpt lat="44.06813" lon="3.29265">
        <ele>485</ele>
        <time>2023-09-16T10:31:52Z</time>
      </trkpt>
      <trkpt lat="44.06772" lon="3.2926">
        <ele>494</ele>
        <time>2023-09-16T10:32:00Z</time>
      </trkpt>
      <trkpt lat="44.06761" lon="3.29263">
        <ele>495</ele>
        <time>2023-09-16T10:32:02Z</time>
      </trkpt>
      <trkpt lat="44.06748" lon="3.29272">
        <ele>494</ele>
        <time>2023-09-16T10:32:04Z</time>
      </trkpt>
      <trkpt lat="44.06725" lon="3.293">
        <ele>493</ele>
        <time>2023-09-16T10:32:10Z</time>
      </trkpt>
      <trkpt lat="44.06715" lon="3.29316">
        <ele>491</ele>
        <time>2023-09-16T10:32:12Z</time>
      </trkpt>
      <trkpt lat="44.067" lon="3.29345">
        <ele>490</ele>
        <time>2023-09-16T10:32:17Z</time>
      </trkpt>
      <trkpt lat="44.06687" lon="3.2938">
        <ele>489</ele>
        <time>2023-09-16T10:32:22Z</time>
      </trkpt>
      <trkpt lat="44.06639" lon="3.29551">
        <ele>482</ele>
        <time>2023-09-16T10:32:45Z</time>
      </trkpt>
      <trkpt lat="44.06614" lon="3.29685">
        <ele>474</ele>
        <time>2023-09-16T10:33:03Z</time>
      </trkpt>
      <trkpt lat="44.06604" lon="3.29725">
        <ele>470</ele>
        <time>2023-09-16T10:33:09Z</time>
      </trkpt>
      <trkpt lat="44.06593" lon="3.29755">
        <ele>468</ele>
        <time>2023-09-16T10:33:13Z</time>
      </trkpt>
      <trkpt lat="44.06576" lon="3.29788">
        <ele>465</ele>
        <time>2023-09-16T10:33:18Z</time>
      </trkpt>
      <trkpt lat="44.06543" lon="3.29839">
        <ele>463</ele>
        <time>2023-09-16T10:33:27Z</time>
      </trkpt>
      <trkpt lat="44.06497" lon="3.29915">
        <ele>461</ele>
        <time>2023-09-16T10:33:40Z</time>
      </trkpt>
      <trkpt lat="44.06486" lon="3.29927">
        <ele>462</ele>
        <time>2023-09-16T10:33:42Z</time>
      </trkpt>
      <trkpt lat="44.06347" lon="3.30006">
        <ele>468</ele>
        <time>2023-09-16T10:34:09Z</time>
      </trkpt>
      <trkpt lat="44.06328" lon="3.30013">
        <ele>470</ele>
        <time>2023-09-16T10:34:12Z</time>
      </trkpt>
      <trkpt lat="44.0631" lon="3.30017">
        <ele>471</ele>
        <time>2023-09-16T10:34:16Z</time>
      </trkpt>
      <trkpt lat="44.06246" lon="3.30023">
        <ele>478</ele>
        <time>2023-09-16T10:34:27Z</time>
      </trkpt>
      <trkpt lat="44.06172" lon="3.30037">
        <ele>476</ele>
        <time>2023-09-16T10:34:40Z</time>
      </trkpt>
      <trkpt lat="44.06074" lon="3.3005">
        <ele>476</ele>
        <time>2023-09-16T10:34:58Z</time>
      </trkpt>
      <trkpt lat="44.06045" lon="3.30051">
        <ele>473</ele>
        <time>2023-09-16T10:35:03Z</time>
      </trkpt>
      <trkpt lat="44.06009" lon="3.30044">
        <ele>473</ele>
        <time>2023-09-16T10:35:09Z</time>
      </trkpt>
      <trkpt lat="44.0593" lon="3.30003">
        <ele>471</ele>
        <time>2023-09-16T10:35:24Z</time>
      </trkpt>
      <trkpt lat="44.05858" lon="3.29977">
        <ele>474</ele>
        <time>2023-09-16T10:35:38Z</time>
      </trkpt>
      <trkpt lat="44.0583" lon="3.29971">
        <ele>474</ele>
        <time>2023-09-16T10:35:43Z</time>
      </trkpt>
      <trkpt lat="44.05788" lon="3.29973">
        <ele>477</ele>
        <time>2023-09-16T10:35:50Z</time>
      </trkpt>
      <trkpt lat="44.05705" lon="3.30002">
        <ele>478</ele>
        <time>2023-09-16T10:36:05Z</time>
      </trkpt>
      <trkpt lat="44.05684" lon="3.30015">
        <ele>478</ele>
        <time>2023-09-16T10:36:09Z</time>
      </trkpt>
      <trkpt lat="44.05677" lon="3.30019">
        <ele>478</ele>
        <time>2023-09-16T10:36:11Z</time>
      </trkpt>
      <trkpt lat="44.0563" lon="3.30065">
        <ele>480</ele>
        <time>2023-09-16T10:36:21Z</time>
      </trkpt>
      <trkpt lat="44.05602" lon="3.30097">
        <ele>482</ele>
        <time>2023-09-16T10:36:27Z</time>
      </trkpt>
      <trkpt lat="44.05554" lon="3.30175">
        <ele>476</ele>
        <time>2023-09-16T10:36:41Z</time>
      </trkpt>
      <trkpt lat="44.05536" lon="3.302">
        <ele>474</ele>
        <time>2023-09-16T10:36:45Z</time>
      </trkpt>
      <trkpt lat="44.0552" lon="3.30218">
        <ele>473</ele>
        <time>2023-09-16T10:36:49Z</time>
      </trkpt>
      <trkpt lat="44.05498" lon="3.30232">
        <ele>472</ele>
        <time>2023-09-16T10:36:53Z</time>
      </trkpt>
      <trkpt lat="44.05481" lon="3.30237">
        <ele>471</ele>
        <time>2023-09-16T10:36:56Z</time>
      </trkpt>
      <trkpt lat="44.0546" lon="3.30236">
        <ele>471</ele>
        <time>2023-09-16T10:37:00Z</time>
      </trkpt>
      <trkpt lat="44.05442" lon="3.30229">
        <ele>472</ele>
        <time>2023-09-16T10:37:03Z</time>
      </trkpt>
      <trkpt lat="44.05433" lon="3.30224">
        <ele>472</ele>
        <time>2023-09-16T10:37:05Z</time>
      </trkpt>
      <trkpt lat="44.05414" lon="3.30204">
        <ele>475</ele>
        <time>2023-09-16T10:37:09Z</time>
      </trkpt>
      <trkpt lat="44.05365" lon="3.30146">
        <ele>482</ele>
        <time>2023-09-16T10:37:21Z</time>
      </trkpt>
      <trkpt lat="44.05349" lon="3.30135">
        <ele>486</ele>
        <time>2023-09-16T10:37:24Z</time>
      </trkpt>
      <trkpt lat="44.05309" lon="3.30112">
        <ele>492</ele>
        <time>2023-09-16T10:37:32Z</time>
      </trkpt>
      <trkpt lat="44.05291" lon="3.30106">
        <ele>492</ele>
        <time>2023-09-16T10:37:35Z</time>
      </trkpt>
      <trkpt lat="44.05265" lon="3.30102">
        <ele>489</ele>
        <time>2023-09-16T10:37:39Z</time>
      </trkpt>
      <trkpt lat="44.05165" lon="3.30097">
        <ele>486</ele>
        <time>2023-09-16T10:37:57Z</time>
      </trkpt>
      <trkpt lat="44.05146" lon="3.30093">
        <ele>486</ele>
        <time>2023-09-16T10:38:01Z</time>
      </trkpt>
      <trkpt lat="44.05126" lon="3.30087">
        <ele>486</ele>
        <time>2023-09-16T10:38:04Z</time>
      </trkpt>
      <trkpt lat="44.05071" lon="3.30066">
        <ele>486</ele>
        <time>2023-09-16T10:38:14Z</time>
      </trkpt>
      <trkpt lat="44.04998" lon="3.30043">
        <ele>485</ele>
        <time>2023-09-16T10:38:28Z</time>
      </trkpt>
      <trkpt lat="44.04949" lon="3.30016">
        <ele>486</ele>
        <time>2023-09-16T10:38:37Z</time>
      </trkpt>
      <trkpt lat="44.04895" lon="3.29975">
        <ele>489</ele>
        <time>2023-09-16T10:38:48Z</time>
      </trkpt>
      <trkpt lat="44.04863" lon="3.29941">
        <ele>490</ele>
        <time>2023-09-16T10:38:55Z</time>
      </trkpt>
      <trkpt lat="44.04832" lon="3.29897">
        <ele>493</ele>
        <time>2023-09-16T10:39:03Z</time>
      </trkpt>
      <trkpt lat="44.04777" lon="3.29853">
        <ele>488</ele>
        <time>2023-09-16T10:39:14Z</time>
      </trkpt>
      <trkpt lat="44.04762" lon="3.29831">
        <ele>487</ele>
        <time>2023-09-16T10:39:18Z</time>
      </trkpt>
      <trkpt lat="44.04744" lon="3.29794">
        <ele>489</ele>
        <time>2023-09-16T10:39:24Z</time>
      </trkpt>
      <trkpt lat="44.04734" lon="3.29766">
        <ele>491</ele>
        <time>2023-09-16T10:39:28Z</time>
      </trkpt>
      <trkpt lat="44.04729" lon="3.29744">
        <ele>493</ele>
        <time>2023-09-16T10:39:31Z</time>
      </trkpt>
      <trkpt lat="44.0473" lon="3.2972">
        <ele>499</ele>
        <time>2023-09-16T10:39:34Z</time>
      </trkpt>
      <trkpt lat="44.04736" lon="3.29683">
        <ele>508</ele>
        <time>2023-09-16T10:39:39Z</time>
      </trkpt>
      <trkpt lat="44.04738" lon="3.29662">
        <ele>513</ele>
        <time>2023-09-16T10:39:42Z</time>
      </trkpt>
      <trkpt lat="44.04736" lon="3.29652">
        <ele>516</ele>
        <time>2023-09-16T10:39:43Z</time>
      </trkpt>
      <trkpt lat="44.04728" lon="3.29634">
        <ele>519</ele>
        <time>2023-09-16T10:39:46Z</time>
      </trkpt>
      <trkpt lat="44.04718" lon="3.29627">
        <ele>519</ele>
        <time>2023-09-16T10:39:48Z</time>
      </trkpt>
      <trkpt lat="44.04707" lon="3.29627">
        <ele>516</ele>
        <time>2023-09-16T10:39:50Z</time>
      </trkpt>
      <trkpt lat="44.04675" lon="3.29641">
        <ele>503</ele>
        <time>2023-09-16T10:39:56Z</time>
      </trkpt>
      <trkpt lat="44.04668" lon="3.29643">
        <ele>500</ele>
        <time>2023-09-16T10:39:57Z</time>
      </trkpt>
      <trkpt lat="44.04654" lon="3.2964">
        <ele>498</ele>
        <time>2023-09-16T10:39:59Z</time>
      </trkpt>
      <trkpt lat="44.0459" lon="3.29597">
        <ele>502</ele>
        <time>2023-09-16T10:40:12Z</time>
      </trkpt>
      <trkpt lat="44.04395" lon="3.2952">
        <ele>506</ele>
        <time>2023-09-16T10:40:48Z</time>
      </trkpt>
      <trkpt lat="44.04323" lon="3.29479">
        <ele>509</ele>
        <time>2023-09-16T10:41:02Z</time>
      </trkpt>
      <trkpt lat="44.04282" lon="3.29473">
        <ele>508</ele>
        <time>2023-09-16T10:41:09Z</time>
      </trkpt>
      <trkpt lat="44.04234" lon="3.29455">
        <ele>509</ele>
        <time>2023-09-16T10:41:18Z</time>
      </trkpt>
      <trkpt lat="44.04186" lon="3.29427">
        <ele>508</ele>
        <time>2023-09-16T10:41:27Z</time>
      </trkpt>
      <trkpt lat="44.04163" lon="3.29402">
        <ele>510</ele>
        <time>2023-09-16T10:41:33Z</time>
      </trkpt>
      <trkpt lat="44.04143" lon="3.29378">
        <ele>511</ele>
        <time>2023-09-16T10:41:37Z</time>
      </trkpt>
      <trkpt lat="44.0412" lon="3.29355">
        <ele>512</ele>
        <time>2023-09-16T10:41:42Z</time>
      </trkpt>
      <trkpt lat="44.04034" lon="3.29289">
        <ele>518</ele>
        <time>2023-09-16T10:42:00Z</time>
      </trkpt>
      <trkpt lat="44.03931" lon="3.29217">
        <ele>514</ele>
        <time>2023-09-16T10:42:20Z</time>
      </trkpt>
      <trkpt lat="44.03914" lon="3.292">
        <ele>513</ele>
        <time>2023-09-16T10:42:24Z</time>
      </trkpt>
      <trkpt lat="44.03901" lon="3.29179">
        <ele>514</ele>
        <time>2023-09-16T10:42:28Z</time>
      </trkpt>
      <trkpt lat="44.03894" lon="3.2916">
        <ele>515</ele>
        <time>2023-09-16T10:42:30Z</time>
      </trkpt>
      <trkpt lat="44.03891" lon="3.29146">
        <ele>516</ele>
        <time>2023-09-16T10:42:32Z</time>
      </trkpt>
      <trkpt lat="44.03888" lon="3.29122">
        <ele>518</ele>
        <time>2023-09-16T10:42:35Z</time>
      </trkpt>
      <trkpt lat="44.03885" lon="3.29062">
        <ele>523</ele>
        <time>2023-09-16T10:42:43Z</time>
      </trkpt>
      <trkpt lat="44.03879" lon="3.29029">
        <ele>525</ele>
        <time>2023-09-16T10:42:47Z</time>
      </trkpt>
      <trkpt lat="44.03867" lon="3.29003">
        <ele>526</ele>
        <time>2023-09-16T10:42:51Z</time>
      </trkpt>
      <trkpt lat="44.03856" lon="3.28988">
        <ele>526</ele>
        <time>2023-09-16T10:42:54Z</time>
      </trkpt>
      <trkpt lat="44.03842" lon="3.28976">
        <ele>526</ele>
        <time>2023-09-16T10:42:57Z</time>
      </trkpt>
      <trkpt lat="44.03831" lon="3.28974">
        <ele>525</ele>
        <time>2023-09-16T10:42:59Z</time>
      </trkpt>
      <trkpt lat="44.03818" lon="3.28978">
        <ele>525</ele>
        <time>2023-09-16T10:43:01Z</time>
      </trkpt>
      <trkpt lat="44.03807" lon="3.28988">
        <ele>524</ele>
        <time>2023-09-16T10:43:04Z</time>
      </trkpt>
      <trkpt lat="44.03797" lon="3.29006">
        <ele>521</ele>
        <time>2023-09-16T10:43:07Z</time>
      </trkpt>
      <trkpt lat="44.03771" lon="3.29081">
        <ele>515</ele>
        <time>2023-09-16T10:43:17Z</time>
      </trkpt>
      <trkpt lat="44.03765" lon="3.2909">
        <ele>515</ele>
        <time>2023-09-16T10:43:19Z</time>
      </trkpt>
      <trkpt lat="44.0376" lon="3.29095">
        <ele>515</ele>
        <time>2023-09-16T10:43:20Z</time>
      </trkpt>
      <trkpt lat="44.03748" lon="3.29101">
        <ele>514</ele>
        <time>2023-09-16T10:43:22Z</time>
      </trkpt>
      <trkpt lat="44.03735" lon="3.29102">
        <ele>512</ele>
        <time>2023-09-16T10:43:24Z</time>
      </trkpt>
      <trkpt lat="44.03729" lon="3.291">
        <ele>511</ele>
        <time>2023-09-16T10:43:26Z</time>
      </trkpt>
      <trkpt lat="44.03718" lon="3.29089">
        <ele>512</ele>
        <time>2023-09-16T10:43:28Z</time>
      </trkpt>
      <trkpt lat="44.03686" lon="3.2903">
        <ele>515</ele>
        <time>2023-09-16T10:43:37Z</time>
      </trkpt>
      <trkpt lat="44.03666" lon="3.29004">
        <ele>515</ele>
        <time>2023-09-16T10:43:42Z</time>
      </trkpt>
      <trkpt lat="44.03656" lon="3.28993">
        <ele>516</ele>
        <time>2023-09-16T10:43:45Z</time>
      </trkpt>
      <trkpt lat="44.03638" lon="3.2898">
        <ele>517</ele>
        <time>2023-09-16T10:43:48Z</time>
      </trkpt>
      <trkpt lat="44.03569" lon="3.2894">
        <ele>516</ele>
        <time>2023-09-16T10:44:01Z</time>
      </trkpt>
      <trkpt lat="44.03549" lon="3.28933">
        <ele>516</ele>
        <time>2023-09-16T10:44:05Z</time>
      </trkpt>
      <trkpt lat="44.03535" lon="3.28931">
        <ele>516</ele>
        <time>2023-09-16T10:44:08Z</time>
      </trkpt>
      <trkpt lat="44.03478" lon="3.28929">
        <ele>512</ele>
        <time>2023-09-16T10:44:18Z</time>
      </trkpt>
      <trkpt lat="44.03463" lon="3.28927">
        <ele>511</ele>
        <time>2023-09-16T10:44:20Z</time>
      </trkpt>
      <trkpt lat="44.03441" lon="3.28921">
        <ele>509</ele>
        <time>2023-09-16T10:44:24Z</time>
      </trkpt>
      <trkpt lat="44.03418" lon="3.28911">
        <ele>509</ele>
        <time>2023-09-16T10:44:29Z</time>
      </trkpt>
      <trkpt lat="44.03399" lon="3.28897">
        <ele>508</ele>
        <time>2023-09-16T10:44:33Z</time>
      </trkpt>
      <trkpt lat="44.03383" lon="3.28882">
        <ele>508</ele>
        <time>2023-09-16T10:44:36Z</time>
      </trkpt>
      <trkpt lat="44.03368" lon="3.28857">
        <ele>509</ele>
        <time>2023-09-16T10:44:40Z</time>
      </trkpt>
      <trkpt lat="44.03356" lon="3.28832">
        <ele>511</ele>
        <time>2023-09-16T10:44:44Z</time>
      </trkpt>
      <trkpt lat="44.03349" lon="3.28821">
        <ele>511</ele>
        <time>2023-09-16T10:44:46Z</time>
      </trkpt>
      <trkpt lat="44.03304" lon="3.28776">
        <ele>511</ele>
        <time>2023-09-16T10:44:56Z</time>
      </trkpt>
      <trkpt lat="44.03294" lon="3.28769">
        <ele>511</ele>
        <time>2023-09-16T10:44:58Z</time>
      </trkpt>
      <trkpt lat="44.03268" lon="3.28758">
        <ele>510</ele>
        <time>2023-09-16T10:45:03Z</time>
      </trkpt>
      <trkpt lat="44.03238" lon="3.28754">
        <ele>510</ele>
        <time>2023-09-16T10:45:08Z</time>
      </trkpt>
      <trkpt lat="44.03206" lon="3.28757">
        <ele>513</ele>
        <time>2023-09-16T10:45:14Z</time>
      </trkpt>
      <trkpt lat="44.03191" lon="3.28761">
        <ele>513</ele>
        <time>2023-09-16T10:45:16Z</time>
      </trkpt>
      <trkpt lat="44.03164" lon="3.28773">
        <ele>513</ele>
        <time>2023-09-16T10:45:21Z</time>
      </trkpt>
      <trkpt lat="44.03144" lon="3.28789">
        <ele>512</ele>
        <time>2023-09-16T10:45:25Z</time>
      </trkpt>
      <trkpt lat="44.03128" lon="3.2881">
        <ele>509</ele>
        <time>2023-09-16T10:45:29Z</time>
      </trkpt>
      <trkpt lat="44.03105" lon="3.28853">
        <ele>501</ele>
        <time>2023-09-16T10:45:36Z</time>
      </trkpt>
      <trkpt lat="44.03095" lon="3.28867">
        <ele>500</ele>
        <time>2023-09-16T10:45:39Z</time>
      </trkpt>
      <trkpt lat="44.03052" lon="3.2892">
        <ele>499</ele>
        <time>2023-09-16T10:45:49Z</time>
      </trkpt>
      <trkpt lat="44.03015" lon="3.2896">
        <ele>503</ele>
        <time>2023-09-16T10:45:57Z</time>
      </trkpt>
      <trkpt lat="44.02999" lon="3.28982">
        <ele>502</ele>
        <time>2023-09-16T10:46:01Z</time>
      </trkpt>
      <trkpt lat="44.02985" lon="3.29009">
        <ele>502</ele>
        <time>2023-09-16T10:46:06Z</time>
      </trkpt>
      <trkpt lat="44.02961" lon="3.29067">
        <ele>500</ele>
        <time>2023-09-16T10:46:14Z</time>
      </trkpt>
      <trkpt lat="44.02953" lon="3.29102">
        <ele>498</ele>
        <time>2023-09-16T10:46:19Z</time>
      </trkpt>
      <trkpt lat="44.02931" lon="3.2931">
        <ele>491</ele>
        <time>2023-09-16T10:46:46Z</time>
      </trkpt>
      <trkpt lat="44.02931" lon="3.2934">
        <ele>492</ele>
        <time>2023-09-16T10:46:50Z</time>
      </trkpt>
      <trkpt lat="44.02942" lon="3.2941">
        <ele>490</ele>
        <time>2023-09-16T10:46:59Z</time>
      </trkpt>
      <trkpt lat="44.02942" lon="3.29437">
        <ele>489</ele>
        <time>2023-09-16T10:47:02Z</time>
      </trkpt>
      <trkpt lat="44.02939" lon="3.2945">
        <ele>488</ele>
        <time>2023-09-16T10:47:04Z</time>
      </trkpt>
      <trkpt lat="44.02933" lon="3.29472">
        <ele>487</ele>
        <time>2023-09-16T10:47:07Z</time>
      </trkpt>
      <trkpt lat="44.02922" lon="3.29496">
        <ele>487</ele>
        <time>2023-09-16T10:47:11Z</time>
      </trkpt>
      <trkpt lat="44.02894" lon="3.29537">
        <ele>491</ele>
        <time>2023-09-16T10:47:18Z</time>
      </trkpt>
      <trkpt lat="44.02836" lon="3.29605">
        <ele>495</ele>
        <time>2023-09-16T10:47:31Z</time>
      </trkpt>
      <trkpt lat="44.02778" lon="3.29663">
        <ele>491</ele>
        <time>2023-09-16T10:47:44Z</time>
      </trkpt>
      <trkpt lat="44.02666" lon="3.29753">
        <ele>487</ele>
        <time>2023-09-16T10:48:07Z</time>
      </trkpt>
      <trkpt lat="44.02391" lon="3.29999">
        <ele>494</ele>
        <time>2023-09-16T10:49:05Z</time>
      </trkpt>
      <trkpt lat="44.02382" lon="3.30011">
        <ele>494</ele>
        <time>2023-09-16T10:49:07Z</time>
      </trkpt>
      <trkpt lat="44.02371" lon="3.30034">
        <ele>494</ele>
        <time>2023-09-16T10:49:11Z</time>
      </trkpt>
      <trkpt lat="44.02368" lon="3.30051">
        <ele>493</ele>
        <time>2023-09-16T10:49:13Z</time>
      </trkpt>
      <trkpt lat="44.02367" lon="3.30101">
        <ele>491</ele>
        <time>2023-09-16T10:49:20Z</time>
      </trkpt>
      <trkpt lat="44.02363" lon="3.30114">
        <ele>491</ele>
        <time>2023-09-16T10:49:21Z</time>
      </trkpt>
      <trkpt lat="44.02356" lon="3.30126">
        <ele>491</ele>
        <time>2023-09-16T10:49:23Z</time>
      </trkpt>
      <trkpt lat="44.02286" lon="3.30168">
        <ele>496</ele>
        <time>2023-09-16T10:49:37Z</time>
      </trkpt>
      <trkpt lat="44.02283" lon="3.30161">
        <ele>496</ele>
        <time>2023-09-16T10:49:38Z</time>
      </trkpt>
      <trkpt lat="44.02286" lon="3.30168">
        <ele>496</ele>
        <time>2023-09-16T10:49:39Z</time>
      </trkpt>
      <trkpt lat="44.02243" lon="3.30192">
        <ele>498</ele>
        <time>2023-09-16T10:49:47Z</time>
      </trkpt>
      <trkpt lat="44.02231" lon="3.30204">
        <ele>497</ele>
        <time>2023-09-16T10:49:50Z</time>
      </trkpt>
      <trkpt lat="44.02224" lon="3.30214">
        <ele>497</ele>
        <time>2023-09-16T10:49:52Z</time>
      </trkpt>
      <trkpt lat="44.02212" lon="3.30248">
        <ele>496</ele>
        <time>2023-09-16T10:49:57Z</time>
      </trkpt>
      <trkpt lat="44.022" lon="3.30291">
        <ele>492</ele>
        <time>2023-09-16T10:50:02Z</time>
      </trkpt>
      <trkpt lat="44.02196" lon="3.30296">
        <ele>492</ele>
        <time>2023-09-16T10:50:03Z</time>
      </trkpt>
      <trkpt lat="44.02192" lon="3.30298">
        <ele>492</ele>
        <time>2023-09-16T10:50:04Z</time>
      </trkpt>
      <trkpt lat="44.0219" lon="3.30327">
        <ele>489</ele>
        <time>2023-09-16T10:50:08Z</time>
      </trkpt>
      <trkpt lat="44.02194" lon="3.30389">
        <ele>488</ele>
        <time>2023-09-16T10:50:16Z</time>
      </trkpt>
      <trkpt lat="44.02204" lon="3.30405">
        <ele>487</ele>
        <time>2023-09-16T10:50:19Z</time>
      </trkpt>
      <trkpt lat="44.02225" lon="3.30434">
        <ele>485</ele>
        <time>2023-09-16T10:50:24Z</time>
      </trkpt>
      <trkpt lat="44.02231" lon="3.30439">
        <ele>485</ele>
        <time>2023-09-16T10:50:25Z</time>
      </trkpt>
      <trkpt lat="44.02238" lon="3.3044">
        <ele>484</ele>
        <time>2023-09-16T10:50:26Z</time>
      </trkpt>
      <trkpt lat="44.02253" lon="3.30437">
        <ele>483</ele>
        <time>2023-09-16T10:50:29Z</time>
      </trkpt>
      <trkpt lat="44.02304" lon="3.30438">
        <ele>480</ele>
        <time>2023-09-16T10:50:38Z</time>
      </trkpt>
      <trkpt lat="44.02312" lon="3.30441">
        <ele>479</ele>
        <time>2023-09-16T10:50:40Z</time>
      </trkpt>
      <trkpt lat="44.02325" lon="3.30455">
        <ele>479</ele>
        <time>2023-09-16T10:50:43Z</time>
      </trkpt>
      <trkpt lat="44.02329" lon="3.30472">
        <ele>479</ele>
        <time>2023-09-16T10:50:45Z</time>
      </trkpt>
      <trkpt lat="44.02329" lon="3.30481">
        <ele>479</ele>
        <time>2023-09-16T10:50:46Z</time>
      </trkpt>
      <trkpt lat="44.02321" lon="3.30513">
        <ele>481</ele>
        <time>2023-09-16T10:50:50Z</time>
      </trkpt>
      <trkpt lat="44.02309" lon="3.30557">
        <ele>482</ele>
        <time>2023-09-16T10:50:56Z</time>
      </trkpt>
      <trkpt lat="44.0227" lon="3.30629">
        <ele>482</ele>
        <time>2023-09-16T10:51:08Z</time>
      </trkpt>
      <trkpt lat="44.02264" lon="3.30654">
        <ele>483</ele>
        <time>2023-09-16T10:51:11Z</time>
      </trkpt>
      <trkpt lat="44.02258" lon="3.30685">
        <ele>484</ele>
        <time>2023-09-16T10:51:15Z</time>
      </trkpt>
      <trkpt lat="44.02249" lon="3.30699">
        <ele>485</ele>
        <time>2023-09-16T10:51:18Z</time>
      </trkpt>
      <trkpt lat="44.02237" lon="3.30706">
        <ele>485</ele>
        <time>2023-09-16T10:51:20Z</time>
      </trkpt>
      <trkpt lat="44.02195" lon="3.30719">
        <ele>484</ele>
        <time>2023-09-16T10:51:28Z</time>
      </trkpt>
      <trkpt lat="44.02184" lon="3.30725">
        <ele>484</ele>
        <time>2023-09-16T10:51:30Z</time>
      </trkpt>
      <trkpt lat="44.02154" lon="3.30755">
        <ele>485</ele>
        <time>2023-09-16T10:51:36Z</time>
      </trkpt>
      <trkpt lat="44.02007" lon="3.30869">
        <ele>485</ele>
        <time>2023-09-16T10:52:06Z</time>
      </trkpt>
      <trkpt lat="44.0198" lon="3.30883">
        <ele>484</ele>
        <time>2023-09-16T10:52:11Z</time>
      </trkpt>
      <trkpt lat="44.01957" lon="3.3089">
        <ele>484</ele>
        <time>2023-09-16T10:52:16Z</time>
      </trkpt>
      <trkpt lat="44.01926" lon="3.3089">
        <ele>484</ele>
        <time>2023-09-16T10:52:21Z</time>
      </trkpt>
      <trkpt lat="44.01863" lon="3.30885">
        <ele>486</ele>
        <time>2023-09-16T10:52:32Z</time>
      </trkpt>
      <trkpt lat="44.01718" lon="3.3089">
        <ele>494</ele>
        <time>2023-09-16T10:52:58Z</time>
      </trkpt>
      <trkpt lat="44.01676" lon="3.30894">
        <ele>495</ele>
        <time>2023-09-16T10:53:06Z</time>
      </trkpt>
      <trkpt lat="44.01658" lon="3.309">
        <ele>496</ele>
        <time>2023-09-16T10:53:09Z</time>
      </trkpt>
      <trkpt lat="44.0164" lon="3.30915">
        <ele>497</ele>
        <time>2023-09-16T10:53:13Z</time>
      </trkpt>
      <trkpt lat="44.01601" lon="3.30946">
        <ele>496</ele>
        <time>2023-09-16T10:53:21Z</time>
      </trkpt>
      <trkpt lat="44.01586" lon="3.30954">
        <ele>495</ele>
        <time>2023-09-16T10:53:24Z</time>
      </trkpt>
      <trkpt lat="44.01543" lon="3.30963">
        <ele>494</ele>
        <time>2023-09-16T10:53:31Z</time>
      </trkpt>
      <trkpt lat="44.01384" lon="3.30987">
        <ele>490</ele>
        <time>2023-09-16T10:54:00Z</time>
      </trkpt>
      <trkpt lat="44.01344" lon="3.30989">
        <ele>488</ele>
        <time>2023-09-16T10:54:07Z</time>
      </trkpt>
      <trkpt lat="44.01314" lon="3.31001">
        <ele>488</ele>
        <time>2023-09-16T10:54:12Z</time>
      </trkpt>
      <trkpt lat="44.01309" lon="3.30988">
        <ele>487</ele>
        <time>2023-09-16T10:54:14Z</time>
      </trkpt>
      <trkpt lat="44.01298" lon="3.30975">
        <ele>487</ele>
        <time>2023-09-16T10:54:17Z</time>
      </trkpt>
      <trkpt lat="44.01309" lon="3.30988">
        <ele>487</ele>
        <time>2023-09-16T10:54:19Z</time>
      </trkpt>
      <trkpt lat="44.01314" lon="3.31001">
        <ele>488</ele>
        <time>2023-09-16T10:54:21Z</time>
      </trkpt>
      <trkpt lat="44.01302" lon="3.31013">
        <ele>489</ele>
        <time>2023-09-16T10:54:24Z</time>
      </trkpt>
      <trkpt lat="44.01296" lon="3.31022">
        <ele>490</ele>
        <time>2023-09-16T10:54:26Z</time>
      </trkpt>
      <trkpt lat="44.01248" lon="3.31166">
        <ele>494</ele>
        <time>2023-09-16T10:54:46Z</time>
      </trkpt>
      <trkpt lat="44.01241" lon="3.31202">
        <ele>495</ele>
        <time>2023-09-16T10:54:51Z</time>
      </trkpt>
      <trkpt lat="44.0124" lon="3.31233">
        <ele>496</ele>
        <time>2023-09-16T10:54:55Z</time>
      </trkpt>
      <trkpt lat="44.0125" lon="3.31355">
        <ele>500</ele>
        <time>2023-09-16T10:55:10Z</time>
      </trkpt>
      <trkpt lat="44.01261" lon="3.31459">
        <ele>504</ele>
        <time>2023-09-16T10:55:24Z</time>
      </trkpt>
      <trkpt lat="44.01271" lon="3.31504">
        <ele>507</ele>
        <time>2023-09-16T10:55:30Z</time>
      </trkpt>
      <trkpt lat="44.01287" lon="3.31546">
        <ele>508</ele>
        <time>2023-09-16T10:55:36Z</time>
      </trkpt>
      <trkpt lat="44.01327" lon="3.31624">
        <ele>506</ele>
        <time>2023-09-16T10:55:48Z</time>
      </trkpt>
      <trkpt lat="44.01353" lon="3.31676">
        <ele>504</ele>
        <time>2023-09-16T10:55:56Z</time>
      </trkpt>
      <trkpt lat="44.01376" lon="3.3171">
        <ele>503</ele>
        <time>2023-09-16T10:56:02Z</time>
      </trkpt>
      <trkpt lat="44.01399" lon="3.31735">
        <ele>500</ele>
        <time>2023-09-16T10:56:07Z</time>
      </trkpt>
      <trkpt lat="44.01426" lon="3.31758">
        <ele>497</ele>
        <time>2023-09-16T10:56:13Z</time>
      </trkpt>
      <trkpt lat="44.0151" lon="3.31815">
        <ele>497</ele>
        <time>2023-09-16T10:56:30Z</time>
      </trkpt>
      <trkpt lat="44.01527" lon="3.3183">
        <ele>493</ele>
        <time>2023-09-16T10:56:33Z</time>
      </trkpt>
      <trkpt lat="44.01552" lon="3.31864">
        <ele>492</ele>
        <time>2023-09-16T10:56:39Z</time>
      </trkpt>
      <trkpt lat="44.01585" lon="3.31928">
        <ele>490</ele>
        <time>2023-09-16T10:56:50Z</time>
      </trkpt>
      <trkpt lat="44.01632" lon="3.32002">
        <ele>488</ele>
        <time>2023-09-16T10:57:02Z</time>
      </trkpt>
      <trkpt lat="44.01656" lon="3.32026">
        <ele>488</ele>
        <time>2023-09-16T10:57:07Z</time>
      </trkpt>
      <trkpt lat="44.01672" lon="3.32036">
        <ele>488</ele>
        <time>2023-09-16T10:57:11Z</time>
      </trkpt>
      <trkpt lat="44.017" lon="3.32048">
        <ele>489</ele>
        <time>2023-09-16T10:57:16Z</time>
      </trkpt>
      <trkpt lat="44.01815" lon="3.32085">
        <ele>490</ele>
        <time>2023-09-16T10:57:37Z</time>
      </trkpt>
      <trkpt lat="44.01858" lon="3.32107">
        <ele>491</ele>
        <time>2023-09-16T10:57:45Z</time>
      </trkpt>
      <trkpt lat="44.0188" lon="3.3213">
        <ele>492</ele>
        <time>2023-09-16T10:57:50Z</time>
      </trkpt>
      <trkpt lat="44.0192" lon="3.32194">
        <ele>492</ele>
        <time>2023-09-16T10:58:01Z</time>
      </trkpt>
      <trkpt lat="44.01933" lon="3.32208">
        <ele>492</ele>
        <time>2023-09-16T10:58:04Z</time>
      </trkpt>
      <trkpt lat="44.0196" lon="3.32224">
        <ele>492</ele>
        <time>2023-09-16T10:58:09Z</time>
      </trkpt>
      <trkpt lat="44.01969" lon="3.32234">
        <ele>492</ele>
        <time>2023-09-16T10:58:11Z</time>
      </trkpt>
      <trkpt lat="44.01988" lon="3.32267">
        <ele>492</ele>
        <time>2023-09-16T10:58:16Z</time>
      </trkpt>
      <trkpt lat="44.02033" lon="3.32389">
        <ele>493</ele>
        <time>2023-09-16T10:58:34Z</time>
      </trkpt>
      <trkpt lat="44.02049" lon="3.32442">
        <ele>494</ele>
        <time>2023-09-16T10:58:41Z</time>
      </trkpt>
      <trkpt lat="44.0206" lon="3.32465">
        <ele>493</ele>
        <time>2023-09-16T10:58:45Z</time>
      </trkpt>
      <trkpt lat="44.02073" lon="3.32485">
        <ele>493</ele>
        <time>2023-09-16T10:58:48Z</time>
      </trkpt>
      <trkpt lat="44.02145" lon="3.32571">
        <ele>494</ele>
        <time>2023-09-16T10:59:05Z</time>
      </trkpt>
      <trkpt lat="44.0218" lon="3.32604">
        <ele>495</ele>
        <time>2023-09-16T10:59:13Z</time>
      </trkpt>
      <trkpt lat="44.02228" lon="3.32643">
        <ele>500</ele>
        <time>2023-09-16T10:59:22Z</time>
      </trkpt>
      <trkpt lat="44.02247" lon="3.32665">
        <ele>502</ele>
        <time>2023-09-16T10:59:27Z</time>
      </trkpt>
      <trkpt lat="44.02257" lon="3.32681">
        <ele>503</ele>
        <time>2023-09-16T10:59:30Z</time>
      </trkpt>
      <trkpt lat="44.02283" lon="3.32748">
        <ele>506</ele>
        <time>2023-09-16T10:59:39Z</time>
      </trkpt>
      <trkpt lat="44.02311" lon="3.32793">
        <ele>507</ele>
        <time>2023-09-16T10:59:47Z</time>
      </trkpt>
      <trkpt lat="44.02397" lon="3.32892">
        <ele>510</ele>
        <time>2023-09-16T11:00:07Z</time>
      </trkpt>
      <trkpt lat="44.02426" lon="3.32933">
        <ele>511</ele>
        <time>2023-09-16T11:00:14Z</time>
      </trkpt>
      <trkpt lat="44.02443" lon="3.32968">
        <ele>512</ele>
        <time>2023-09-16T11:00:20Z</time>
      </trkpt>
      <trkpt lat="44.0251" lon="3.33148">
        <ele>515</ele>
        <time>2023-09-16T11:00:45Z</time>
      </trkpt>
      <trkpt lat="44.02519" lon="3.33169">
        <ele>515</ele>
        <time>2023-09-16T11:00:49Z</time>
      </trkpt>
      <trkpt lat="44.02521" lon="3.33178">
        <ele>516</ele>
        <time>2023-09-16T11:00:50Z</time>
      </trkpt>
      <trkpt lat="44.02523" lon="3.33196">
        <ele>518</ele>
        <time>2023-09-16T11:00:52Z</time>
      </trkpt>
      <trkpt lat="44.02517" lon="3.33205">
        <ele>517</ele>
        <time>2023-09-16T11:00:54Z</time>
      </trkpt>
      <trkpt lat="44.025" lon="3.33213">
        <ele>515</ele>
        <time>2023-09-16T11:00:57Z</time>
      </trkpt>
      <trkpt lat="44.02486" lon="3.33227">
        <ele>513</ele>
        <time>2023-09-16T11:01:00Z</time>
      </trkpt>
      <trkpt lat="44.02473" lon="3.33251">
        <ele>511</ele>
        <time>2023-09-16T11:01:04Z</time>
      </trkpt>
      <trkpt lat="44.02464" lon="3.33285">
        <ele>510</ele>
        <time>2023-09-16T11:01:08Z</time>
      </trkpt>
      <trkpt lat="44.02461" lon="3.33304">
        <ele>510</ele>
        <time>2023-09-16T11:01:11Z</time>
      </trkpt>
      <trkpt lat="44.02457" lon="3.33347">
        <ele>510</ele>
        <time>2023-09-16T11:01:17Z</time>
      </trkpt>
      <trkpt lat="44.02461" lon="3.33396">
        <ele>512</ele>
        <time>2023-09-16T11:01:23Z</time>
      </trkpt>
      <trkpt lat="44.0246" lon="3.33428">
        <ele>513</ele>
        <time>2023-09-16T11:01:27Z</time>
      </trkpt>
      <trkpt lat="44.02452" lon="3.33449">
        <ele>512</ele>
        <time>2023-09-16T11:01:30Z</time>
      </trkpt>
      <trkpt lat="44.02425" lon="3.33494">
        <ele>506</ele>
        <time>2023-09-16T11:01:37Z</time>
      </trkpt>
      <trkpt lat="44.02402" lon="3.33547">
        <ele>508</ele>
        <time>2023-09-16T11:01:45Z</time>
      </trkpt>
      <trkpt lat="44.02385" lon="3.33578">
        <ele>509</ele>
        <time>2023-09-16T11:01:50Z</time>
      </trkpt>
      <trkpt lat="44.02372" lon="3.33592">
        <ele>510</ele>
        <time>2023-09-16T11:01:53Z</time>
      </trkpt>
      <trkpt lat="44.02311" lon="3.33638">
        <ele>511</ele>
        <time>2023-09-16T11:02:06Z</time>
      </trkpt>
      <trkpt lat="44.02233" lon="3.33687">
        <ele>508</ele>
        <time>2023-09-16T11:02:21Z</time>
      </trkpt>
      <trkpt lat="44.02178" lon="3.33738">
        <ele>509</ele>
        <time>2023-09-16T11:02:33Z</time>
      </trkpt>
      <trkpt lat="44.02165" lon="3.33762">
        <ele>511</ele>
        <time>2023-09-16T11:02:36Z</time>
      </trkpt>
      <trkpt lat="44.02134" lon="3.33841">
        <ele>518</ele>
        <time>2023-09-16T11:02:48Z</time>
      </trkpt>
      <trkpt lat="44.02101" lon="3.3393">
        <ele>522</ele>
        <time>2023-09-16T11:03:01Z</time>
      </trkpt>
      <trkpt lat="44.02095" lon="3.33961">
        <ele>523</ele>
        <time>2023-09-16T11:03:05Z</time>
      </trkpt>
      <trkpt lat="44.02066" lon="3.34072">
        <ele>526</ele>
        <time>2023-09-16T11:03:20Z</time>
      </trkpt>
      <trkpt lat="44.02063" lon="3.34102">
        <ele>526</ele>
        <time>2023-09-16T11:03:24Z</time>
      </trkpt>
      <trkpt lat="44.02065" lon="3.34133">
        <ele>527</ele>
        <time>2023-09-16T11:03:28Z</time>
      </trkpt>
      <trkpt lat="44.02068" lon="3.34154">
        <ele>527</ele>
        <time>2023-09-16T11:03:31Z</time>
      </trkpt>
      <trkpt lat="44.02101" lon="3.34237">
        <ele>523</ele>
        <time>2023-09-16T11:03:43Z</time>
      </trkpt>
      <trkpt lat="44.0212" lon="3.34274">
        <ele>523</ele>
        <time>2023-09-16T11:03:49Z</time>
      </trkpt>
      <trkpt lat="44.02133" lon="3.34307">
        <ele>519</ele>
        <time>2023-09-16T11:03:53Z</time>
      </trkpt>
      <trkpt lat="44.02147" lon="3.34326">
        <ele>518</ele>
        <time>2023-09-16T11:03:57Z</time>
      </trkpt>
      <trkpt lat="44.02187" lon="3.34358">
        <ele>522</ele>
        <time>2023-09-16T11:04:05Z</time>
      </trkpt>
      <trkpt lat="44.02278" lon="3.34464">
        <ele>525</ele>
        <time>2023-09-16T11:04:26Z</time>
      </trkpt>
      <trkpt lat="44.02286" lon="3.34479">
        <ele>524</ele>
        <time>2023-09-16T11:04:29Z</time>
      </trkpt>
      <trkpt lat="44.0229" lon="3.34496">
        <ele>521</ele>
        <time>2023-09-16T11:04:31Z</time>
      </trkpt>
      <trkpt lat="44.02289" lon="3.34546">
        <ele>515</ele>
        <time>2023-09-16T11:04:37Z</time>
      </trkpt>
      <trkpt lat="44.02291" lon="3.34567">
        <ele>514</ele>
        <time>2023-09-16T11:04:40Z</time>
      </trkpt>
      <trkpt lat="44.02296" lon="3.34589">
        <ele>512</ele>
        <time>2023-09-16T11:04:43Z</time>
      </trkpt>
      <trkpt lat="44.02305" lon="3.34615">
        <ele>512</ele>
        <time>2023-09-16T11:04:47Z</time>
      </trkpt>
      <trkpt lat="44.02315" lon="3.34639">
        <ele>512</ele>
        <time>2023-09-16T11:04:50Z</time>
      </trkpt>
      <trkpt lat="44.02388" lon="3.34741">
        <ele>513</ele>
        <time>2023-09-16T11:05:09Z</time>
      </trkpt>
      <trkpt lat="44.02441" lon="3.34795">
        <ele>515</ele>
        <time>2023-09-16T11:05:20Z</time>
      </trkpt>
      <trkpt lat="44.02521" lon="3.3489">
        <ele>518</ele>
        <time>2023-09-16T11:05:39Z</time>
      </trkpt>
      <trkpt lat="44.02563" lon="3.34966">
        <ele>519</ele>
        <time>2023-09-16T11:05:51Z</time>
      </trkpt>
      <trkpt lat="44.02572" lon="3.34978">
        <ele>519</ele>
        <time>2023-09-16T11:05:53Z</time>
      </trkpt>
      <trkpt lat="44.02629" lon="3.35046">
        <ele>523</ele>
        <time>2023-09-16T11:06:07Z</time>
      </trkpt>
      <trkpt lat="44.02635" lon="3.35061">
        <ele>522</ele>
        <time>2023-09-16T11:06:09Z</time>
      </trkpt>
      <trkpt lat="44.02642" lon="3.35064">
        <ele>523</ele>
        <time>2023-09-16T11:06:10Z</time>
      </trkpt>
      <trkpt lat="44.02645" lon="3.35073">
        <ele>522</ele>
        <time>2023-09-16T11:06:12Z</time>
      </trkpt>
      <trkpt lat="44.02647" lon="3.3513">
        <ele>520</ele>
        <time>2023-09-16T11:06:19Z</time>
      </trkpt>
      <trkpt lat="44.02643" lon="3.35136">
        <ele>520</ele>
        <time>2023-09-16T11:06:20Z</time>
      </trkpt>
      <trkpt lat="44.02634" lon="3.35159">
        <ele>519</ele>
        <time>2023-09-16T11:06:23Z</time>
      </trkpt>
      <trkpt lat="44.02639" lon="3.35183">
        <ele>518</ele>
        <time>2023-09-16T11:06:26Z</time>
      </trkpt>
      <trkpt lat="44.02615" lon="3.35267">
        <ele>515</ele>
        <time>2023-09-16T11:06:38Z</time>
      </trkpt>
      <trkpt lat="44.02611" lon="3.35281">
        <ele>515</ele>
        <time>2023-09-16T11:06:40Z</time>
      </trkpt>
      <trkpt lat="44.02604" lon="3.35309">
        <ele>515</ele>
        <time>2023-09-16T11:06:44Z</time>
      </trkpt>
      <trkpt lat="44.02572" lon="3.35497">
        <ele>513</ele>
        <time>2023-09-16T11:07:08Z</time>
      </trkpt>
      <trkpt lat="44.02566" lon="3.35555">
        <ele>514</ele>
        <time>2023-09-16T11:07:16Z</time>
      </trkpt>
      <trkpt lat="44.02571" lon="3.35579">
        <ele>514</ele>
        <time>2023-09-16T11:07:19Z</time>
      </trkpt>
      <trkpt lat="44.02594" lon="3.35637">
        <ele>516</ele>
        <time>2023-09-16T11:07:28Z</time>
      </trkpt>
      <trkpt lat="44.02599" lon="3.35654">
        <ele>517</ele>
        <time>2023-09-16T11:07:30Z</time>
      </trkpt>
      <trkpt lat="44.02601" lon="3.35676">
        <ele>518</ele>
        <time>2023-09-16T11:07:33Z</time>
      </trkpt>
      <trkpt lat="44.02586" lon="3.35676">
        <ele>516</ele>
        <time>2023-09-16T11:07:36Z</time>
      </trkpt>
      <trkpt lat="44.02543" lon="3.35689">
        <ele>515</ele>
        <time>2023-09-16T11:07:43Z</time>
      </trkpt>
      <trkpt lat="44.02518" lon="3.35708">
        <ele>515</ele>
        <time>2023-09-16T11:07:48Z</time>
      </trkpt>
      <trkpt lat="44.02508" lon="3.35727">
        <ele>514</ele>
        <time>2023-09-16T11:07:51Z</time>
      </trkpt>
      <trkpt lat="44.02487" lon="3.35749">
        <ele>515</ele>
        <time>2023-09-16T11:07:56Z</time>
      </trkpt>
      <trkpt lat="44.02485" lon="3.35741">
        <ele>516</ele>
        <time>2023-09-16T11:07:57Z</time>
      </trkpt>
      <trkpt lat="44.0248" lon="3.35735">
        <ele>517</ele>
        <time>2023-09-16T11:07:58Z</time>
      </trkpt>
      <trkpt lat="44.02467" lon="3.35727">
        <ele>519</ele>
        <time>2023-09-16T11:08:01Z</time>
      </trkpt>
      <trkpt lat="44.02463" lon="3.35725">
        <ele>520</ele>
        <time>2023-09-16T11:08:02Z</time>
      </trkpt>
      <trkpt lat="44.0245" lon="3.35717">
        <ele>523</ele>
        <time>2023-09-16T11:08:04Z</time>
      </trkpt>
      <trkpt lat="44.02443" lon="3.35736">
        <ele>521</ele>
        <time>2023-09-16T11:08:07Z</time>
      </trkpt>
      <trkpt lat="44.02432" lon="3.35754">
        <ele>520</ele>
        <time>2023-09-16T11:08:10Z</time>
      </trkpt>
      <trkpt lat="44.02421" lon="3.35764">
        <ele>520</ele>
        <time>2023-09-16T11:08:12Z</time>
      </trkpt>
      <trkpt lat="44.02389" lon="3.35777">
        <ele>529</ele>
        <time>2023-09-16T11:08:18Z</time>
      </trkpt>
      <trkpt lat="44.02383" lon="3.35782">
        <ele>531</ele>
        <time>2023-09-16T11:08:19Z</time>
      </trkpt>
      <trkpt lat="44.02375" lon="3.35791">
        <ele>532</ele>
        <time>2023-09-16T11:08:21Z</time>
      </trkpt>
      <trkpt lat="44.0235" lon="3.35824">
        <ele>531</ele>
        <time>2023-09-16T11:08:27Z</time>
      </trkpt>
      <trkpt lat="44.02342" lon="3.35842">
        <ele>529</ele>
        <time>2023-09-16T11:08:30Z</time>
      </trkpt>
      <trkpt lat="44.0234" lon="3.35849">
        <ele>529</ele>
        <time>2023-09-16T11:08:31Z</time>
      </trkpt>
      <trkpt lat="44.0234" lon="3.3586">
        <ele>528</ele>
        <time>2023-09-16T11:08:32Z</time>
      </trkpt>
      <trkpt lat="44.02342" lon="3.35874">
        <ele>526</ele>
        <time>2023-09-16T11:08:34Z</time>
      </trkpt>
      <trkpt lat="44.02341" lon="3.3589">
        <ele>525</ele>
        <time>2023-09-16T11:08:36Z</time>
      </trkpt>
      <trkpt lat="44.02331" lon="3.35923">
        <ele>523</ele>
        <time>2023-09-16T11:08:41Z</time>
      </trkpt>
      <trkpt lat="44.02325" lon="3.35937">
        <ele>523</ele>
        <time>2023-09-16T11:08:43Z</time>
      </trkpt>
      <trkpt lat="44.02316" lon="3.35952">
        <ele>524</ele>
        <time>2023-09-16T11:08:46Z</time>
      </trkpt>
      <trkpt lat="44.02293" lon="3.35974">
        <ele>525</ele>
        <time>2023-09-16T11:08:51Z</time>
      </trkpt>
      <trkpt lat="44.02266" lon="3.36012">
        <ele>525</ele>
        <time>2023-09-16T11:08:57Z</time>
      </trkpt>
      <trkpt lat="44.02236" lon="3.36039">
        <ele>527</ele>
        <time>2023-09-16T11:09:04Z</time>
      </trkpt>
      <trkpt lat="44.0218" lon="3.36108">
        <ele>527</ele>
        <time>2023-09-16T11:09:17Z</time>
      </trkpt>
      <trkpt lat="44.02114" lon="3.3617">
        <ele>530</ele>
        <time>2023-09-16T11:09:31Z</time>
      </trkpt>
      <trkpt lat="44.0208" lon="3.36205">
        <ele>531</ele>
        <time>2023-09-16T11:09:39Z</time>
      </trkpt>
      <trkpt lat="44.02057" lon="3.36232">
        <ele>532</ele>
        <time>2023-09-16T11:09:44Z</time>
      </trkpt>
      <trkpt lat="44.02062" lon="3.36248">
        <ele>532</ele>
        <time>2023-09-16T11:09:46Z</time>
      </trkpt>
      <trkpt lat="44.02065" lon="3.36273">
        <ele>531</ele>
        <time>2023-09-16T11:09:50Z</time>
      </trkpt>
      <trkpt lat="44.02077" lon="3.36295">
        <ele>531</ele>
        <time>2023-09-16T11:09:53Z</time>
      </trkpt>
      <trkpt lat="44.02087" lon="3.36314">
        <ele>531</ele>
        <time>2023-09-16T11:09:56Z</time>
      </trkpt>
      <trkpt lat="44.02098" lon="3.36337">
        <ele>530</ele>
        <time>2023-09-16T11:10:00Z</time>
      </trkpt>
      <trkpt lat="44.02105" lon="3.36352">
        <ele>530</ele>
        <time>2023-09-16T11:10:02Z</time>
      </trkpt>
      <trkpt lat="44.02119" lon="3.36374">
        <ele>529</ele>
        <time>2023-09-16T11:10:06Z</time>
      </trkpt>
      <trkpt lat="44.02142" lon="3.36404">
        <ele>528</ele>
        <time>2023-09-16T11:10:11Z</time>
      </trkpt>
      <trkpt lat="44.02151" lon="3.36424">
        <ele>528</ele>
        <time>2023-09-16T11:10:14Z</time>
      </trkpt>
      <trkpt lat="44.02159" lon="3.3645">
        <ele>528</ele>
        <time>2023-09-16T11:10:18Z</time>
      </trkpt>
      <trkpt lat="44.02168" lon="3.36519">
        <ele>529</ele>
        <time>2023-09-16T11:10:27Z</time>
      </trkpt>
      <trkpt lat="44.02176" lon="3.36566">
        <ele>530</ele>
        <time>2023-09-16T11:10:33Z</time>
      </trkpt>
      <trkpt lat="44.02183" lon="3.36595">
        <ele>530</ele>
        <time>2023-09-16T11:10:37Z</time>
      </trkpt>
      <trkpt lat="44.02212" lon="3.36702">
        <ele>531</ele>
        <time>2023-09-16T11:10:52Z</time>
      </trkpt>
      <trkpt lat="44.02226" lon="3.36744">
        <ele>530</ele>
        <time>2023-09-16T11:10:58Z</time>
      </trkpt>
      <trkpt lat="44.02228" lon="3.36791">
        <ele>530</ele>
        <time>2023-09-16T11:11:04Z</time>
      </trkpt>
      <trkpt lat="44.02232" lon="3.36862">
        <ele>531</ele>
        <time>2023-09-16T11:11:13Z</time>
      </trkpt>
      <trkpt lat="44.02236" lon="3.3692">
        <ele>534</ele>
        <time>2023-09-16T11:11:20Z</time>
      </trkpt>
      <trkpt lat="44.02241" lon="3.36939">
        <ele>536</ele>
        <time>2023-09-16T11:11:23Z</time>
      </trkpt>
      <trkpt lat="44.02249" lon="3.36957">
        <ele>537</ele>
        <time>2023-09-16T11:11:25Z</time>
      </trkpt>
      <trkpt lat="44.02354" lon="3.37128">
        <ele>536</ele>
        <time>2023-09-16T11:11:54Z</time>
      </trkpt>
      <trkpt lat="44.02414" lon="3.37233">
        <ele>530</ele>
        <time>2023-09-16T11:12:11Z</time>
      </trkpt>
      <trkpt lat="44.02428" lon="3.37264">
        <ele>530</ele>
        <time>2023-09-16T11:12:16Z</time>
      </trkpt>
      <trkpt lat="44.02432" lon="3.37282">
        <ele>531</ele>
        <time>2023-09-16T11:12:18Z</time>
      </trkpt>
      <trkpt lat="44.02433" lon="3.37336">
        <ele>533</ele>
        <time>2023-09-16T11:12:25Z</time>
      </trkpt>
      <trkpt lat="44.02436" lon="3.37352">
        <ele>534</ele>
        <time>2023-09-16T11:12:27Z</time>
      </trkpt>
      <trkpt lat="44.0244" lon="3.37365">
        <ele>535</ele>
        <time>2023-09-16T11:12:29Z</time>
      </trkpt>
      <trkpt lat="44.02452" lon="3.37382">
        <ele>535</ele>
        <time>2023-09-16T11:12:32Z</time>
      </trkpt>
      <trkpt lat="44.02464" lon="3.37393">
        <ele>534</ele>
        <time>2023-09-16T11:12:35Z</time>
      </trkpt>
      <trkpt lat="44.02497" lon="3.37418">
        <ele>531</ele>
        <time>2023-09-16T11:12:42Z</time>
      </trkpt>
      <trkpt lat="44.02517" lon="3.37438">
        <ele>532</ele>
        <time>2023-09-16T11:12:46Z</time>
      </trkpt>
      <trkpt lat="44.0253" lon="3.37461">
        <ele>535</ele>
        <time>2023-09-16T11:12:50Z</time>
      </trkpt>
      <trkpt lat="44.02534" lon="3.37473">
        <ele>536</ele>
        <time>2023-09-16T11:12:51Z</time>
      </trkpt>
      <trkpt lat="44.02538" lon="3.37491">
        <ele>539</ele>
        <time>2023-09-16T11:12:54Z</time>
      </trkpt>
      <trkpt lat="44.02537" lon="3.37501">
        <ele>540</ele>
        <time>2023-09-16T11:12:55Z</time>
      </trkpt>
      <trkpt lat="44.02523" lon="3.37592">
        <ele>550</ele>
        <time>2023-09-16T11:13:07Z</time>
      </trkpt>
      <trkpt lat="44.02527" lon="3.37607">
        <ele>551</ele>
        <time>2023-09-16T11:13:09Z</time>
      </trkpt>
      <trkpt lat="44.02533" lon="3.3761">
        <ele>550</ele>
        <time>2023-09-16T11:13:10Z</time>
      </trkpt>
      <trkpt lat="44.02548" lon="3.3761">
        <ele>549</ele>
        <time>2023-09-16T11:13:13Z</time>
      </trkpt>
      <trkpt lat="44.02558" lon="3.37611">
        <ele>548</ele>
        <time>2023-09-16T11:13:15Z</time>
      </trkpt>
      <trkpt lat="44.02565" lon="3.37621">
        <ele>548</ele>
        <time>2023-09-16T11:13:16Z</time>
      </trkpt>
      <trkpt lat="44.02569" lon="3.37639">
        <ele>549</ele>
        <time>2023-09-16T11:13:19Z</time>
      </trkpt>
      <trkpt lat="44.02573" lon="3.37694">
        <ele>552</ele>
        <time>2023-09-16T11:13:26Z</time>
      </trkpt>
      <trkpt lat="44.02571" lon="3.37727">
        <ele>555</ele>
        <time>2023-09-16T11:13:30Z</time>
      </trkpt>
      <trkpt lat="44.02564" lon="3.37776">
        <ele>557</ele>
        <time>2023-09-16T11:13:37Z</time>
      </trkpt>
      <trkpt lat="44.02562" lon="3.37802">
        <ele>558</ele>
        <time>2023-09-16T11:13:40Z</time>
      </trkpt>
      <trkpt lat="44.02559" lon="3.37873">
        <ele>561</ele>
        <time>2023-09-16T11:13:49Z</time>
      </trkpt>
      <trkpt lat="44.02549" lon="3.37939">
        <ele>563</ele>
        <time>2023-09-16T11:13:58Z</time>
      </trkpt>
      <trkpt lat="44.02548" lon="3.3804">
        <ele>564</ele>
        <time>2023-09-16T11:14:11Z</time>
      </trkpt>
      <trkpt lat="44.02548" lon="3.38068">
        <ele>563</ele>
        <time>2023-09-16T11:14:14Z</time>
      </trkpt>
      <trkpt lat="44.02549" lon="3.38078">
        <ele>562</ele>
        <time>2023-09-16T11:14:15Z</time>
      </trkpt>
      <trkpt lat="44.02556" lon="3.38089">
        <ele>565</ele>
        <time>2023-09-16T11:14:17Z</time>
      </trkpt>
      <trkpt lat="44.02567" lon="3.38096">
        <ele>568</ele>
        <time>2023-09-16T11:14:19Z</time>
      </trkpt>
      <trkpt lat="44.02573" lon="3.38097">
        <ele>570</ele>
        <time>2023-09-16T11:14:21Z</time>
      </trkpt>
      <trkpt lat="44.02583" lon="3.38093">
        <ele>570</ele>
        <time>2023-09-16T11:14:22Z</time>
      </trkpt>
      <trkpt lat="44.02589" lon="3.38086">
        <ele>570</ele>
        <time>2023-09-16T11:14:24Z</time>
      </trkpt>
      <trkpt lat="44.02591" lon="3.3808">
        <ele>571</ele>
        <time>2023-09-16T11:14:25Z</time>
      </trkpt>
      <trkpt lat="44.02593" lon="3.3806">
        <ele>572</ele>
        <time>2023-09-16T11:14:27Z</time>
      </trkpt>
      <trkpt lat="44.02591" lon="3.38048">
        <ele>571</ele>
        <time>2023-09-16T11:14:29Z</time>
      </trkpt>
      <trkpt lat="44.02578" lon="3.38017">
        <ele>569</ele>
        <time>2023-09-16T11:14:33Z</time>
      </trkpt>
      <trkpt lat="44.02576" lon="3.38007">
        <ele>569</ele>
        <time>2023-09-16T11:14:35Z</time>
      </trkpt>
      <trkpt lat="44.02578" lon="3.37989">
        <ele>569</ele>
        <time>2023-09-16T11:14:37Z</time>
      </trkpt>
      <trkpt lat="44.02581" lon="3.37977">
        <ele>569</ele>
        <time>2023-09-16T11:14:39Z</time>
      </trkpt>
      <trkpt lat="44.02603" lon="3.37926">
        <ele>574</ele>
        <time>2023-09-16T11:14:46Z</time>
      </trkpt>
      <trkpt lat="44.02645" lon="3.37836">
        <ele>582</ele>
        <time>2023-09-16T11:15:00Z</time>
      </trkpt>
      <trkpt lat="44.02648" lon="3.37827">
        <ele>582</ele>
        <time>2023-09-16T11:15:01Z</time>
      </trkpt>
      <trkpt lat="44.02651" lon="3.37818">
        <ele>583</ele>
        <time>2023-09-16T11:15:03Z</time>
      </trkpt>
      <trkpt lat="44.02653" lon="3.37797">
        <ele>583</ele>
        <time>2023-09-16T11:15:05Z</time>
      </trkpt>
      <trkpt lat="44.02651" lon="3.37745">
        <ele>579</ele>
        <time>2023-09-16T11:15:12Z</time>
      </trkpt>
      <trkpt lat="44.02656" lon="3.37727">
        <ele>580</ele>
        <time>2023-09-16T11:15:14Z</time>
      </trkpt>
      <trkpt lat="44.02661" lon="3.37719">
        <ele>581</ele>
        <time>2023-09-16T11:15:16Z</time>
      </trkpt>
      <trkpt lat="44.02684" lon="3.37691">
        <ele>587</ele>
        <time>2023-09-16T11:15:21Z</time>
      </trkpt>
      <trkpt lat="44.0269" lon="3.37681">
        <ele>588</ele>
        <time>2023-09-16T11:15:23Z</time>
      </trkpt>
      <trkpt lat="44.02722" lon="3.37622">
        <ele>589</ele>
        <time>2023-09-16T11:15:32Z</time>
      </trkpt>
      <trkpt lat="44.02737" lon="3.37599">
        <ele>590</ele>
        <time>2023-09-16T11:15:36Z</time>
      </trkpt>
      <trkpt lat="44.02756" lon="3.37583">
        <ele>594</ele>
        <time>2023-09-16T11:15:40Z</time>
      </trkpt>
      <trkpt lat="44.02793" lon="3.37563">
        <ele>600</ele>
        <time>2023-09-16T11:15:47Z</time>
      </trkpt>
      <trkpt lat="44.02818" lon="3.37542">
        <ele>602</ele>
        <time>2023-09-16T11:15:52Z</time>
      </trkpt>
      <trkpt lat="44.02843" lon="3.37515">
        <ele>603</ele>
        <time>2023-09-16T11:15:58Z</time>
      </trkpt>
      <trkpt lat="44.02862" lon="3.37501">
        <ele>603</ele>
        <time>2023-09-16T11:16:02Z</time>
      </trkpt>
      <trkpt lat="44.02882" lon="3.37494">
        <ele>605</ele>
        <time>2023-09-16T11:16:06Z</time>
      </trkpt>
      <trkpt lat="44.0295" lon="3.37487">
        <ele>612</ele>
        <time>2023-09-16T11:16:18Z</time>
      </trkpt>
      <trkpt lat="44.02991" lon="3.37477">
        <ele>613</ele>
        <time>2023-09-16T11:16:25Z</time>
      </trkpt>
      <trkpt lat="44.03005" lon="3.3748">
        <ele>614</ele>
        <time>2023-09-16T11:16:28Z</time>
      </trkpt>
      <trkpt lat="44.03033" lon="3.37501">
        <ele>617</ele>
        <time>2023-09-16T11:16:33Z</time>
      </trkpt>
      <trkpt lat="44.03061" lon="3.3753">
        <ele>624</ele>
        <time>2023-09-16T11:16:39Z</time>
      </trkpt>
      <trkpt lat="44.03092" lon="3.37556">
        <ele>628</ele>
        <time>2023-09-16T11:16:46Z</time>
      </trkpt>
      <trkpt lat="44.03126" lon="3.3758">
        <ele>626</ele>
        <time>2023-09-16T11:16:53Z</time>
      </trkpt>
      <trkpt lat="44.03145" lon="3.37596">
        <ele>626</ele>
        <time>2023-09-16T11:16:57Z</time>
      </trkpt>
      <trkpt lat="44.03185" lon="3.37639">
        <ele>630</ele>
        <time>2023-09-16T11:17:06Z</time>
      </trkpt>
      <trkpt lat="44.03291" lon="3.37743">
        <ele>630</ele>
        <time>2023-09-16T11:17:29Z</time>
      </trkpt>
      <trkpt lat="44.03294" lon="3.3775">
        <ele>631</ele>
        <time>2023-09-16T11:17:30Z</time>
      </trkpt>
      <trkpt lat="44.03295" lon="3.37757">
        <ele>631</ele>
        <time>2023-09-16T11:17:31Z</time>
      </trkpt>
      <trkpt lat="44.03294" lon="3.37767">
        <ele>632</ele>
        <time>2023-09-16T11:17:32Z</time>
      </trkpt>
      <trkpt lat="44.03278" lon="3.37829">
        <ele>647</ele>
        <time>2023-09-16T11:17:40Z</time>
      </trkpt>
      <trkpt lat="44.03272" lon="3.37859">
        <ele>651</ele>
        <time>2023-09-16T11:17:44Z</time>
      </trkpt>
      <trkpt lat="44.0327" lon="3.37875">
        <ele>653</ele>
        <time>2023-09-16T11:17:46Z</time>
      </trkpt>
      <trkpt lat="44.0327" lon="3.37893">
        <ele>654</ele>
        <time>2023-09-16T11:17:49Z</time>
      </trkpt>
      <trkpt lat="44.03275" lon="3.37932">
        <ele>656</ele>
        <time>2023-09-16T11:17:54Z</time>
      </trkpt>
      <trkpt lat="44.03282" lon="3.37963">
        <ele>659</ele>
        <time>2023-09-16T11:17:58Z</time>
      </trkpt>
      <trkpt lat="44.03291" lon="3.37982">
        <ele>658</ele>
        <time>2023-09-16T11:18:01Z</time>
      </trkpt>
      <trkpt lat="44.03329" lon="3.38052">
        <ele>660</ele>
        <time>2023-09-16T11:18:12Z</time>
      </trkpt>
      <trkpt lat="44.03346" lon="3.38099">
        <ele>667</ele>
        <time>2023-09-16T11:18:19Z</time>
      </trkpt>
      <trkpt lat="44.03351" lon="3.38106">
        <ele>667</ele>
        <time>2023-09-16T11:18:20Z</time>
      </trkpt>
      <trkpt lat="44.03387" lon="3.3814">
        <ele>662</ele>
        <time>2023-09-16T11:18:28Z</time>
      </trkpt>
      <trkpt lat="44.034" lon="3.38156">
        <ele>661</ele>
        <time>2023-09-16T11:18:31Z</time>
      </trkpt>
      <trkpt lat="44.03418" lon="3.38185">
        <ele>660</ele>
        <time>2023-09-16T11:18:36Z</time>
      </trkpt>
      <trkpt lat="44.03428" lon="3.38212">
        <ele>662</ele>
        <time>2023-09-16T11:18:40Z</time>
      </trkpt>
      <trkpt lat="44.0343" lon="3.38229">
        <ele>666</ele>
        <time>2023-09-16T11:18:42Z</time>
      </trkpt>
      <trkpt lat="44.03431" lon="3.38245">
        <ele>669</ele>
        <time>2023-09-16T11:18:44Z</time>
      </trkpt>
      <trkpt lat="44.0343" lon="3.38284">
        <ele>680</ele>
        <time>2023-09-16T11:18:49Z</time>
      </trkpt>
      <trkpt lat="44.03433" lon="3.38307">
        <ele>685</ele>
        <time>2023-09-16T11:18:52Z</time>
      </trkpt>
      <trkpt lat="44.03443" lon="3.38318">
        <ele>686</ele>
        <time>2023-09-16T11:18:54Z</time>
      </trkpt>
      <trkpt lat="44.0345" lon="3.3832">
        <ele>684</ele>
        <time>2023-09-16T11:18:56Z</time>
      </trkpt>
      <trkpt lat="44.03487" lon="3.38329">
        <ele>677</ele>
        <time>2023-09-16T11:19:02Z</time>
      </trkpt>
      <trkpt lat="44.03534" lon="3.38332">
        <ele>672</ele>
        <time>2023-09-16T11:19:11Z</time>
      </trkpt>
      <trkpt lat="44.03538" lon="3.38336">
        <ele>672</ele>
        <time>2023-09-16T11:19:11Z</time>
      </trkpt>
      <trkpt lat="44.03543" lon="3.38348">
        <ele>672</ele>
        <time>2023-09-16T11:19:13Z</time>
      </trkpt>
      <trkpt lat="44.03543" lon="3.38355">
        <ele>672</ele>
        <time>2023-09-16T11:19:14Z</time>
      </trkpt>
      <trkpt lat="44.03539" lon="3.38364">
        <ele>673</ele>
        <time>2023-09-16T11:19:15Z</time>
      </trkpt>
      <trkpt lat="44.03502" lon="3.3841">
        <ele>685</ele>
        <time>2023-09-16T11:19:24Z</time>
      </trkpt>
      <trkpt lat="44.03498" lon="3.38415">
        <ele>686</ele>
        <time>2023-09-16T11:19:25Z</time>
      </trkpt>
      <trkpt lat="44.03496" lon="3.38423">
        <ele>688</ele>
        <time>2023-09-16T11:19:26Z</time>
      </trkpt>
      <trkpt lat="44.03494" lon="3.38469">
        <ele>689</ele>
        <time>2023-09-16T11:19:32Z</time>
      </trkpt>
      <trkpt lat="44.03494" lon="3.38513">
        <ele>690</ele>
        <time>2023-09-16T11:19:38Z</time>
      </trkpt>
      <trkpt lat="44.03497" lon="3.38628">
        <ele>688</ele>
        <time>2023-09-16T11:19:53Z</time>
      </trkpt>
      <trkpt lat="44.03499" lon="3.38645">
        <ele>687</ele>
        <time>2023-09-16T11:19:55Z</time>
      </trkpt>
      <trkpt lat="44.03509" lon="3.38694">
        <ele>685</ele>
        <time>2023-09-16T11:20:01Z</time>
      </trkpt>
      <trkpt lat="44.03512" lon="3.38715">
        <ele>685</ele>
        <time>2023-09-16T11:20:04Z</time>
      </trkpt>
      <trkpt lat="44.03512" lon="3.38731">
        <ele>686</ele>
        <time>2023-09-16T11:20:06Z</time>
      </trkpt>
      <trkpt lat="44.0351" lon="3.38746">
        <ele>689</ele>
        <time>2023-09-16T11:20:08Z</time>
      </trkpt>
      <trkpt lat="44.03502" lon="3.38777">
        <ele>695</ele>
        <time>2023-09-16T11:20:12Z</time>
      </trkpt>
      <trkpt lat="44.03501" lon="3.38787">
        <ele>697</ele>
        <time>2023-09-16T11:20:14Z</time>
      </trkpt>
      <trkpt lat="44.03502" lon="3.38796">
        <ele>697</ele>
        <time>2023-09-16T11:20:15Z</time>
      </trkpt>
      <trkpt lat="44.03506" lon="3.38809">
        <ele>696</ele>
        <time>2023-09-16T11:20:17Z</time>
      </trkpt>
      <trkpt lat="44.03515" lon="3.38832">
        <ele>694</ele>
        <time>2023-09-16T11:20:20Z</time>
      </trkpt>
      <trkpt lat="44.03543" lon="3.38874">
        <ele>688</ele>
        <time>2023-09-16T11:20:27Z</time>
      </trkpt>
      <trkpt lat="44.03546" lon="3.38885">
        <ele>689</ele>
        <time>2023-09-16T11:20:29Z</time>
      </trkpt>
      <trkpt lat="44.03546" lon="3.38895">
        <ele>690</ele>
        <time>2023-09-16T11:20:30Z</time>
      </trkpt>
      <trkpt lat="44.03531" lon="3.39006">
        <ele>707</ele>
        <time>2023-09-16T11:20:44Z</time>
      </trkpt>
      <trkpt lat="44.03531" lon="3.39018">
        <ele>710</ele>
        <time>2023-09-16T11:20:46Z</time>
      </trkpt>
      <trkpt lat="44.03534" lon="3.39038">
        <ele>714</ele>
        <time>2023-09-16T11:20:49Z</time>
      </trkpt>
      <trkpt lat="44.03541" lon="3.39052">
        <ele>715</ele>
        <time>2023-09-16T11:20:51Z</time>
      </trkpt>
      <trkpt lat="44.0356" lon="3.39073">
        <ele>715</ele>
        <time>2023-09-16T11:20:55Z</time>
      </trkpt>
      <trkpt lat="44.03573" lon="3.39078">
        <ele>712</ele>
        <time>2023-09-16T11:20:57Z</time>
      </trkpt>
      <trkpt lat="44.03585" lon="3.39075">
        <ele>709</ele>
        <time>2023-09-16T11:21:00Z</time>
      </trkpt>
      <trkpt lat="44.0361" lon="3.39055">
        <ele>701</ele>
        <time>2023-09-16T11:21:05Z</time>
      </trkpt>
      <trkpt lat="44.03622" lon="3.39049">
        <ele>699</ele>
        <time>2023-09-16T11:21:07Z</time>
      </trkpt>
      <trkpt lat="44.03644" lon="3.39045">
        <ele>695</ele>
        <time>2023-09-16T11:21:11Z</time>
      </trkpt>
      <trkpt lat="44.03653" lon="3.39046">
        <ele>695</ele>
        <time>2023-09-16T11:21:13Z</time>
      </trkpt>
      <trkpt lat="44.03662" lon="3.39052">
        <ele>696</ele>
        <time>2023-09-16T11:21:14Z</time>
      </trkpt>
      <trkpt lat="44.03682" lon="3.39075">
        <ele>703</ele>
        <time>2023-09-16T11:21:19Z</time>
      </trkpt>
      <trkpt lat="44.03689" lon="3.39081">
        <ele>705</ele>
        <time>2023-09-16T11:21:20Z</time>
      </trkpt>
      <trkpt lat="44.03697" lon="3.39084">
        <ele>705</ele>
        <time>2023-09-16T11:21:22Z</time>
      </trkpt>
      <trkpt lat="44.03714" lon="3.39082">
        <ele>704</ele>
        <time>2023-09-16T11:21:25Z</time>
      </trkpt>
      <trkpt lat="44.03723" lon="3.39078">
        <ele>702</ele>
        <time>2023-09-16T11:21:27Z</time>
      </trkpt>
      <trkpt lat="44.03796" lon="3.39032">
        <ele>690</ele>
        <time>2023-09-16T11:21:41Z</time>
      </trkpt>
      <trkpt lat="44.03827" lon="3.39016">
        <ele>689</ele>
        <time>2023-09-16T11:21:47Z</time>
      </trkpt>
      <trkpt lat="44.03853" lon="3.39005">
        <ele>686</ele>
        <time>2023-09-16T11:21:52Z</time>
      </trkpt>
      <trkpt lat="44.03911" lon="3.38985">
        <ele>680</ele>
        <time>2023-09-16T11:22:02Z</time>
      </trkpt>
      <trkpt lat="44.03944" lon="3.38968">
        <ele>676</ele>
        <time>2023-09-16T11:22:09Z</time>
      </trkpt>
      <trkpt lat="44.03956" lon="3.38968">
        <ele>675</ele>
        <time>2023-09-16T11:22:11Z</time>
      </trkpt>
      <trkpt lat="44.0396" lon="3.38972">
        <ele>676</ele>
        <time>2023-09-16T11:22:12Z</time>
      </trkpt>
      <trkpt lat="44.03964" lon="3.38982">
        <ele>678</ele>
        <time>2023-09-16T11:22:13Z</time>
      </trkpt>
      <trkpt lat="44.03962" lon="3.38995">
        <ele>680</ele>
        <time>2023-09-16T11:22:15Z</time>
      </trkpt>
      <trkpt lat="44.03946" lon="3.39011">
        <ele>682</ele>
        <time>2023-09-16T11:22:18Z</time>
      </trkpt>
      <trkpt lat="44.03929" lon="3.3903">
        <ele>683</ele>
        <time>2023-09-16T11:22:22Z</time>
      </trkpt>
      <trkpt lat="44.03919" lon="3.39047">
        <ele>684</ele>
        <time>2023-09-16T11:22:25Z</time>
      </trkpt>
      <trkpt lat="44.03905" lon="3.39081">
        <ele>688</ele>
        <time>2023-09-16T11:22:30Z</time>
      </trkpt>
      <trkpt lat="44.03893" lon="3.39133">
        <ele>688</ele>
        <time>2023-09-16T11:22:37Z</time>
      </trkpt>
      <trkpt lat="44.03887" lon="3.39165">
        <ele>688</ele>
        <time>2023-09-16T11:22:41Z</time>
      </trkpt>
      <trkpt lat="44.03887" lon="3.3919">
        <ele>689</ele>
        <time>2023-09-16T11:22:44Z</time>
      </trkpt>
      <trkpt lat="44.03889" lon="3.39208">
        <ele>689</ele>
        <time>2023-09-16T11:22:47Z</time>
      </trkpt>
      <trkpt lat="44.03908" lon="3.39289">
        <ele>686</ele>
        <time>2023-09-16T11:22:58Z</time>
      </trkpt>
      <trkpt lat="44.03923" lon="3.39344">
        <ele>683</ele>
        <time>2023-09-16T11:23:05Z</time>
      </trkpt>
      <trkpt lat="44.03931" lon="3.39362">
        <ele>682</ele>
        <time>2023-09-16T11:23:08Z</time>
      </trkpt>
      <trkpt lat="44.03948" lon="3.39388">
        <ele>678</ele>
        <time>2023-09-16T11:23:12Z</time>
      </trkpt>
      <trkpt lat="44.03981" lon="3.3942">
        <ele>669</ele>
        <time>2023-09-16T11:23:19Z</time>
      </trkpt>
      <trkpt lat="44.04034" lon="3.39457">
        <ele>653</ele>
        <time>2023-09-16T11:23:30Z</time>
      </trkpt>
      <trkpt lat="44.04041" lon="3.39468">
        <ele>651</ele>
        <time>2023-09-16T11:23:32Z</time>
      </trkpt>
      <trkpt lat="44.04041" lon="3.39483">
        <ele>651</ele>
        <time>2023-09-16T11:23:34Z</time>
      </trkpt>
      <trkpt lat="44.04037" lon="3.39491">
        <ele>651</ele>
        <time>2023-09-16T11:23:35Z</time>
      </trkpt>
      <trkpt lat="44.04033" lon="3.39496">
        <ele>652</ele>
        <time>2023-09-16T11:23:36Z</time>
      </trkpt>
      <trkpt lat="44.04023" lon="3.39501">
        <ele>652</ele>
        <time>2023-09-16T11:23:38Z</time>
      </trkpt>
      <trkpt lat="44.0393" lon="3.39496">
        <ele>667</ele>
        <time>2023-09-16T11:23:54Z</time>
      </trkpt>
      <trkpt lat="44.03908" lon="3.39499">
        <ele>671</ele>
        <time>2023-09-16T11:23:58Z</time>
      </trkpt>
      <trkpt lat="44.0386" lon="3.3953">
        <ele>671</ele>
        <time>2023-09-16T11:24:08Z</time>
      </trkpt>
      <trkpt lat="44.03845" lon="3.39534">
        <ele>673</ele>
        <time>2023-09-16T11:24:11Z</time>
      </trkpt>
      <trkpt lat="44.03827" lon="3.39534">
        <ele>679</ele>
        <time>2023-09-16T11:24:14Z</time>
      </trkpt>
      <trkpt lat="44.0382" lon="3.39537">
        <ele>681</ele>
        <time>2023-09-16T11:24:15Z</time>
      </trkpt>
      <trkpt lat="44.03815" lon="3.3954">
        <ele>682</ele>
        <time>2023-09-16T11:24:16Z</time>
      </trkpt>
      <trkpt lat="44.03805" lon="3.39553">
        <ele>682</ele>
        <time>2023-09-16T11:24:18Z</time>
      </trkpt>
      <trkpt lat="44.03786" lon="3.3958">
        <ele>681</ele>
        <time>2023-09-16T11:24:23Z</time>
      </trkpt>
      <trkpt lat="44.03765" lon="3.39643">
        <ele>677</ele>
        <time>2023-09-16T11:24:32Z</time>
      </trkpt>
      <trkpt lat="44.03747" lon="3.3967">
        <ele>681</ele>
        <time>2023-09-16T11:24:37Z</time>
      </trkpt>
      <trkpt lat="44.03743" lon="3.39685">
        <ele>682</ele>
        <time>2023-09-16T11:24:39Z</time>
      </trkpt>
      <trkpt lat="44.03743" lon="3.39716">
        <ele>678</ele>
        <time>2023-09-16T11:24:43Z</time>
      </trkpt>
      <trkpt lat="44.03742" lon="3.39749">
        <ele>674</ele>
        <time>2023-09-16T11:24:47Z</time>
      </trkpt>
      <trkpt lat="44.03737" lon="3.39798">
        <ele>675</ele>
        <time>2023-09-16T11:24:53Z</time>
      </trkpt>
      <trkpt lat="44.03731" lon="3.3989">
        <ele>675</ele>
        <time>2023-09-16T11:25:05Z</time>
      </trkpt>
      <trkpt lat="44.03731" lon="3.39913">
        <ele>675</ele>
        <time>2023-09-16T11:25:08Z</time>
      </trkpt>
      <trkpt lat="44.03736" lon="3.39991">
        <ele>670</ele>
        <time>2023-09-16T11:25:18Z</time>
      </trkpt>
      <trkpt lat="44.03734" lon="3.40012">
        <ele>669</ele>
        <time>2023-09-16T11:25:21Z</time>
      </trkpt>
      <trkpt lat="44.03729" lon="3.40026">
        <ele>669</ele>
        <time>2023-09-16T11:25:23Z</time>
      </trkpt>
      <trkpt lat="44.03723" lon="3.40033">
        <ele>671</ele>
        <time>2023-09-16T11:25:24Z</time>
      </trkpt>
      <trkpt lat="44.03685" lon="3.40064">
        <ele>681</ele>
        <time>2023-09-16T11:25:32Z</time>
      </trkpt>
      <trkpt lat="44.03653" lon="3.40097">
        <ele>683</ele>
        <time>2023-09-16T11:25:39Z</time>
      </trkpt>
      <trkpt lat="44.03642" lon="3.40113">
        <ele>683</ele>
        <time>2023-09-16T11:25:42Z</time>
      </trkpt>
      <trkpt lat="44.03635" lon="3.40133">
        <ele>682</ele>
        <time>2023-09-16T11:25:45Z</time>
      </trkpt>
      <trkpt lat="44.03633" lon="3.40155">
        <ele>679</ele>
        <time>2023-09-16T11:25:48Z</time>
      </trkpt>
      <trkpt lat="44.03632" lon="3.40192">
        <ele>677</ele>
        <time>2023-09-16T11:25:52Z</time>
      </trkpt>
      <trkpt lat="44.03631" lon="3.40207">
        <ele>677</ele>
        <time>2023-09-16T11:25:54Z</time>
      </trkpt>
      <trkpt lat="44.03625" lon="3.40234">
        <ele>679</ele>
        <time>2023-09-16T11:25:58Z</time>
      </trkpt>
      <trkpt lat="44.0361" lon="3.40284">
        <ele>681</ele>
        <time>2023-09-16T11:26:05Z</time>
      </trkpt>
      <trkpt lat="44.03597" lon="3.40313">
        <ele>679</ele>
        <time>2023-09-16T11:26:09Z</time>
      </trkpt>
      <trkpt lat="44.03591" lon="3.40322">
        <ele>678</ele>
        <time>2023-09-16T11:26:11Z</time>
      </trkpt>
      <trkpt lat="44.0356" lon="3.40354">
        <ele>683</ele>
        <time>2023-09-16T11:26:18Z</time>
      </trkpt>
      <trkpt lat="44.03461" lon="3.40432">
        <ele>687</ele>
        <time>2023-09-16T11:26:38Z</time>
      </trkpt>
      <trkpt lat="44.03448" lon="3.40436">
        <ele>689</ele>
        <time>2023-09-16T11:26:40Z</time>
      </trkpt>
      <trkpt lat="44.03415" lon="3.40429">
        <ele>693</ele>
        <time>2023-09-16T11:26:46Z</time>
      </trkpt>
      <trkpt lat="44.03407" lon="3.40433">
        <ele>694</ele>
        <time>2023-09-16T11:26:48Z</time>
      </trkpt>
      <trkpt lat="44.03402" lon="3.40439">
        <ele>695</ele>
        <time>2023-09-16T11:26:49Z</time>
      </trkpt>
      <trkpt lat="44.03399" lon="3.40444">
        <ele>695</ele>
        <time>2023-09-16T11:26:50Z</time>
      </trkpt>
      <trkpt lat="44.03398" lon="3.40452">
        <ele>695</ele>
        <time>2023-09-16T11:26:51Z</time>
      </trkpt>
      <trkpt lat="44.03399" lon="3.40467">
        <ele>696</ele>
        <time>2023-09-16T11:26:53Z</time>
      </trkpt>
      <trkpt lat="44.03401" lon="3.40475">
        <ele>695</ele>
        <time>2023-09-16T11:26:54Z</time>
      </trkpt>
      <trkpt lat="44.03406" lon="3.40481">
        <ele>695</ele>
        <time>2023-09-16T11:26:55Z</time>
      </trkpt>
      <trkpt lat="44.03463" lon="3.40531">
        <ele>692</ele>
        <time>2023-09-16T11:27:07Z</time>
      </trkpt>
      <trkpt lat="44.03481" lon="3.40555">
        <ele>693</ele>
        <time>2023-09-16T11:27:11Z</time>
      </trkpt>
      <trkpt lat="44.03489" lon="3.40562">
        <ele>693</ele>
        <time>2023-09-16T11:27:13Z</time>
      </trkpt>
      <trkpt lat="44.03524" lon="3.40584">
        <ele>700</ele>
        <time>2023-09-16T11:27:20Z</time>
      </trkpt>
      <trkpt lat="44.03535" lon="3.40584">
        <ele>703</ele>
        <time>2023-09-16T11:27:22Z</time>
      </trkpt>
      <trkpt lat="44.03545" lon="3.40578">
        <ele>704</ele>
        <time>2023-09-16T11:27:24Z</time>
      </trkpt>
      <trkpt lat="44.03563" lon="3.40543">
        <ele>701</ele>
        <time>2023-09-16T11:27:29Z</time>
      </trkpt>
      <trkpt lat="44.0357" lon="3.40533">
        <ele>700</ele>
        <time>2023-09-16T11:27:31Z</time>
      </trkpt>
      <trkpt lat="44.03592" lon="3.40512">
        <ele>700</ele>
        <time>2023-09-16T11:27:36Z</time>
      </trkpt>
      <trkpt lat="44.03634" lon="3.40482">
        <ele>704</ele>
        <time>2023-09-16T11:27:44Z</time>
      </trkpt>
      <trkpt lat="44.03659" lon="3.4046">
        <ele>704</ele>
        <time>2023-09-16T11:27:50Z</time>
      </trkpt>
      <trkpt lat="44.03673" lon="3.40442">
        <ele>701</ele>
        <time>2023-09-16T11:27:53Z</time>
      </trkpt>
      <trkpt lat="44.03694" lon="3.404">
        <ele>693</ele>
        <time>2023-09-16T11:28:00Z</time>
      </trkpt>
      <trkpt lat="44.03698" lon="3.40394">
        <ele>692</ele>
        <time>2023-09-16T11:28:01Z</time>
      </trkpt>
      <trkpt lat="44.03707" lon="3.4039">
        <ele>693</ele>
        <time>2023-09-16T11:28:02Z</time>
      </trkpt>
      <trkpt lat="44.03712" lon="3.40389">
        <ele>693</ele>
        <time>2023-09-16T11:28:03Z</time>
      </trkpt>
      <trkpt lat="44.03721" lon="3.40397">
        <ele>696</ele>
        <time>2023-09-16T11:28:05Z</time>
      </trkpt>
      <trkpt lat="44.03736" lon="3.40436">
        <ele>707</ele>
        <time>2023-09-16T11:28:11Z</time>
      </trkpt>
      <trkpt lat="44.03746" lon="3.4045">
        <ele>713</ele>
        <time>2023-09-16T11:28:13Z</time>
      </trkpt>
      <trkpt lat="44.03805" lon="3.40501">
        <ele>729</ele>
        <time>2023-09-16T11:28:26Z</time>
      </trkpt>
      <trkpt lat="44.0381" lon="3.40502">
        <ele>729</ele>
        <time>2023-09-16T11:28:26Z</time>
      </trkpt>
      <trkpt lat="44.03821" lon="3.40499">
        <ele>728</ele>
        <time>2023-09-16T11:28:28Z</time>
      </trkpt>
      <trkpt lat="44.03826" lon="3.40495">
        <ele>728</ele>
        <time>2023-09-16T11:28:30Z</time>
      </trkpt>
      <trkpt lat="44.03829" lon="3.40489">
        <ele>726</ele>
        <time>2023-09-16T11:28:30Z</time>
      </trkpt>
      <trkpt lat="44.03841" lon="3.40429">
        <ele>717</ele>
        <time>2023-09-16T11:28:38Z</time>
      </trkpt>
      <trkpt lat="44.03845" lon="3.40421">
        <ele>717</ele>
        <time>2023-09-16T11:28:40Z</time>
      </trkpt>
      <trkpt lat="44.03856" lon="3.40408">
        <ele>718</ele>
        <time>2023-09-16T11:28:42Z</time>
      </trkpt>
      <trkpt lat="44.0388" lon="3.40381">
        <ele>720</ele>
        <time>2023-09-16T11:28:48Z</time>
      </trkpt>
      <trkpt lat="44.03903" lon="3.40358">
        <ele>722</ele>
        <time>2023-09-16T11:28:53Z</time>
      </trkpt>
      <trkpt lat="44.03935" lon="3.40334">
        <ele>724</ele>
        <time>2023-09-16T11:28:59Z</time>
      </trkpt>
      <trkpt lat="44.03955" lon="3.40322">
        <ele>726</ele>
        <time>2023-09-16T11:29:03Z</time>
      </trkpt>
      <trkpt lat="44.03983" lon="3.40311">
        <ele>731</ele>
        <time>2023-09-16T11:29:08Z</time>
      </trkpt>
      <trkpt lat="44.04004" lon="3.40297">
        <ele>732</ele>
        <time>2023-09-16T11:29:12Z</time>
      </trkpt>
      <trkpt lat="44.04043" lon="3.40256">
        <ele>727</ele>
        <time>2023-09-16T11:29:21Z</time>
      </trkpt>
      <trkpt lat="44.04066" lon="3.40239">
        <ele>728</ele>
        <time>2023-09-16T11:29:26Z</time>
      </trkpt>
      <trkpt lat="44.04076" lon="3.40235">
        <ele>730</ele>
        <time>2023-09-16T11:29:28Z</time>
      </trkpt>
      <trkpt lat="44.04092" lon="3.40233">
        <ele>729</ele>
        <time>2023-09-16T11:29:30Z</time>
      </trkpt>
      <trkpt lat="44.04106" lon="3.40239">
        <ele>726</ele>
        <time>2023-09-16T11:29:33Z</time>
      </trkpt>
      <trkpt lat="44.04111" lon="3.40245">
        <ele>726</ele>
        <time>2023-09-16T11:29:34Z</time>
      </trkpt>
      <trkpt lat="44.04115" lon="3.40263">
        <ele>729</ele>
        <time>2023-09-16T11:29:37Z</time>
      </trkpt>
      <trkpt lat="44.04116" lon="3.40304">
        <ele>735</ele>
        <time>2023-09-16T11:29:42Z</time>
      </trkpt>
      <trkpt lat="44.04125" lon="3.40385">
        <ele>747</ele>
        <time>2023-09-16T11:29:52Z</time>
      </trkpt>
      <trkpt lat="44.04127" lon="3.4044">
        <ele>760</ele>
        <time>2023-09-16T11:29:59Z</time>
      </trkpt>
      <trkpt lat="44.04132" lon="3.40469">
        <ele>768</ele>
        <time>2023-09-16T11:30:03Z</time>
      </trkpt>
      <trkpt lat="44.04135" lon="3.40476">
        <ele>770</ele>
        <time>2023-09-16T11:30:04Z</time>
      </trkpt>
      <trkpt lat="44.04144" lon="3.40485">
        <ele>769</ele>
        <time>2023-09-16T11:30:06Z</time>
      </trkpt>
      <trkpt lat="44.04157" lon="3.40488">
        <ele>766</ele>
        <time>2023-09-16T11:30:09Z</time>
      </trkpt>
      <trkpt lat="44.04245" lon="3.40503">
        <ele>762</ele>
        <time>2023-09-16T11:30:24Z</time>
      </trkpt>
      <trkpt lat="44.04265" lon="3.40517">
        <ele>761</ele>
        <time>2023-09-16T11:30:28Z</time>
      </trkpt>
      <trkpt lat="44.04284" lon="3.40536">
        <ele>761</ele>
        <time>2023-09-16T11:30:33Z</time>
      </trkpt>
      <trkpt lat="44.04319" lon="3.40579">
        <ele>763</ele>
        <time>2023-09-16T11:30:41Z</time>
      </trkpt>
      <trkpt lat="44.04326" lon="3.40597">
        <ele>763</ele>
        <time>2023-09-16T11:30:43Z</time>
      </trkpt>
      <trkpt lat="44.04326" lon="3.40603">
        <ele>763</ele>
        <time>2023-09-16T11:30:44Z</time>
      </trkpt>
      <trkpt lat="44.04319" lon="3.40628">
        <ele>769</ele>
        <time>2023-09-16T11:30:48Z</time>
      </trkpt>
      <trkpt lat="44.0431" lon="3.40654">
        <ele>778</ele>
        <time>2023-09-16T11:30:51Z</time>
      </trkpt>
      <trkpt lat="44.04301" lon="3.40669">
        <ele>785</ele>
        <time>2023-09-16T11:30:54Z</time>
      </trkpt>
      <trkpt lat="44.04297" lon="3.40681">
        <ele>788</ele>
        <time>2023-09-16T11:30:56Z</time>
      </trkpt>
      <trkpt lat="44.04295" lon="3.40696">
        <ele>790</ele>
        <time>2023-09-16T11:30:57Z</time>
      </trkpt>
      <trkpt lat="44.04303" lon="3.40751">
        <ele>788</ele>
        <time>2023-09-16T11:31:05Z</time>
      </trkpt>
      <trkpt lat="44.04302" lon="3.40768">
        <ele>792</ele>
        <time>2023-09-16T11:31:07Z</time>
      </trkpt>
      <trkpt lat="44.04297" lon="3.40813">
        <ele>803</ele>
        <time>2023-09-16T11:31:13Z</time>
      </trkpt>
      <trkpt lat="44.043" lon="3.4083">
        <ele>803</ele>
        <time>2023-09-16T11:31:15Z</time>
      </trkpt>
      <trkpt lat="44.0431" lon="3.4085">
        <ele>803</ele>
        <time>2023-09-16T11:31:18Z</time>
      </trkpt>
      <trkpt lat="44.04334" lon="3.40875">
        <ele>797</ele>
        <time>2023-09-16T11:31:23Z</time>
      </trkpt>
      <trkpt lat="44.04347" lon="3.40904">
        <ele>806</ele>
        <time>2023-09-16T11:31:28Z</time>
      </trkpt>
      <trkpt lat="44.04356" lon="3.4091">
        <ele>806</ele>
        <time>2023-09-16T11:31:29Z</time>
      </trkpt>
      <trkpt lat="44.04374" lon="3.40911">
        <ele>803</ele>
        <time>2023-09-16T11:31:33Z</time>
      </trkpt>
      <trkpt lat="44.04382" lon="3.40909">
        <ele>801</ele>
        <time>2023-09-16T11:31:34Z</time>
      </trkpt>
      <trkpt lat="44.04414" lon="3.40888">
        <ele>787</ele>
        <time>2023-09-16T11:31:40Z</time>
      </trkpt>
      <trkpt lat="44.0442" lon="3.40888">
        <ele>785</ele>
        <time>2023-09-16T11:31:42Z</time>
      </trkpt>
      <trkpt lat="44.04429" lon="3.40896">
        <ele>784</ele>
        <time>2023-09-16T11:31:43Z</time>
      </trkpt>
      <trkpt lat="44.0443" lon="3.40913">
        <ele>789</ele>
        <time>2023-09-16T11:31:46Z</time>
      </trkpt>
      <trkpt lat="44.04428" lon="3.40934">
        <ele>798</ele>
        <time>2023-09-16T11:31:48Z</time>
      </trkpt>
      <trkpt lat="44.0443" lon="3.40948">
        <ele>802</ele>
        <time>2023-09-16T11:31:50Z</time>
      </trkpt>
      <trkpt lat="44.04452" lon="3.41013">
        <ele>812</ele>
        <time>2023-09-16T11:31:59Z</time>
      </trkpt>
      <trkpt lat="44.04458" lon="3.41047">
        <ele>821</ele>
        <time>2023-09-16T11:32:04Z</time>
      </trkpt>
      <trkpt lat="44.04463" lon="3.41064">
        <ele>824</ele>
        <time>2023-09-16T11:32:06Z</time>
      </trkpt>
      <trkpt lat="44.04467" lon="3.41074">
        <ele>826</ele>
        <time>2023-09-16T11:32:08Z</time>
      </trkpt>
      <trkpt lat="44.04472" lon="3.41081">
        <ele>826</ele>
        <time>2023-09-16T11:32:09Z</time>
      </trkpt>
      <trkpt lat="44.04489" lon="3.41091">
        <ele>822</ele>
        <time>2023-09-16T11:32:12Z</time>
      </trkpt>
      <trkpt lat="44.0451" lon="3.41099">
        <ele>819</ele>
        <time>2023-09-16T11:32:16Z</time>
      </trkpt>
      <trkpt lat="44.04531" lon="3.41114">
        <ele>821</ele>
        <time>2023-09-16T11:32:20Z</time>
      </trkpt>
      <trkpt lat="44.04548" lon="3.41114">
        <ele>818</ele>
        <time>2023-09-16T11:32:23Z</time>
      </trkpt>
      <trkpt lat="44.04571" lon="3.41105">
        <ele>809</ele>
        <time>2023-09-16T11:32:28Z</time>
      </trkpt>
      <trkpt lat="44.04578" lon="3.41105">
        <ele>808</ele>
        <time>2023-09-16T11:32:29Z</time>
      </trkpt>
      <trkpt lat="44.04583" lon="3.41107">
        <ele>808</ele>
        <time>2023-09-16T11:32:30Z</time>
      </trkpt>
      <trkpt lat="44.04588" lon="3.41111">
        <ele>807</ele>
        <time>2023-09-16T11:32:31Z</time>
      </trkpt>
      <trkpt lat="44.046" lon="3.41159">
        <ele>818</ele>
        <time>2023-09-16T11:32:37Z</time>
      </trkpt>
      <trkpt lat="44.04605" lon="3.412">
        <ele>827</ele>
        <time>2023-09-16T11:32:43Z</time>
      </trkpt>
      <trkpt lat="44.04608" lon="3.41261">
        <ele>845</ele>
        <time>2023-09-16T11:32:50Z</time>
      </trkpt>
      <trkpt lat="44.04613" lon="3.41278">
        <ele>849</ele>
        <time>2023-09-16T11:32:53Z</time>
      </trkpt>
      <trkpt lat="44.04618" lon="3.41284">
        <ele>849</ele>
        <time>2023-09-16T11:32:54Z</time>
      </trkpt>
      <trkpt lat="44.04695" lon="3.41317">
        <ele>840</ele>
        <time>2023-09-16T11:33:08Z</time>
      </trkpt>
      <trkpt lat="44.04705" lon="3.41317">
        <ele>838</ele>
        <time>2023-09-16T11:33:10Z</time>
      </trkpt>
      <trkpt lat="44.04736" lon="3.41311">
        <ele>831</ele>
        <time>2023-09-16T11:33:16Z</time>
      </trkpt>
      <trkpt lat="44.04752" lon="3.41313">
        <ele>829</ele>
        <time>2023-09-16T11:33:18Z</time>
      </trkpt>
      <trkpt lat="44.04765" lon="3.41323">
        <ele>829</ele>
        <time>2023-09-16T11:33:21Z</time>
      </trkpt>
      <trkpt lat="44.04772" lon="3.41342">
        <ele>832</ele>
        <time>2023-09-16T11:33:24Z</time>
      </trkpt>
      <trkpt lat="44.04775" lon="3.41353">
        <ele>833</ele>
        <time>2023-09-16T11:33:25Z</time>
      </trkpt>
      <trkpt lat="44.04776" lon="3.41382">
        <ele>838</ele>
        <time>2023-09-16T11:33:29Z</time>
      </trkpt>
      <trkpt lat="44.04772" lon="3.41424">
        <ele>848</ele>
        <time>2023-09-16T11:33:34Z</time>
      </trkpt>
      <trkpt lat="44.04772" lon="3.41439">
        <ele>850</ele>
        <time>2023-09-16T11:33:36Z</time>
      </trkpt>
      <trkpt lat="44.04777" lon="3.41476">
        <ele>852</ele>
        <time>2023-09-16T11:33:41Z</time>
      </trkpt>
      <trkpt lat="44.04783" lon="3.41503">
        <ele>851</ele>
        <time>2023-09-16T11:33:45Z</time>
      </trkpt>
      <trkpt lat="44.04784" lon="3.41515">
        <ele>851</ele>
        <time>2023-09-16T11:33:46Z</time>
      </trkpt>
      <trkpt lat="44.0478" lon="3.41556">
        <ele>851</ele>
        <time>2023-09-16T11:33:52Z</time>
      </trkpt>
      <trkpt lat="44.04772" lon="3.41601">
        <ele>853</ele>
        <time>2023-09-16T11:33:58Z</time>
      </trkpt>
      <trkpt lat="44.04764" lon="3.41634">
        <ele>854</ele>
        <time>2023-09-16T11:34:02Z</time>
      </trkpt>
      <trkpt lat="44.04757" lon="3.41649">
        <ele>855</ele>
        <time>2023-09-16T11:34:04Z</time>
      </trkpt>
      <trkpt lat="44.04743" lon="3.41673">
        <ele>858</ele>
        <time>2023-09-16T11:34:08Z</time>
      </trkpt>
      <trkpt lat="44.04716" lon="3.41705">
        <ele>865</ele>
        <time>2023-09-16T11:34:15Z</time>
      </trkpt>
      <trkpt lat="44.04713" lon="3.41716">
        <ele>865</ele>
        <time>2023-09-16T11:34:16Z</time>
      </trkpt>
      <trkpt lat="44.04712" lon="3.41732">
        <ele>864</ele>
        <time>2023-09-16T11:34:18Z</time>
      </trkpt>
      <trkpt lat="44.0472" lon="3.41778">
        <ele>857</ele>
        <time>2023-09-16T11:34:24Z</time>
      </trkpt>
      <trkpt lat="44.0472" lon="3.4179">
        <ele>856</ele>
        <time>2023-09-16T11:34:26Z</time>
      </trkpt>
      <trkpt lat="44.04716" lon="3.41803">
        <ele>857</ele>
        <time>2023-09-16T11:34:27Z</time>
      </trkpt>
      <trkpt lat="44.04705" lon="3.41821">
        <ele>859</ele>
        <time>2023-09-16T11:34:31Z</time>
      </trkpt>
      <trkpt lat="44.04696" lon="3.41838">
        <ele>861</ele>
        <time>2023-09-16T11:34:33Z</time>
      </trkpt>
      <trkpt lat="44.04682" lon="3.41897">
        <ele>864</ele>
        <time>2023-09-16T11:34:41Z</time>
      </trkpt>
      <trkpt lat="44.04675" lon="3.41917">
        <ele>864</ele>
        <time>2023-09-16T11:34:44Z</time>
      </trkpt>
      <trkpt lat="44.04663" lon="3.4194">
        <ele>868</ele>
        <time>2023-09-16T11:34:48Z</time>
      </trkpt>
      <trkpt lat="44.04657" lon="3.41955">
        <ele>870</ele>
        <time>2023-09-16T11:34:50Z</time>
      </trkpt>
      <trkpt lat="44.04642" lon="3.42004">
        <ele>874</ele>
        <time>2023-09-16T11:34:57Z</time>
      </trkpt>
      <trkpt lat="44.0464" lon="3.42013">
        <ele>875</ele>
        <time>2023-09-16T11:34:58Z</time>
      </trkpt>
      <trkpt lat="44.04641" lon="3.42034">
        <ele>875</ele>
        <time>2023-09-16T11:35:01Z</time>
      </trkpt>
      <trkpt lat="44.04643" lon="3.42045">
        <ele>874</ele>
        <time>2023-09-16T11:35:02Z</time>
      </trkpt>
      <trkpt lat="44.04646" lon="3.42051">
        <ele>873</ele>
        <time>2023-09-16T11:35:03Z</time>
      </trkpt>
      <trkpt lat="44.04656" lon="3.42056">
        <ele>871</ele>
        <time>2023-09-16T11:35:05Z</time>
      </trkpt>
      <trkpt lat="44.04663" lon="3.42055">
        <ele>869</ele>
        <time>2023-09-16T11:35:06Z</time>
      </trkpt>
      <trkpt lat="44.04668" lon="3.42053">
        <ele>869</ele>
        <time>2023-09-16T11:35:07Z</time>
      </trkpt>
      <trkpt lat="44.0468" lon="3.42037">
        <ele>870</ele>
        <time>2023-09-16T11:35:10Z</time>
      </trkpt>
      <trkpt lat="44.04695" lon="3.42004">
        <ele>868</ele>
        <time>2023-09-16T11:35:15Z</time>
      </trkpt>
      <trkpt lat="44.04701" lon="3.41995">
        <ele>868</ele>
        <time>2023-09-16T11:35:17Z</time>
      </trkpt>
      <trkpt lat="44.04708" lon="3.41989">
        <ele>867</ele>
        <time>2023-09-16T11:35:18Z</time>
      </trkpt>
      <trkpt lat="44.04722" lon="3.41981">
        <ele>866</ele>
        <time>2023-09-16T11:35:21Z</time>
      </trkpt>
      <trkpt lat="44.04745" lon="3.41971">
        <ele>864</ele>
        <time>2023-09-16T11:35:25Z</time>
      </trkpt>
      <trkpt lat="44.04761" lon="3.41966">
        <ele>864</ele>
        <time>2023-09-16T11:35:28Z</time>
      </trkpt>
      <trkpt lat="44.04775" lon="3.41965">
        <ele>865</ele>
        <time>2023-09-16T11:35:30Z</time>
      </trkpt>
      <trkpt lat="44.0483" lon="3.4197">
        <ele>873</ele>
        <time>2023-09-16T11:35:40Z</time>
      </trkpt>
      <trkpt lat="44.0486" lon="3.41961">
        <ele>877</ele>
        <time>2023-09-16T11:35:46Z</time>
      </trkpt>
      <trkpt lat="44.04868" lon="3.41954">
        <ele>878</ele>
        <time>2023-09-16T11:35:47Z</time>
      </trkpt>
      <trkpt lat="44.04873" lon="3.41943">
        <ele>877</ele>
        <time>2023-09-16T11:35:49Z</time>
      </trkpt>
      <trkpt lat="44.04878" lon="3.41928">
        <ele>876</ele>
        <time>2023-09-16T11:35:51Z</time>
      </trkpt>
      <trkpt lat="44.04885" lon="3.41871">
        <ele>869</ele>
        <time>2023-09-16T11:35:58Z</time>
      </trkpt>
      <trkpt lat="44.04892" lon="3.41846">
        <ele>868</ele>
        <time>2023-09-16T11:36:02Z</time>
      </trkpt>
      <trkpt lat="44.04897" lon="3.41835">
        <ele>868</ele>
        <time>2023-09-16T11:36:04Z</time>
      </trkpt>
      <trkpt lat="44.04913" lon="3.41816">
        <ele>871</ele>
        <time>2023-09-16T11:36:07Z</time>
      </trkpt>
      <trkpt lat="44.04945" lon="3.41788">
        <ele>875</ele>
        <time>2023-09-16T11:36:14Z</time>
      </trkpt>
      <trkpt lat="44.04952" lon="3.41779">
        <ele>876</ele>
        <time>2023-09-16T11:36:16Z</time>
      </trkpt>
      <trkpt lat="44.04969" lon="3.41753">
        <ele>878</ele>
        <time>2023-09-16T11:36:20Z</time>
      </trkpt>
      <trkpt lat="44.04992" lon="3.4173">
        <ele>882</ele>
        <time>2023-09-16T11:36:25Z</time>
      </trkpt>
      <trkpt lat="44.05065" lon="3.41637">
        <ele>883</ele>
        <time>2023-09-16T11:36:43Z</time>
      </trkpt>
      <trkpt lat="44.05109" lon="3.41595">
        <ele>886</ele>
        <time>2023-09-16T11:36:52Z</time>
      </trkpt>
      <trkpt lat="44.05114" lon="3.41593">
        <ele>887</ele>
        <time>2023-09-16T11:36:53Z</time>
      </trkpt>
      <trkpt lat="44.0512" lon="3.41597">
        <ele>887</ele>
        <time>2023-09-16T11:36:55Z</time>
      </trkpt>
      <trkpt lat="44.05121" lon="3.41602">
        <ele>887</ele>
        <time>2023-09-16T11:36:55Z</time>
      </trkpt>
      <trkpt lat="44.0512" lon="3.41609">
        <ele>887</ele>
        <time>2023-09-16T11:36:56Z</time>
      </trkpt>
      <trkpt lat="44.05116" lon="3.41622">
        <ele>886</ele>
        <time>2023-09-16T11:36:58Z</time>
      </trkpt>
      <trkpt lat="44.05092" lon="3.41663">
        <ele>887</ele>
        <time>2023-09-16T11:37:05Z</time>
      </trkpt>
      <trkpt lat="44.05057" lon="3.41711">
        <ele>884</ele>
        <time>2023-09-16T11:37:13Z</time>
      </trkpt>
      <trkpt lat="44.05051" lon="3.41725">
        <ele>884</ele>
        <time>2023-09-16T11:37:15Z</time>
      </trkpt>
      <trkpt lat="44.0505" lon="3.41734">
        <ele>884</ele>
        <time>2023-09-16T11:37:17Z</time>
      </trkpt>
      <trkpt lat="44.05055" lon="3.41755">
        <ele>884</ele>
        <time>2023-09-16T11:37:19Z</time>
      </trkpt>
      <trkpt lat="44.05056" lon="3.41767">
        <ele>883</ele>
        <time>2023-09-16T11:37:21Z</time>
      </trkpt>
      <trkpt lat="44.05054" lon="3.41791">
        <ele>882</ele>
        <time>2023-09-16T11:37:24Z</time>
      </trkpt>
      <trkpt lat="44.05039" lon="3.41864">
        <ele>883</ele>
        <time>2023-09-16T11:37:34Z</time>
      </trkpt>
      <trkpt lat="44.05025" lon="3.41912">
        <ele>885</ele>
        <time>2023-09-16T11:37:40Z</time>
      </trkpt>
      <trkpt lat="44.05008" lon="3.41956">
        <ele>892</ele>
        <time>2023-09-16T11:37:47Z</time>
      </trkpt>
      <trkpt lat="44.05005" lon="3.41965">
        <ele>893</ele>
        <time>2023-09-16T11:37:48Z</time>
      </trkpt>
      <trkpt lat="44.05005" lon="3.41973">
        <ele>893</ele>
        <time>2023-09-16T11:37:49Z</time>
      </trkpt>
      <trkpt lat="44.05006" lon="3.4198">
        <ele>893</ele>
        <time>2023-09-16T11:37:50Z</time>
      </trkpt>
      <trkpt lat="44.05011" lon="3.41987">
        <ele>893</ele>
        <time>2023-09-16T11:37:51Z</time>
      </trkpt>
      <trkpt lat="44.05023" lon="3.41992">
        <ele>892</ele>
        <time>2023-09-16T11:37:54Z</time>
      </trkpt>
      <trkpt lat="44.05074" lon="3.41996">
        <ele>886</ele>
        <time>2023-09-16T11:38:03Z</time>
      </trkpt>
      <trkpt lat="44.05114" lon="3.42004">
        <ele>881</ele>
        <time>2023-09-16T11:38:10Z</time>
      </trkpt>
      <trkpt lat="44.05131" lon="3.42015">
        <ele>882</ele>
        <time>2023-09-16T11:38:13Z</time>
      </trkpt>
      <trkpt lat="44.05155" lon="3.42036">
        <ele>885</ele>
        <time>2023-09-16T11:38:18Z</time>
      </trkpt>
      <trkpt lat="44.05164" lon="3.42041">
        <ele>885</ele>
        <time>2023-09-16T11:38:20Z</time>
      </trkpt>
      <trkpt lat="44.05173" lon="3.42043">
        <ele>885</ele>
        <time>2023-09-16T11:38:22Z</time>
      </trkpt>
      <trkpt lat="44.05181" lon="3.42041">
        <ele>883</ele>
        <time>2023-09-16T11:38:23Z</time>
      </trkpt>
      <trkpt lat="44.05211" lon="3.4203">
        <ele>876</ele>
        <time>2023-09-16T11:38:28Z</time>
      </trkpt>
      <trkpt lat="44.05237" lon="3.42029">
        <ele>873</ele>
        <time>2023-09-16T11:38:33Z</time>
      </trkpt>
      <trkpt lat="44.05252" lon="3.42036">
        <ele>873</ele>
        <time>2023-09-16T11:38:36Z</time>
      </trkpt>
      <trkpt lat="44.05265" lon="3.42047">
        <ele>874</ele>
        <time>2023-09-16T11:38:39Z</time>
      </trkpt>
      <trkpt lat="44.05289" lon="3.42074">
        <ele>878</ele>
        <time>2023-09-16T11:38:44Z</time>
      </trkpt>
      <trkpt lat="44.05297" lon="3.42081">
        <ele>878</ele>
        <time>2023-09-16T11:38:46Z</time>
      </trkpt>
      <trkpt lat="44.05314" lon="3.42087">
        <ele>876</ele>
        <time>2023-09-16T11:38:49Z</time>
      </trkpt>
      <trkpt lat="44.05324" lon="3.42087">
        <ele>874</ele>
        <time>2023-09-16T11:38:51Z</time>
      </trkpt>
      <trkpt lat="44.05354" lon="3.42082">
        <ele>868</ele>
        <time>2023-09-16T11:38:56Z</time>
      </trkpt>
      <trkpt lat="44.0537" lon="3.42083">
        <ele>866</ele>
        <time>2023-09-16T11:38:59Z</time>
      </trkpt>
      <trkpt lat="44.05382" lon="3.42091">
        <ele>866</ele>
        <time>2023-09-16T11:39:01Z</time>
      </trkpt>
      <trkpt lat="44.05391" lon="3.42103">
        <ele>866</ele>
        <time>2023-09-16T11:39:04Z</time>
      </trkpt>
      <trkpt lat="44.05396" lon="3.42112">
        <ele>866</ele>
        <time>2023-09-16T11:39:05Z</time>
      </trkpt>
      <trkpt lat="44.05397" lon="3.42126">
        <ele>867</ele>
        <time>2023-09-16T11:39:07Z</time>
      </trkpt>
      <trkpt lat="44.05395" lon="3.42133">
        <ele>868</ele>
        <time>2023-09-16T11:39:08Z</time>
      </trkpt>
      <trkpt lat="44.05382" lon="3.42155">
        <ele>874</ele>
        <time>2023-09-16T11:39:11Z</time>
      </trkpt>
      <trkpt lat="44.0538" lon="3.42168">
        <ele>876</ele>
        <time>2023-09-16T11:39:13Z</time>
      </trkpt>
      <trkpt lat="44.05384" lon="3.42177">
        <ele>874</ele>
        <time>2023-09-16T11:39:14Z</time>
      </trkpt>
      <trkpt lat="44.05404" lon="3.42199">
        <ele>868</ele>
        <time>2023-09-16T11:39:19Z</time>
      </trkpt>
      <trkpt lat="44.0541" lon="3.42215">
        <ele>866</ele>
        <time>2023-09-16T11:39:21Z</time>
      </trkpt>
      <trkpt lat="44.05413" lon="3.42227">
        <ele>864</ele>
        <time>2023-09-16T11:39:23Z</time>
      </trkpt>
      <trkpt lat="44.05415" lon="3.42244">
        <ele>863</ele>
        <time>2023-09-16T11:39:25Z</time>
      </trkpt>
      <trkpt lat="44.05409" lon="3.42297">
        <ele>861</ele>
        <time>2023-09-16T11:39:32Z</time>
      </trkpt>
      <trkpt lat="44.05407" lon="3.42309">
        <ele>861</ele>
        <time>2023-09-16T11:39:34Z</time>
      </trkpt>
      <trkpt lat="44.05396" lon="3.42334">
        <ele>863</ele>
        <time>2023-09-16T11:39:37Z</time>
      </trkpt>
      <trkpt lat="44.05387" lon="3.42346">
        <ele>865</ele>
        <time>2023-09-16T11:39:40Z</time>
      </trkpt>
      <trkpt lat="44.05384" lon="3.42355">
        <ele>866</ele>
        <time>2023-09-16T11:39:41Z</time>
      </trkpt>
      <trkpt lat="44.05384" lon="3.42364">
        <ele>865</ele>
        <time>2023-09-16T11:39:42Z</time>
      </trkpt>
      <trkpt lat="44.05388" lon="3.4238">
        <ele>863</ele>
        <time>2023-09-16T11:39:44Z</time>
      </trkpt>
      <trkpt lat="44.05408" lon="3.42422">
        <ele>855</ele>
        <time>2023-09-16T11:39:51Z</time>
      </trkpt>
      <trkpt lat="44.0541" lon="3.4243">
        <ele>853</ele>
        <time>2023-09-16T11:39:52Z</time>
      </trkpt>
      <trkpt lat="44.05406" lon="3.42454">
        <ele>851</ele>
        <time>2023-09-16T11:39:55Z</time>
      </trkpt>
      <trkpt lat="44.05401" lon="3.4246">
        <ele>852</ele>
        <time>2023-09-16T11:39:56Z</time>
      </trkpt>
      <trkpt lat="44.05392" lon="3.42464">
        <ele>853</ele>
        <time>2023-09-16T11:39:58Z</time>
      </trkpt>
      <trkpt lat="44.05385" lon="3.42469">
        <ele>855</ele>
        <time>2023-09-16T11:39:59Z</time>
      </trkpt>
      <trkpt lat="44.05377" lon="3.4248">
        <ele>855</ele>
        <time>2023-09-16T11:40:01Z</time>
      </trkpt>
      <trkpt lat="44.05369" lon="3.42494">
        <ele>855</ele>
        <time>2023-09-16T11:40:03Z</time>
      </trkpt>
      <trkpt lat="44.05355" lon="3.42529">
        <ele>852</ele>
        <time>2023-09-16T11:40:08Z</time>
      </trkpt>
      <trkpt lat="44.05302" lon="3.42609">
        <ele>848</ele>
        <time>2023-09-16T11:40:22Z</time>
      </trkpt>
      <trkpt lat="44.05297" lon="3.42613">
        <ele>848</ele>
        <time>2023-09-16T11:40:23Z</time>
      </trkpt>
      <trkpt lat="44.05279" lon="3.42614">
        <ele>850</ele>
        <time>2023-09-16T11:40:27Z</time>
      </trkpt>
      <trkpt lat="44.05272" lon="3.42617">
        <ele>851</ele>
        <time>2023-09-16T11:40:28Z</time>
      </trkpt>
      <trkpt lat="44.0525" lon="3.42642">
        <ele>850</ele>
        <time>2023-09-16T11:40:33Z</time>
      </trkpt>
      <trkpt lat="44.05246" lon="3.42651">
        <ele>849</ele>
        <time>2023-09-16T11:40:34Z</time>
      </trkpt>
      <trkpt lat="44.05245" lon="3.42659">
        <ele>848</ele>
        <time>2023-09-16T11:40:35Z</time>
      </trkpt>
      <trkpt lat="44.05252" lon="3.42689">
        <ele>844</ele>
        <time>2023-09-16T11:40:39Z</time>
      </trkpt>
      <trkpt lat="44.05252" lon="3.42697">
        <ele>843</ele>
        <time>2023-09-16T11:40:40Z</time>
      </trkpt>
      <trkpt lat="44.0525" lon="3.42706">
        <ele>842</ele>
        <time>2023-09-16T11:40:42Z</time>
      </trkpt>
      <trkpt lat="44.05243" lon="3.42721">
        <ele>840</ele>
        <time>2023-09-16T11:40:44Z</time>
      </trkpt>
      <trkpt lat="44.05237" lon="3.42726">
        <ele>840</ele>
        <time>2023-09-16T11:40:45Z</time>
      </trkpt>
      <trkpt lat="44.05231" lon="3.42728">
        <ele>840</ele>
        <time>2023-09-16T11:40:46Z</time>
      </trkpt>
      <trkpt lat="44.05218" lon="3.42728">
        <ele>841</ele>
        <time>2023-09-16T11:40:49Z</time>
      </trkpt>
      <trkpt lat="44.05213" lon="3.42724">
        <ele>842</ele>
        <time>2023-09-16T11:40:50Z</time>
      </trkpt>
      <trkpt lat="44.05204" lon="3.42702">
        <ele>846</ele>
        <time>2023-09-16T11:40:53Z</time>
      </trkpt>
      <trkpt lat="44.05198" lon="3.42692">
        <ele>848</ele>
        <time>2023-09-16T11:40:54Z</time>
      </trkpt>
      <trkpt lat="44.0519" lon="3.42685">
        <ele>849</ele>
        <time>2023-09-16T11:40:56Z</time>
      </trkpt>
      <trkpt lat="44.05181" lon="3.42682">
        <ele>850</ele>
        <time>2023-09-16T11:40:58Z</time>
      </trkpt>
      <trkpt lat="44.05176" lon="3.42685">
        <ele>850</ele>
        <time>2023-09-16T11:40:59Z</time>
      </trkpt>
      <trkpt lat="44.05172" lon="3.4269">
        <ele>850</ele>
        <time>2023-09-16T11:41:00Z</time>
      </trkpt>
      <trkpt lat="44.05165" lon="3.42707">
        <ele>849</ele>
        <time>2023-09-16T11:41:02Z</time>
      </trkpt>
      <trkpt lat="44.05163" lon="3.42732">
        <ele>847</ele>
        <time>2023-09-16T11:41:05Z</time>
      </trkpt>
      <trkpt lat="44.05164" lon="3.42758">
        <ele>843</ele>
        <time>2023-09-16T11:41:09Z</time>
      </trkpt>
      <trkpt lat="44.05165" lon="3.42771">
        <ele>842</ele>
        <time>2023-09-16T11:41:10Z</time>
      </trkpt>
      <trkpt lat="44.05162" lon="3.4281">
        <ele>840</ele>
        <time>2023-09-16T11:41:15Z</time>
      </trkpt>
      <trkpt lat="44.05167" lon="3.4284">
        <ele>836</ele>
        <time>2023-09-16T11:41:19Z</time>
      </trkpt>
      <trkpt lat="44.05168" lon="3.4286">
        <ele>834</ele>
        <time>2023-09-16T11:41:22Z</time>
      </trkpt>
      <trkpt lat="44.05167" lon="3.42898">
        <ele>832</ele>
        <time>2023-09-16T11:41:27Z</time>
      </trkpt>
      <trkpt lat="44.05162" lon="3.42926">
        <ele>831</ele>
        <time>2023-09-16T11:41:31Z</time>
      </trkpt>
      <trkpt lat="44.05157" lon="3.42935">
        <ele>832</ele>
        <time>2023-09-16T11:41:32Z</time>
      </trkpt>
      <trkpt lat="44.05133" lon="3.4296">
        <ele>836</ele>
        <time>2023-09-16T11:41:37Z</time>
      </trkpt>
      <trkpt lat="44.05113" lon="3.42996">
        <ele>839</ele>
        <time>2023-09-16T11:41:43Z</time>
      </trkpt>
      <trkpt lat="44.05123" lon="3.43067">
        <ele>833</ele>
        <time>2023-09-16T11:41:52Z</time>
      </trkpt>
      <trkpt lat="44.05125" lon="3.43078">
        <ele>832</ele>
        <time>2023-09-16T11:41:54Z</time>
      </trkpt>
      <trkpt lat="44.05132" lon="3.4309">
        <ele>829</ele>
        <time>2023-09-16T11:41:56Z</time>
      </trkpt>
      <trkpt lat="44.05135" lon="3.43099">
        <ele>828</ele>
        <time>2023-09-16T11:41:57Z</time>
      </trkpt>
      <trkpt lat="44.05136" lon="3.43131">
        <ele>827</ele>
        <time>2023-09-16T11:42:01Z</time>
      </trkpt>
      <trkpt lat="44.05135" lon="3.43147">
        <ele>827</ele>
        <time>2023-09-16T11:42:03Z</time>
      </trkpt>
      <trkpt lat="44.05127" lon="3.43183">
        <ele>829</ele>
        <time>2023-09-16T11:42:08Z</time>
      </trkpt>
      <trkpt lat="44.05105" lon="3.43224">
        <ele>832</ele>
        <time>2023-09-16T11:42:15Z</time>
      </trkpt>
      <trkpt lat="44.05084" lon="3.4328">
        <ele>836</ele>
        <time>2023-09-16T11:42:23Z</time>
      </trkpt>
      <trkpt lat="44.05083" lon="3.43286">
        <ele>837</ele>
        <time>2023-09-16T11:42:23Z</time>
      </trkpt>
      <trkpt lat="44.05086" lon="3.43292">
        <ele>837</ele>
        <time>2023-09-16T11:42:24Z</time>
      </trkpt>
      <trkpt lat="44.05096" lon="3.43297">
        <ele>836</ele>
        <time>2023-09-16T11:42:26Z</time>
      </trkpt>
      <trkpt lat="44.05115" lon="3.43289">
        <ele>832</ele>
        <time>2023-09-16T11:42:30Z</time>
      </trkpt>
      <trkpt lat="44.0516" lon="3.43278">
        <ele>825</ele>
        <time>2023-09-16T11:42:38Z</time>
      </trkpt>
      <trkpt lat="44.05169" lon="3.43283">
        <ele>824</ele>
        <time>2023-09-16T11:42:40Z</time>
      </trkpt>
      <trkpt lat="44.05179" lon="3.43318">
        <ele>826</ele>
        <time>2023-09-16T11:42:44Z</time>
      </trkpt>
      <trkpt lat="44.05183" lon="3.43346">
        <ele>829</ele>
        <time>2023-09-16T11:42:48Z</time>
      </trkpt>
      <trkpt lat="44.05177" lon="3.43371">
        <ele>831</ele>
        <time>2023-09-16T11:42:51Z</time>
      </trkpt>
      <trkpt lat="44.05176" lon="3.43394">
        <ele>834</ele>
        <time>2023-09-16T11:42:54Z</time>
      </trkpt>
      <trkpt lat="44.05178" lon="3.43406">
        <ele>836</ele>
        <time>2023-09-16T11:42:56Z</time>
      </trkpt>
      <trkpt lat="44.05181" lon="3.43412">
        <ele>836</ele>
        <time>2023-09-16T11:42:57Z</time>
      </trkpt>
      <trkpt lat="44.05186" lon="3.43416">
        <ele>837</ele>
        <time>2023-09-16T11:42:58Z</time>
      </trkpt>
      <trkpt lat="44.052" lon="3.43418">
        <ele>839</ele>
        <time>2023-09-16T11:43:00Z</time>
      </trkpt>
      <trkpt lat="44.05205" lon="3.43417">
        <ele>839</ele>
        <time>2023-09-16T11:43:01Z</time>
      </trkpt>
      <trkpt lat="44.05209" lon="3.43414">
        <ele>839</ele>
        <time>2023-09-16T11:43:02Z</time>
      </trkpt>
      <trkpt lat="44.05225" lon="3.43392">
        <ele>836</ele>
        <time>2023-09-16T11:43:06Z</time>
      </trkpt>
      <trkpt lat="44.05264" lon="3.43343">
        <ele>833</ele>
        <time>2023-09-16T11:43:16Z</time>
      </trkpt>
      <trkpt lat="44.05288" lon="3.43321">
        <ele>836</ele>
        <time>2023-09-16T11:43:21Z</time>
      </trkpt>
      <trkpt lat="44.05292" lon="3.43314">
        <ele>836</ele>
        <time>2023-09-16T11:43:22Z</time>
      </trkpt>
      <trkpt lat="44.05298" lon="3.43292">
        <ele>834</ele>
        <time>2023-09-16T11:43:25Z</time>
      </trkpt>
      <trkpt lat="44.05325" lon="3.43255">
        <ele>834</ele>
        <time>2023-09-16T11:43:32Z</time>
      </trkpt>
      <trkpt lat="44.05342" lon="3.43219">
        <ele>833</ele>
        <time>2023-09-16T11:43:37Z</time>
      </trkpt>
      <trkpt lat="44.0535" lon="3.43205">
        <ele>833</ele>
        <time>2023-09-16T11:43:39Z</time>
      </trkpt>
      <trkpt lat="44.0537" lon="3.43186">
        <ele>835</ele>
        <time>2023-09-16T11:43:44Z</time>
      </trkpt>
      <trkpt lat="44.05398" lon="3.43163">
        <ele>836</ele>
        <time>2023-09-16T11:43:49Z</time>
      </trkpt>
      <trkpt lat="44.05418" lon="3.43152">
        <ele>838</ele>
        <time>2023-09-16T11:43:53Z</time>
      </trkpt>
      <trkpt lat="44.05444" lon="3.43143">
        <ele>839</ele>
        <time>2023-09-16T11:43:58Z</time>
      </trkpt>
      <trkpt lat="44.05454" lon="3.43135">
        <ele>839</ele>
        <time>2023-09-16T11:44:00Z</time>
      </trkpt>
      <trkpt lat="44.05465" lon="3.4312">
        <ele>836</ele>
        <time>2023-09-16T11:44:03Z</time>
      </trkpt>
      <trkpt lat="44.0548" lon="3.43115">
        <ele>837</ele>
        <time>2023-09-16T11:44:06Z</time>
      </trkpt>
      <trkpt lat="44.0549" lon="3.43114">
        <ele>839</ele>
        <time>2023-09-16T11:44:07Z</time>
      </trkpt>
      <trkpt lat="44.05516" lon="3.43116">
        <ele>844</ele>
        <time>2023-09-16T11:44:12Z</time>
      </trkpt>
      <trkpt lat="44.0553" lon="3.43113">
        <ele>846</ele>
        <time>2023-09-16T11:44:15Z</time>
      </trkpt>
      <trkpt lat="44.05542" lon="3.43104">
        <ele>846</ele>
        <time>2023-09-16T11:44:17Z</time>
      </trkpt>
      <trkpt lat="44.05573" lon="3.4307">
        <ele>846</ele>
        <time>2023-09-16T11:44:24Z</time>
      </trkpt>
      <trkpt lat="44.05583" lon="3.43055">
        <ele>847</ele>
        <time>2023-09-16T11:44:27Z</time>
      </trkpt>
      <trkpt lat="44.05587" lon="3.43044">
        <ele>847</ele>
        <time>2023-09-16T11:44:28Z</time>
      </trkpt>
      <trkpt lat="44.05589" lon="3.43035">
        <ele>847</ele>
        <time>2023-09-16T11:44:29Z</time>
      </trkpt>
      <trkpt lat="44.0559" lon="3.43007">
        <ele>845</ele>
        <time>2023-09-16T11:44:33Z</time>
      </trkpt>
      <trkpt lat="44.05585" lon="3.4296">
        <ele>840</ele>
        <time>2023-09-16T11:44:39Z</time>
      </trkpt>
      <trkpt lat="44.05587" lon="3.42954">
        <ele>840</ele>
        <time>2023-09-16T11:44:40Z</time>
      </trkpt>
      <trkpt lat="44.05613" lon="3.4292">
        <ele>842</ele>
        <time>2023-09-16T11:44:46Z</time>
      </trkpt>
      <trkpt lat="44.05624" lon="3.42911">
        <ele>843</ele>
        <time>2023-09-16T11:44:48Z</time>
      </trkpt>
      <trkpt lat="44.05665" lon="3.42888">
        <ele>843</ele>
        <time>2023-09-16T11:44:56Z</time>
      </trkpt>
      <trkpt lat="44.05697" lon="3.42882">
        <ele>843</ele>
        <time>2023-09-16T11:45:02Z</time>
      </trkpt>
      <trkpt lat="44.05718" lon="3.42882">
        <ele>843</ele>
        <time>2023-09-16T11:45:06Z</time>
      </trkpt>
      <trkpt lat="44.05745" lon="3.42879">
        <ele>842</ele>
        <time>2023-09-16T11:45:11Z</time>
      </trkpt>
      <trkpt lat="44.05752" lon="3.42883">
        <ele>844</ele>
        <time>2023-09-16T11:45:12Z</time>
      </trkpt>
      <trkpt lat="44.05762" lon="3.42897">
        <ele>849</ele>
        <time>2023-09-16T11:45:15Z</time>
      </trkpt>
      <trkpt lat="44.05771" lon="3.42919">
        <ele>857</ele>
        <time>2023-09-16T11:45:18Z</time>
      </trkpt>
      <trkpt lat="44.05778" lon="3.42926">
        <ele>859</ele>
        <time>2023-09-16T11:45:19Z</time>
      </trkpt>
      <trkpt lat="44.05779" lon="3.42933">
        <ele>861</ele>
        <time>2023-09-16T11:45:20Z</time>
      </trkpt>
      <trkpt lat="44.05775" lon="3.42937">
        <ele>862</ele>
        <time>2023-09-16T11:45:21Z</time>
      </trkpt>
      <trkpt lat="44.05771" lon="3.42935">
        <ele>861</ele>
        <time>2023-09-16T11:45:22Z</time>
      </trkpt>
      <trkpt lat="44.05763" lon="3.42916">
        <ele>855</ele>
        <time>2023-09-16T11:45:25Z</time>
      </trkpt>
      <trkpt lat="44.05753" lon="3.42901">
        <ele>850</ele>
        <time>2023-09-16T11:45:27Z</time>
      </trkpt>
      <trkpt lat="44.05744" lon="3.42896">
        <ele>848</ele>
        <time>2023-09-16T11:45:29Z</time>
      </trkpt>
      <trkpt lat="44.05738" lon="3.42896">
        <ele>848</ele>
        <time>2023-09-16T11:45:30Z</time>
      </trkpt>
      <trkpt lat="44.05697" lon="3.42909">
        <ele>851</ele>
        <time>2023-09-16T11:45:38Z</time>
      </trkpt>
      <trkpt lat="44.05738" lon="3.42896">
        <ele>848</ele>
        <time>2023-09-16T11:45:45Z</time>
      </trkpt>
      <trkpt lat="44.05744" lon="3.42896">
        <ele>848</ele>
        <time>2023-09-16T11:45:46Z</time>
      </trkpt>
      <trkpt lat="44.05753" lon="3.42901">
        <ele>850</ele>
        <time>2023-09-16T11:45:48Z</time>
      </trkpt>
      <trkpt lat="44.05763" lon="3.42916">
        <ele>855</ele>
        <time>2023-09-16T11:45:50Z</time>
      </trkpt>
      <trkpt lat="44.05771" lon="3.42935">
        <ele>861</ele>
        <time>2023-09-16T11:45:53Z</time>
      </trkpt>
      <trkpt lat="44.05775" lon="3.42937">
        <ele>862</ele>
        <time>2023-09-16T11:45:54Z</time>
      </trkpt>
      <trkpt lat="44.05779" lon="3.42933">
        <ele>861</ele>
        <time>2023-09-16T11:45:55Z</time>
      </trkpt>
      <trkpt lat="44.05778" lon="3.42926">
        <ele>859</ele>
        <time>2023-09-16T11:45:56Z</time>
      </trkpt>
      <trkpt lat="44.05771" lon="3.42919">
        <ele>857</ele>
        <time>2023-09-16T11:45:57Z</time>
      </trkpt>
      <trkpt lat="44.05762" lon="3.42897">
        <ele>849</ele>
        <time>2023-09-16T11:46:01Z</time>
      </trkpt>
      <trkpt lat="44.05752" lon="3.42883">
        <ele>844</ele>
        <time>2023-09-16T11:46:03Z</time>
      </trkpt>
      <trkpt lat="44.05745" lon="3.42879">
        <ele>842</ele>
        <time>2023-09-16T11:46:04Z</time>
      </trkpt>
      <trkpt lat="44.05718" lon="3.42882">
        <ele>843</ele>
        <time>2023-09-16T11:46:09Z</time>
      </trkpt>
      <trkpt lat="44.05697" lon="3.42882">
        <ele>843</ele>
        <time>2023-09-16T11:46:13Z</time>
      </trkpt>
      <trkpt lat="44.05737" lon="3.42871">
        <ele>840</ele>
        <time>2023-09-16T11:46:20Z</time>
      </trkpt>
      <trkpt lat="44.05745" lon="3.42871">
        <ele>840</ele>
        <time>2023-09-16T11:46:22Z</time>
      </trkpt>
      <trkpt lat="44.05754" lon="3.42874">
        <ele>841</ele>
        <time>2023-09-16T11:46:23Z</time>
      </trkpt>
      <trkpt lat="44.05772" lon="3.42888">
        <ele>847</ele>
        <time>2023-09-16T11:46:27Z</time>
      </trkpt>
      <trkpt lat="44.0578" lon="3.42891">
        <ele>848</ele>
        <time>2023-09-16T11:46:28Z</time>
      </trkpt>
      <trkpt lat="44.05796" lon="3.42889">
        <ele>848</ele>
        <time>2023-09-16T11:46:31Z</time>
      </trkpt>
      <trkpt lat="44.058" lon="3.42886">
        <ele>848</ele>
        <time>2023-09-16T11:46:32Z</time>
      </trkpt>
      <trkpt lat="44.05833" lon="3.42834">
        <ele>834</ele>
        <time>2023-09-16T11:46:41Z</time>
      </trkpt>
      <trkpt lat="44.05843" lon="3.42823">
        <ele>834</ele>
        <time>2023-09-16T11:46:43Z</time>
      </trkpt>
      <trkpt lat="44.05847" lon="3.42823">
        <ele>835</ele>
        <time>2023-09-16T11:46:44Z</time>
      </trkpt>
      <trkpt lat="44.0587" lon="3.42833">
        <ele>841</ele>
        <time>2023-09-16T11:46:48Z</time>
      </trkpt>
      <trkpt lat="44.0588" lon="3.42835">
        <ele>843</ele>
        <time>2023-09-16T11:46:50Z</time>
      </trkpt>
      <trkpt lat="44.05914" lon="3.42826">
        <ele>847</ele>
        <time>2023-09-16T11:46:56Z</time>
      </trkpt>
      <trkpt lat="44.05923" lon="3.42817">
        <ele>847</ele>
        <time>2023-09-16T11:46:58Z</time>
      </trkpt>
      <trkpt lat="44.05929" lon="3.42806">
        <ele>847</ele>
        <time>2023-09-16T11:47:00Z</time>
      </trkpt>
      <trkpt lat="44.05932" lon="3.42788">
        <ele>844</ele>
        <time>2023-09-16T11:47:02Z</time>
      </trkpt>
      <trkpt lat="44.05929" lon="3.42766">
        <ele>840</ele>
        <time>2023-09-16T11:47:05Z</time>
      </trkpt>
      <trkpt lat="44.05931" lon="3.42756">
        <ele>839</ele>
        <time>2023-09-16T11:47:07Z</time>
      </trkpt>
      <trkpt lat="44.05934" lon="3.42749">
        <ele>838</ele>
        <time>2023-09-16T11:47:08Z</time>
      </trkpt>
      <trkpt lat="44.05939" lon="3.42741">
        <ele>838</ele>
        <time>2023-09-16T11:47:09Z</time>
      </trkpt>
      <trkpt lat="44.05977" lon="3.42716">
        <ele>842</ele>
        <time>2023-09-16T11:47:16Z</time>
      </trkpt>
      <trkpt lat="44.05992" lon="3.42713">
        <ele>843</ele>
        <time>2023-09-16T11:47:19Z</time>
      </trkpt>
      <trkpt lat="44.05998" lon="3.42715">
        <ele>845</ele>
        <time>2023-09-16T11:47:20Z</time>
      </trkpt>
      <trkpt lat="44.06004" lon="3.4272">
        <ele>846</ele>
        <time>2023-09-16T11:47:21Z</time>
      </trkpt>
      <trkpt lat="44.06025" lon="3.42748">
        <ele>851</ele>
        <time>2023-09-16T11:47:27Z</time>
      </trkpt>
      <trkpt lat="44.0603" lon="3.42751">
        <ele>852</ele>
        <time>2023-09-16T11:47:28Z</time>
      </trkpt>
      <trkpt lat="44.06042" lon="3.42751">
        <ele>853</ele>
        <time>2023-09-16T11:47:30Z</time>
      </trkpt>
      <trkpt lat="44.06048" lon="3.42747">
        <ele>852</ele>
        <time>2023-09-16T11:47:31Z</time>
      </trkpt>
      <trkpt lat="44.06083" lon="3.42706">
        <ele>847</ele>
        <time>2023-09-16T11:47:39Z</time>
      </trkpt>
      <trkpt lat="44.06091" lon="3.427">
        <ele>846</ele>
        <time>2023-09-16T11:47:41Z</time>
      </trkpt>
      <trkpt lat="44.06106" lon="3.42695">
        <ele>846</ele>
        <time>2023-09-16T11:47:43Z</time>
      </trkpt>
      <trkpt lat="44.06131" lon="3.42701">
        <ele>847</ele>
        <time>2023-09-16T11:47:48Z</time>
      </trkpt>
      <trkpt lat="44.06166" lon="3.42715">
        <ele>849</ele>
        <time>2023-09-16T11:47:54Z</time>
      </trkpt>
      <trkpt lat="44.06177" lon="3.42722">
        <ele>846</ele>
        <time>2023-09-16T11:47:57Z</time>
      </trkpt>
      <trkpt lat="44.06182" lon="3.42735">
        <ele>846</ele>
        <time>2023-09-16T11:47:58Z</time>
      </trkpt>
      <trkpt lat="44.06183" lon="3.42745">
        <ele>847</ele>
        <time>2023-09-16T11:48:00Z</time>
      </trkpt>
      <trkpt lat="44.06182" lon="3.42755">
        <ele>848</ele>
        <time>2023-09-16T11:48:01Z</time>
      </trkpt>
      <trkpt lat="44.06176" lon="3.42766">
        <ele>851</ele>
        <time>2023-09-16T11:48:03Z</time>
      </trkpt>
      <trkpt lat="44.06157" lon="3.42786">
        <ele>855</ele>
        <time>2023-09-16T11:48:07Z</time>
      </trkpt>
      <trkpt lat="44.06153" lon="3.42793">
        <ele>856</ele>
        <time>2023-09-16T11:48:08Z</time>
      </trkpt>
      <trkpt lat="44.06152" lon="3.42808">
        <ele>858</ele>
        <time>2023-09-16T11:48:10Z</time>
      </trkpt>
      <trkpt lat="44.06153" lon="3.42818">
        <ele>859</ele>
        <time>2023-09-16T11:48:11Z</time>
      </trkpt>
      <trkpt lat="44.06157" lon="3.42826">
        <ele>859</ele>
        <time>2023-09-16T11:48:13Z</time>
      </trkpt>
      <trkpt lat="44.06176" lon="3.4284">
        <ele>856</ele>
        <time>2023-09-16T11:48:16Z</time>
      </trkpt>
      <trkpt lat="44.06184" lon="3.42848">
        <ele>855</ele>
        <time>2023-09-16T11:48:18Z</time>
      </trkpt>
      <trkpt lat="44.06194" lon="3.42868">
        <ele>855</ele>
        <time>2023-09-16T11:48:21Z</time>
      </trkpt>
      <trkpt lat="44.06216" lon="3.42951">
        <ele>857</ele>
        <time>2023-09-16T11:48:33Z</time>
      </trkpt>
      <trkpt lat="44.06221" lon="3.42978">
        <ele>856</ele>
        <time>2023-09-16T11:48:36Z</time>
      </trkpt>
      <trkpt lat="44.06222" lon="3.43002">
        <ele>856</ele>
        <time>2023-09-16T11:48:39Z</time>
      </trkpt>
      <trkpt lat="44.06221" lon="3.43016">
        <ele>856</ele>
        <time>2023-09-16T11:48:41Z</time>
      </trkpt>
      <trkpt lat="44.06217" lon="3.43037">
        <ele>856</ele>
        <time>2023-09-16T11:48:44Z</time>
      </trkpt>
      <trkpt lat="44.06176" lon="3.43128">
        <ele>864</ele>
        <time>2023-09-16T11:48:58Z</time>
      </trkpt>
      <trkpt lat="44.06149" lon="3.4317">
        <ele>867</ele>
        <time>2023-09-16T11:49:05Z</time>
      </trkpt>
      <trkpt lat="44.06144" lon="3.43183">
        <ele>868</ele>
        <time>2023-09-16T11:49:07Z</time>
      </trkpt>
      <trkpt lat="44.06137" lon="3.43191">
        <ele>870</ele>
        <time>2023-09-16T11:49:08Z</time>
      </trkpt>
      <trkpt lat="44.06114" lon="3.43208">
        <ele>876</ele>
        <time>2023-09-16T11:49:13Z</time>
      </trkpt>
      <trkpt lat="44.06106" lon="3.43219">
        <ele>878</ele>
        <time>2023-09-16T11:49:15Z</time>
      </trkpt>
      <trkpt lat="44.06103" lon="3.43228">
        <ele>878</ele>
        <time>2023-09-16T11:49:16Z</time>
      </trkpt>
      <trkpt lat="44.06102" lon="3.43247">
        <ele>876</ele>
        <time>2023-09-16T11:49:19Z</time>
      </trkpt>
      <trkpt lat="44.06104" lon="3.43258">
        <ele>876</ele>
        <time>2023-09-16T11:49:20Z</time>
      </trkpt>
      <trkpt lat="44.06108" lon="3.43266">
        <ele>876</ele>
        <time>2023-09-16T11:49:21Z</time>
      </trkpt>
      <trkpt lat="44.06115" lon="3.43271">
        <ele>876</ele>
        <time>2023-09-16T11:49:23Z</time>
      </trkpt>
      <trkpt lat="44.0615" lon="3.43283">
        <ele>871</ele>
        <time>2023-09-16T11:49:29Z</time>
      </trkpt>
      <trkpt lat="44.06207" lon="3.43283">
        <ele>866</ele>
        <time>2023-09-16T11:49:39Z</time>
      </trkpt>
      <trkpt lat="44.06245" lon="3.43298">
        <ele>868</ele>
        <time>2023-09-16T11:49:46Z</time>
      </trkpt>
      <trkpt lat="44.06264" lon="3.43298">
        <ele>866</ele>
        <time>2023-09-16T11:49:50Z</time>
      </trkpt>
      <trkpt lat="44.06276" lon="3.43295">
        <ele>863</ele>
        <time>2023-09-16T11:49:52Z</time>
      </trkpt>
      <trkpt lat="44.06287" lon="3.43295">
        <ele>861</ele>
        <time>2023-09-16T11:49:54Z</time>
      </trkpt>
      <trkpt lat="44.06297" lon="3.43302">
        <ele>861</ele>
        <time>2023-09-16T11:49:56Z</time>
      </trkpt>
      <trkpt lat="44.06313" lon="3.43322">
        <ele>864</ele>
        <time>2023-09-16T11:50:00Z</time>
      </trkpt>
      <trkpt lat="44.06326" lon="3.43334">
        <ele>865</ele>
        <time>2023-09-16T11:50:02Z</time>
      </trkpt>
      <trkpt lat="44.06342" lon="3.43343">
        <ele>864</ele>
        <time>2023-09-16T11:50:05Z</time>
      </trkpt>
      <trkpt lat="44.06356" lon="3.43356">
        <ele>863</ele>
        <time>2023-09-16T11:50:08Z</time>
      </trkpt>
      <trkpt lat="44.06368" lon="3.43372">
        <ele>863</ele>
        <time>2023-09-16T11:50:11Z</time>
      </trkpt>
      <trkpt lat="44.06387" lon="3.43422">
        <ele>867</ele>
        <time>2023-09-16T11:50:19Z</time>
      </trkpt>
      <trkpt lat="44.0639" lon="3.43437">
        <ele>866</ele>
        <time>2023-09-16T11:50:21Z</time>
      </trkpt>
      <trkpt lat="44.06391" lon="3.43456">
        <ele>866</ele>
        <time>2023-09-16T11:50:23Z</time>
      </trkpt>
      <trkpt lat="44.06386" lon="3.43481">
        <ele>868</ele>
        <time>2023-09-16T11:50:26Z</time>
      </trkpt>
      <trkpt lat="44.06371" lon="3.43525">
        <ele>874</ele>
        <time>2023-09-16T11:50:33Z</time>
      </trkpt>
      <trkpt lat="44.06367" lon="3.4354">
        <ele>876</ele>
        <time>2023-09-16T11:50:35Z</time>
      </trkpt>
      <trkpt lat="44.06367" lon="3.43552">
        <ele>876</ele>
        <time>2023-09-16T11:50:36Z</time>
      </trkpt>
      <trkpt lat="44.0637" lon="3.43561">
        <ele>876</ele>
        <time>2023-09-16T11:50:37Z</time>
      </trkpt>
      <trkpt lat="44.06375" lon="3.43568">
        <ele>875</ele>
        <time>2023-09-16T11:50:39Z</time>
      </trkpt>
      <trkpt lat="44.06386" lon="3.43574">
        <ele>873</ele>
        <time>2023-09-16T11:50:41Z</time>
      </trkpt>
      <trkpt lat="44.06418" lon="3.43569">
        <ele>867</ele>
        <time>2023-09-16T11:50:47Z</time>
      </trkpt>
      <trkpt lat="44.0643" lon="3.4357">
        <ele>866</ele>
        <time>2023-09-16T11:50:49Z</time>
      </trkpt>
      <trkpt lat="44.06463" lon="3.43578">
        <ele>863</ele>
        <time>2023-09-16T11:50:55Z</time>
      </trkpt>
      <trkpt lat="44.0647" lon="3.43584">
        <ele>863</ele>
        <time>2023-09-16T11:50:56Z</time>
      </trkpt>
      <trkpt lat="44.06474" lon="3.43595">
        <ele>864</ele>
        <time>2023-09-16T11:50:58Z</time>
      </trkpt>
      <trkpt lat="44.06476" lon="3.43608">
        <ele>864</ele>
        <time>2023-09-16T11:50:59Z</time>
      </trkpt>
      <trkpt lat="44.06476" lon="3.43622">
        <ele>865</ele>
        <time>2023-09-16T11:51:01Z</time>
      </trkpt>
      <trkpt lat="44.06461" lon="3.4371">
        <ele>867</ele>
        <time>2023-09-16T11:51:13Z</time>
      </trkpt>
      <trkpt lat="44.06458" lon="3.43752">
        <ele>865</ele>
        <time>2023-09-16T11:51:18Z</time>
      </trkpt>
      <trkpt lat="44.06453" lon="3.43761">
        <ele>863</ele>
        <time>2023-09-16T11:51:20Z</time>
      </trkpt>
      <trkpt lat="44.06445" lon="3.43771">
        <ele>862</ele>
        <time>2023-09-16T11:51:22Z</time>
      </trkpt>
      <trkpt lat="44.06436" lon="3.43777">
        <ele>862</ele>
        <time>2023-09-16T11:51:23Z</time>
      </trkpt>
      <trkpt lat="44.06422" lon="3.43784">
        <ele>861</ele>
        <time>2023-09-16T11:51:26Z</time>
      </trkpt>
      <trkpt lat="44.06402" lon="3.43779">
        <ele>864</ele>
        <time>2023-09-16T11:51:30Z</time>
      </trkpt>
      <trkpt lat="44.06393" lon="3.43778">
        <ele>866</ele>
        <time>2023-09-16T11:51:31Z</time>
      </trkpt>
      <trkpt lat="44.06378" lon="3.43784">
        <ele>866</ele>
        <time>2023-09-16T11:51:34Z</time>
      </trkpt>
      <trkpt lat="44.06354" lon="3.43811">
        <ele>862</ele>
        <time>2023-09-16T11:51:39Z</time>
      </trkpt>
      <trkpt lat="44.06334" lon="3.4382">
        <ele>862</ele>
        <time>2023-09-16T11:51:43Z</time>
      </trkpt>
      <trkpt lat="44.06301" lon="3.43822">
        <ele>867</ele>
        <time>2023-09-16T11:51:49Z</time>
      </trkpt>
      <trkpt lat="44.06281" lon="3.43833">
        <ele>868</ele>
        <time>2023-09-16T11:51:53Z</time>
      </trkpt>
      <trkpt lat="44.06252" lon="3.43853">
        <ele>867</ele>
        <time>2023-09-16T11:51:59Z</time>
      </trkpt>
      <trkpt lat="44.06241" lon="3.43865">
        <ele>867</ele>
        <time>2023-09-16T11:52:01Z</time>
      </trkpt>
      <trkpt lat="44.06233" lon="3.43889">
        <ele>862</ele>
        <time>2023-09-16T11:52:04Z</time>
      </trkpt>
      <trkpt lat="44.06223" lon="3.43903">
        <ele>862</ele>
        <time>2023-09-16T11:52:07Z</time>
      </trkpt>
      <trkpt lat="44.06199" lon="3.43917">
        <ele>866</ele>
        <time>2023-09-16T11:52:12Z</time>
      </trkpt>
      <trkpt lat="44.0619" lon="3.43927">
        <ele>867</ele>
        <time>2023-09-16T11:52:14Z</time>
      </trkpt>
      <trkpt lat="44.06178" lon="3.43963">
        <ele>865</ele>
        <time>2023-09-16T11:52:19Z</time>
      </trkpt>
      <trkpt lat="44.06175" lon="3.43981">
        <ele>863</ele>
        <time>2023-09-16T11:52:21Z</time>
      </trkpt>
      <trkpt lat="44.06175" lon="3.44004">
        <ele>860</ele>
        <time>2023-09-16T11:52:24Z</time>
      </trkpt>
      <trkpt lat="44.06173" lon="3.44012">
        <ele>860</ele>
        <time>2023-09-16T11:52:25Z</time>
      </trkpt>
      <trkpt lat="44.06165" lon="3.44029">
        <ele>861</ele>
        <time>2023-09-16T11:52:28Z</time>
      </trkpt>
      <trkpt lat="44.0616" lon="3.44043">
        <ele>861</ele>
        <time>2023-09-16T11:52:30Z</time>
      </trkpt>
      <trkpt lat="44.0616" lon="3.44089">
        <ele>856</ele>
        <time>2023-09-16T11:52:36Z</time>
      </trkpt>
      <trkpt lat="44.06155" lon="3.441">
        <ele>857</ele>
        <time>2023-09-16T11:52:37Z</time>
      </trkpt>
      <trkpt lat="44.06144" lon="3.44112">
        <ele>859</ele>
        <time>2023-09-16T11:52:40Z</time>
      </trkpt>
      <trkpt lat="44.06114" lon="3.44128">
        <ele>867</ele>
        <time>2023-09-16T11:52:46Z</time>
      </trkpt>
      <trkpt lat="44.0611" lon="3.44132">
        <ele>868</ele>
        <time>2023-09-16T11:52:46Z</time>
      </trkpt>
      <trkpt lat="44.06108" lon="3.44138">
        <ele>869</ele>
        <time>2023-09-16T11:52:47Z</time>
      </trkpt>
      <trkpt lat="44.06106" lon="3.44147">
        <ele>869</ele>
        <time>2023-09-16T11:52:48Z</time>
      </trkpt>
      <trkpt lat="44.06108" lon="3.44172">
        <ele>868</ele>
        <time>2023-09-16T11:52:52Z</time>
      </trkpt>
      <trkpt lat="44.06116" lon="3.44214">
        <ele>867</ele>
        <time>2023-09-16T11:52:57Z</time>
      </trkpt>
      <trkpt lat="44.06129" lon="3.4425">
        <ele>864</ele>
        <time>2023-09-16T11:53:02Z</time>
      </trkpt>
      <trkpt lat="44.06138" lon="3.44269">
        <ele>861</ele>
        <time>2023-09-16T11:53:05Z</time>
      </trkpt>
      <trkpt lat="44.06142" lon="3.44279">
        <ele>859</ele>
        <time>2023-09-16T11:53:07Z</time>
      </trkpt>
      <trkpt lat="44.06142" lon="3.44289">
        <ele>858</ele>
        <time>2023-09-16T11:53:08Z</time>
      </trkpt>
      <trkpt lat="44.06141" lon="3.44295">
        <ele>859</ele>
        <time>2023-09-16T11:53:09Z</time>
      </trkpt>
      <trkpt lat="44.06125" lon="3.44326">
        <ele>865</ele>
        <time>2023-09-16T11:53:14Z</time>
      </trkpt>
      <trkpt lat="44.06123" lon="3.44348">
        <ele>864</ele>
        <time>2023-09-16T11:53:17Z</time>
      </trkpt>
      <trkpt lat="44.06123" lon="3.44366">
        <ele>863</ele>
        <time>2023-09-16T11:53:19Z</time>
      </trkpt>
      <trkpt lat="44.0612" lon="3.44381">
        <ele>863</ele>
        <time>2023-09-16T11:53:21Z</time>
      </trkpt>
      <trkpt lat="44.06115" lon="3.44393">
        <ele>864</ele>
        <time>2023-09-16T11:53:23Z</time>
      </trkpt>
      <trkpt lat="44.06085" lon="3.4443">
        <ele>873</ele>
        <time>2023-09-16T11:53:30Z</time>
      </trkpt>
      <trkpt lat="44.06079" lon="3.44443">
        <ele>876</ele>
        <time>2023-09-16T11:53:32Z</time>
      </trkpt>
      <trkpt lat="44.06077" lon="3.44454">
        <ele>877</ele>
        <time>2023-09-16T11:53:33Z</time>
      </trkpt>
      <trkpt lat="44.06078" lon="3.44468">
        <ele>876</ele>
        <time>2023-09-16T11:53:35Z</time>
      </trkpt>
      <trkpt lat="44.06093" lon="3.44494">
        <ele>870</ele>
        <time>2023-09-16T11:53:39Z</time>
      </trkpt>
      <trkpt lat="44.06116" lon="3.44551">
        <ele>864</ele>
        <time>2023-09-16T11:53:48Z</time>
      </trkpt>
      <trkpt lat="44.06119" lon="3.44561">
        <ele>863</ele>
        <time>2023-09-16T11:53:49Z</time>
      </trkpt>
      <trkpt lat="44.06119" lon="3.44577">
        <ele>864</ele>
        <time>2023-09-16T11:53:51Z</time>
      </trkpt>
      <trkpt lat="44.06117" lon="3.44599">
        <ele>865</ele>
        <time>2023-09-16T11:53:54Z</time>
      </trkpt>
      <trkpt lat="44.06118" lon="3.4461">
        <ele>865</ele>
        <time>2023-09-16T11:53:55Z</time>
      </trkpt>
      <trkpt lat="44.06126" lon="3.44635">
        <ele>863</ele>
        <time>2023-09-16T11:53:59Z</time>
      </trkpt>
      <trkpt lat="44.06128" lon="3.44657">
        <ele>862</ele>
        <time>2023-09-16T11:54:02Z</time>
      </trkpt>
      <trkpt lat="44.06126" lon="3.44671">
        <ele>863</ele>
        <time>2023-09-16T11:54:03Z</time>
      </trkpt>
      <trkpt lat="44.06119" lon="3.44685">
        <ele>865</ele>
        <time>2023-09-16T11:54:06Z</time>
      </trkpt>
      <trkpt lat="44.06105" lon="3.44706">
        <ele>868</ele>
        <time>2023-09-16T11:54:09Z</time>
      </trkpt>
      <trkpt lat="44.06091" lon="3.44718">
        <ele>872</ele>
        <time>2023-09-16T11:54:12Z</time>
      </trkpt>
      <trkpt lat="44.06061" lon="3.44756">
        <ele>878</ele>
        <time>2023-09-16T11:54:19Z</time>
      </trkpt>
      <trkpt lat="44.06054" lon="3.44772">
        <ele>878</ele>
        <time>2023-09-16T11:54:22Z</time>
      </trkpt>
      <trkpt lat="44.06044" lon="3.44827">
        <ele>877</ele>
        <time>2023-09-16T11:54:29Z</time>
      </trkpt>
      <trkpt lat="44.06036" lon="3.44853">
        <ele>879</ele>
        <time>2023-09-16T11:54:33Z</time>
      </trkpt>
      <trkpt lat="44.0603" lon="3.44877">
        <ele>881</ele>
        <time>2023-09-16T11:54:36Z</time>
      </trkpt>
      <trkpt lat="44.06024" lon="3.45015">
        <ele>878</ele>
        <time>2023-09-16T11:54:54Z</time>
      </trkpt>
      <trkpt lat="44.06015" lon="3.45061">
        <ele>878</ele>
        <time>2023-09-16T11:55:00Z</time>
      </trkpt>
      <trkpt lat="44.06028" lon="3.45043">
        <ele>877</ele>
        <time>2023-09-16T11:55:03Z</time>
      </trkpt>
      <trkpt lat="44.06053" lon="3.4498">
        <ele>868</ele>
        <time>2023-09-16T11:55:12Z</time>
      </trkpt>
      <trkpt lat="44.06054" lon="3.44952">
        <ele>867</ele>
        <time>2023-09-16T11:55:16Z</time>
      </trkpt>
      <trkpt lat="44.06063" lon="3.44927">
        <ele>863</ele>
        <time>2023-09-16T11:55:19Z</time>
      </trkpt>
      <trkpt lat="44.06068" lon="3.44921">
        <ele>860</ele>
        <time>2023-09-16T11:55:20Z</time>
      </trkpt>
      <trkpt lat="44.06077" lon="3.44889">
        <ele>857</ele>
        <time>2023-09-16T11:55:25Z</time>
      </trkpt>
      <trkpt lat="44.0608" lon="3.44888">
        <ele>855</ele>
        <time>2023-09-16T11:55:25Z</time>
      </trkpt>
      <trkpt lat="44.06082" lon="3.4489">
        <ele>854</ele>
        <time>2023-09-16T11:55:26Z</time>
      </trkpt>
      <trkpt lat="44.06091" lon="3.4491">
        <ele>852</ele>
        <time>2023-09-16T11:55:29Z</time>
      </trkpt>
    </trkseg>
  </trk>
</gpx>